<?xml version="1.0" encoding="UTF-8" standalone="no" ?>
<gpx xmlns="http://www.topografix.com/GPX/1/1" xmlns:xsi="http://www.w3.org/2001/XMLSchema-instance" xsi:schemaLocation="http://www.topografix.com/GPX/1/1 http://www.topografix.com/GPX/1/1/gpx.xsd" version="1.1" creator="VisuGPX - https://www.visugpx.com">
  <metadata>
    <name>Pomérede \\\&quot;N,E,B,B\\\&quot;</name>
    <desc><![CDATA[Plop...Plopi]]></desc>
  </metadata>
  <trk>
    <name><![CDATA[Pomérede \\\"N,E,B,B\\\"_1]]></name>
    <trkseg>
      <trkpt lat="45.27358" lon="0.94191">
        <ele>190</ele>
        <time>2015-06-07T07:39:51Z</time>
      </trkpt>
      <trkpt lat="45.27367" lon="0.94193">
        <ele>187</ele>
        <time>2015-06-07T07:40:09Z</time>
      </trkpt>
      <trkpt lat="45.27375" lon="0.94198">
        <ele>187.25</ele>
        <time>2015-06-07T07:40:42Z</time>
      </trkpt>
      <trkpt lat="45.27386" lon="0.942">
        <ele>186.5</ele>
        <time>2015-06-07T07:41:06Z</time>
      </trkpt>
      <trkpt lat="45.27395" lon="0.94198">
        <ele>186.75</ele>
        <time>2015-06-07T07:41:33Z</time>
      </trkpt>
      <trkpt lat="45.27387" lon="0.9419">
        <ele>186.25</ele>
        <time>2015-06-07T07:42:32Z</time>
      </trkpt>
      <trkpt lat="45.2738" lon="0.9418">
        <ele>185.5</ele>
        <time>2015-06-07T07:42:38Z</time>
      </trkpt>
      <trkpt lat="45.27372" lon="0.94177">
        <ele>184</ele>
        <time>2015-06-07T07:42:52Z</time>
      </trkpt>
      <trkpt lat="45.27375" lon="0.94189">
        <ele>183</ele>
        <time>2015-06-07T07:43:15Z</time>
      </trkpt>
      <trkpt lat="45.27384" lon="0.94185">
        <ele>181</ele>
        <time>2015-06-07T07:44:05Z</time>
      </trkpt>
      <trkpt lat="45.27393" lon="0.94191">
        <ele>181</ele>
        <time>2015-06-07T07:44:11Z</time>
      </trkpt>
      <trkpt lat="45.27402" lon="0.94194">
        <ele>182.5</ele>
        <time>2015-06-07T07:44:16Z</time>
      </trkpt>
      <trkpt lat="45.27413" lon="0.94195">
        <ele>183</ele>
        <time>2015-06-07T07:44:21Z</time>
      </trkpt>
      <trkpt lat="45.27423" lon="0.94196">
        <ele>182.5</ele>
        <time>2015-06-07T07:44:25Z</time>
      </trkpt>
      <trkpt lat="45.27434" lon="0.94198">
        <ele>182</ele>
        <time>2015-06-07T07:44:29Z</time>
      </trkpt>
      <trkpt lat="45.27445" lon="0.94199">
        <ele>182.25</ele>
        <time>2015-06-07T07:44:32Z</time>
      </trkpt>
      <trkpt lat="45.27455" lon="0.94199">
        <ele>183.25</ele>
        <time>2015-06-07T07:44:35Z</time>
      </trkpt>
      <trkpt lat="45.27467" lon="0.94199">
        <ele>184</ele>
        <time>2015-06-07T07:44:39Z</time>
      </trkpt>
      <trkpt lat="45.27476" lon="0.94201">
        <ele>184.25</ele>
        <time>2015-06-07T07:44:42Z</time>
      </trkpt>
      <trkpt lat="45.27488" lon="0.94205">
        <ele>185.25</ele>
        <time>2015-06-07T07:44:45Z</time>
      </trkpt>
      <trkpt lat="45.27499" lon="0.94212">
        <ele>185.25</ele>
        <time>2015-06-07T07:44:49Z</time>
      </trkpt>
      <trkpt lat="45.27508" lon="0.94218">
        <ele>184.75</ele>
        <time>2015-06-07T07:44:52Z</time>
      </trkpt>
      <trkpt lat="45.27517" lon="0.94222">
        <ele>184</ele>
        <time>2015-06-07T07:44:55Z</time>
      </trkpt>
      <trkpt lat="45.27528" lon="0.94225">
        <ele>183.75</ele>
        <time>2015-06-07T07:44:58Z</time>
      </trkpt>
      <trkpt lat="45.2754" lon="0.94226">
        <ele>183.25</ele>
        <time>2015-06-07T07:45:02Z</time>
      </trkpt>
      <trkpt lat="45.27551" lon="0.94225">
        <ele>183.25</ele>
        <time>2015-06-07T07:45:04Z</time>
      </trkpt>
      <trkpt lat="45.2756" lon="0.94225">
        <ele>183</ele>
        <time>2015-06-07T07:45:06Z</time>
      </trkpt>
      <trkpt lat="45.27572" lon="0.94223">
        <ele>183</ele>
        <time>2015-06-07T07:45:09Z</time>
      </trkpt>
      <trkpt lat="45.27582" lon="0.94221">
        <ele>182.25</ele>
        <time>2015-06-07T07:45:11Z</time>
      </trkpt>
      <trkpt lat="45.27592" lon="0.9422">
        <ele>181.25</ele>
        <time>2015-06-07T07:45:13Z</time>
      </trkpt>
      <trkpt lat="45.27604" lon="0.94221">
        <ele>181.75</ele>
        <time>2015-06-07T07:45:17Z</time>
      </trkpt>
      <trkpt lat="45.27615" lon="0.94223">
        <ele>181.75</ele>
        <time>2015-06-07T07:45:20Z</time>
      </trkpt>
      <trkpt lat="45.27623" lon="0.94233">
        <ele>180.5</ele>
        <time>2015-06-07T07:45:23Z</time>
      </trkpt>
      <trkpt lat="45.27626" lon="0.94246">
        <ele>179</ele>
        <time>2015-06-07T07:45:26Z</time>
      </trkpt>
      <trkpt lat="45.27625" lon="0.94262">
        <ele>177.25</ele>
        <time>2015-06-07T07:45:31Z</time>
      </trkpt>
      <trkpt lat="45.27622" lon="0.94276">
        <ele>175.5</ele>
        <time>2015-06-07T07:45:35Z</time>
      </trkpt>
      <trkpt lat="45.27619" lon="0.94288">
        <ele>174.5</ele>
        <time>2015-06-07T07:45:38Z</time>
      </trkpt>
      <trkpt lat="45.27615" lon="0.94303">
        <ele>174.75</ele>
        <time>2015-06-07T07:45:42Z</time>
      </trkpt>
      <trkpt lat="45.27613" lon="0.94315">
        <ele>175</ele>
        <time>2015-06-07T07:45:47Z</time>
      </trkpt>
      <trkpt lat="45.27612" lon="0.94329">
        <ele>175.75</ele>
        <time>2015-06-07T07:45:51Z</time>
      </trkpt>
      <trkpt lat="45.27612" lon="0.94346">
        <ele>175.75</ele>
        <time>2015-06-07T07:45:55Z</time>
      </trkpt>
      <trkpt lat="45.27614" lon="0.9436">
        <ele>176.5</ele>
        <time>2015-06-07T07:45:58Z</time>
      </trkpt>
      <trkpt lat="45.27616" lon="0.94377">
        <ele>177</ele>
        <time>2015-06-07T07:46:01Z</time>
      </trkpt>
      <trkpt lat="45.27617" lon="0.94394">
        <ele>177.75</ele>
        <time>2015-06-07T07:46:04Z</time>
      </trkpt>
      <trkpt lat="45.27615" lon="0.9441">
        <ele>178</ele>
        <time>2015-06-07T07:46:07Z</time>
      </trkpt>
      <trkpt lat="45.27612" lon="0.94425">
        <ele>178.75</ele>
        <time>2015-06-07T07:46:10Z</time>
      </trkpt>
      <trkpt lat="45.27609" lon="0.9444">
        <ele>180</ele>
        <time>2015-06-07T07:46:13Z</time>
      </trkpt>
      <trkpt lat="45.27605" lon="0.94454">
        <ele>181.5</ele>
        <time>2015-06-07T07:46:16Z</time>
      </trkpt>
      <trkpt lat="45.27599" lon="0.94464">
        <ele>183</ele>
        <time>2015-06-07T07:46:20Z</time>
      </trkpt>
      <trkpt lat="45.2759" lon="0.94472">
        <ele>184</ele>
        <time>2015-06-07T07:46:23Z</time>
      </trkpt>
      <trkpt lat="45.2758" lon="0.94481">
        <ele>184.75</ele>
        <time>2015-06-07T07:46:27Z</time>
      </trkpt>
      <trkpt lat="45.27569" lon="0.94486">
        <ele>184.5</ele>
        <time>2015-06-07T07:46:31Z</time>
      </trkpt>
      <trkpt lat="45.2756" lon="0.94495">
        <ele>185.5</ele>
        <time>2015-06-07T07:46:35Z</time>
      </trkpt>
      <trkpt lat="45.27551" lon="0.94505">
        <ele>186</ele>
        <time>2015-06-07T07:46:39Z</time>
      </trkpt>
      <trkpt lat="45.27545" lon="0.94514">
        <ele>187.25</ele>
        <time>2015-06-07T07:46:42Z</time>
      </trkpt>
      <trkpt lat="45.27539" lon="0.94523">
        <ele>188.5</ele>
        <time>2015-06-07T07:46:45Z</time>
      </trkpt>
      <trkpt lat="45.27532" lon="0.94534">
        <ele>189.75</ele>
        <time>2015-06-07T07:46:50Z</time>
      </trkpt>
      <trkpt lat="45.27525" lon="0.94543">
        <ele>190.5</ele>
        <time>2015-06-07T07:46:54Z</time>
      </trkpt>
      <trkpt lat="45.2752" lon="0.94558">
        <ele>191.75</ele>
        <time>2015-06-07T07:46:59Z</time>
      </trkpt>
      <trkpt lat="45.27519" lon="0.94571">
        <ele>192.75</ele>
        <time>2015-06-07T07:47:03Z</time>
      </trkpt>
      <trkpt lat="45.27517" lon="0.94585">
        <ele>193.25</ele>
        <time>2015-06-07T07:47:07Z</time>
      </trkpt>
      <trkpt lat="45.27516" lon="0.94599">
        <ele>194.5</ele>
        <time>2015-06-07T07:47:11Z</time>
      </trkpt>
      <trkpt lat="45.27514" lon="0.94614">
        <ele>195.5</ele>
        <time>2015-06-07T07:47:15Z</time>
      </trkpt>
      <trkpt lat="45.27512" lon="0.94628">
        <ele>196.5</ele>
        <time>2015-06-07T07:47:18Z</time>
      </trkpt>
      <trkpt lat="45.27511" lon="0.94641">
        <ele>197</ele>
        <time>2015-06-07T07:47:22Z</time>
      </trkpt>
      <trkpt lat="45.27509" lon="0.94658">
        <ele>197.25</ele>
        <time>2015-06-07T07:47:26Z</time>
      </trkpt>
      <trkpt lat="45.27508" lon="0.94674">
        <ele>198.25</ele>
        <time>2015-06-07T07:47:30Z</time>
      </trkpt>
      <trkpt lat="45.27506" lon="0.9469">
        <ele>199</ele>
        <time>2015-06-07T07:47:34Z</time>
      </trkpt>
      <trkpt lat="45.27502" lon="0.94704">
        <ele>199.25</ele>
        <time>2015-06-07T07:47:38Z</time>
      </trkpt>
      <trkpt lat="45.27492" lon="0.94701">
        <ele>200</ele>
        <time>2015-06-07T07:47:43Z</time>
      </trkpt>
      <trkpt lat="45.27483" lon="0.94692">
        <ele>200.25</ele>
        <time>2015-06-07T07:47:47Z</time>
      </trkpt>
      <trkpt lat="45.27473" lon="0.94684">
        <ele>200.25</ele>
        <time>2015-06-07T07:47:52Z</time>
      </trkpt>
      <trkpt lat="45.27464" lon="0.94678">
        <ele>201.25</ele>
        <time>2015-06-07T07:47:56Z</time>
      </trkpt>
      <trkpt lat="45.27455" lon="0.94674">
        <ele>202.75</ele>
        <time>2015-06-07T07:48:01Z</time>
      </trkpt>
      <trkpt lat="45.27447" lon="0.9467">
        <ele>204.5</ele>
        <time>2015-06-07T07:48:05Z</time>
      </trkpt>
      <trkpt lat="45.2744" lon="0.94662">
        <ele>205.75</ele>
        <time>2015-06-07T07:48:09Z</time>
      </trkpt>
      <trkpt lat="45.27432" lon="0.94653">
        <ele>206.75</ele>
        <time>2015-06-07T07:48:15Z</time>
      </trkpt>
      <trkpt lat="45.27423" lon="0.94646">
        <ele>207.25</ele>
        <time>2015-06-07T07:48:19Z</time>
      </trkpt>
      <trkpt lat="45.27418" lon="0.94636">
        <ele>208.5</ele>
        <time>2015-06-07T07:48:25Z</time>
      </trkpt>
      <trkpt lat="45.27409" lon="0.94628">
        <ele>209</ele>
        <time>2015-06-07T07:48:30Z</time>
      </trkpt>
      <trkpt lat="45.274" lon="0.94621">
        <ele>209</ele>
        <time>2015-06-07T07:48:35Z</time>
      </trkpt>
      <trkpt lat="45.27391" lon="0.94614">
        <ele>209.25</ele>
        <time>2015-06-07T07:48:40Z</time>
      </trkpt>
      <trkpt lat="45.27381" lon="0.94609">
        <ele>210.75</ele>
        <time>2015-06-07T07:48:46Z</time>
      </trkpt>
      <trkpt lat="45.27372" lon="0.94603">
        <ele>212.75</ele>
        <time>2015-06-07T07:48:51Z</time>
      </trkpt>
      <trkpt lat="45.27362" lon="0.94597">
        <ele>214.75</ele>
        <time>2015-06-07T07:48:56Z</time>
      </trkpt>
      <trkpt lat="45.27352" lon="0.94593">
        <ele>216.25</ele>
        <time>2015-06-07T07:49:01Z</time>
      </trkpt>
      <trkpt lat="45.27342" lon="0.9459">
        <ele>218.25</ele>
        <time>2015-06-07T07:49:06Z</time>
      </trkpt>
      <trkpt lat="45.27332" lon="0.94587">
        <ele>219.75</ele>
        <time>2015-06-07T07:49:11Z</time>
      </trkpt>
      <trkpt lat="45.27324" lon="0.94581">
        <ele>223.75</ele>
        <time>2015-06-07T07:49:17Z</time>
      </trkpt>
      <trkpt lat="45.27314" lon="0.94577">
        <ele>225.75</ele>
        <time>2015-06-07T07:49:23Z</time>
      </trkpt>
      <trkpt lat="45.27305" lon="0.94575">
        <ele>226.5</ele>
        <time>2015-06-07T07:49:27Z</time>
      </trkpt>
      <trkpt lat="45.27295" lon="0.94567">
        <ele>228.75</ele>
        <time>2015-06-07T07:49:32Z</time>
      </trkpt>
      <trkpt lat="45.27287" lon="0.94559">
        <ele>229.75</ele>
        <time>2015-06-07T07:49:36Z</time>
      </trkpt>
      <trkpt lat="45.27281" lon="0.94547">
        <ele>230</ele>
        <time>2015-06-07T07:49:40Z</time>
      </trkpt>
      <trkpt lat="45.27277" lon="0.94535">
        <ele>230</ele>
        <time>2015-06-07T07:49:44Z</time>
      </trkpt>
      <trkpt lat="45.27269" lon="0.94522">
        <ele>229</ele>
        <time>2015-06-07T07:49:47Z</time>
      </trkpt>
      <trkpt lat="45.27261" lon="0.9451">
        <ele>228</ele>
        <time>2015-06-07T07:49:51Z</time>
      </trkpt>
      <trkpt lat="45.27256" lon="0.945">
        <ele>227.5</ele>
        <time>2015-06-07T07:49:54Z</time>
      </trkpt>
      <trkpt lat="45.27251" lon="0.94488">
        <ele>227.25</ele>
        <time>2015-06-07T07:49:57Z</time>
      </trkpt>
      <trkpt lat="45.27247" lon="0.94477">
        <ele>227</ele>
        <time>2015-06-07T07:49:59Z</time>
      </trkpt>
      <trkpt lat="45.27243" lon="0.94464">
        <ele>227</ele>
        <time>2015-06-07T07:50:01Z</time>
      </trkpt>
      <trkpt lat="45.27235" lon="0.94451">
        <ele>227</ele>
        <time>2015-06-07T07:50:04Z</time>
      </trkpt>
      <trkpt lat="45.27227" lon="0.94443">
        <ele>227</ele>
        <time>2015-06-07T07:50:07Z</time>
      </trkpt>
      <trkpt lat="45.27219" lon="0.94433">
        <ele>227</ele>
        <time>2015-06-07T07:50:10Z</time>
      </trkpt>
      <trkpt lat="45.27213" lon="0.94422">
        <ele>227</ele>
        <time>2015-06-07T07:50:12Z</time>
      </trkpt>
      <trkpt lat="45.27206" lon="0.94408">
        <ele>227</ele>
        <time>2015-06-07T07:50:14Z</time>
      </trkpt>
      <trkpt lat="45.27197" lon="0.94394">
        <ele>226.5</ele>
        <time>2015-06-07T07:50:16Z</time>
      </trkpt>
      <trkpt lat="45.27188" lon="0.94384">
        <ele>226</ele>
        <time>2015-06-07T07:50:18Z</time>
      </trkpt>
      <trkpt lat="45.27177" lon="0.94381">
        <ele>226</ele>
        <time>2015-06-07T07:50:22Z</time>
      </trkpt>
      <trkpt lat="45.27167" lon="0.94379">
        <ele>226</ele>
        <time>2015-06-07T07:50:25Z</time>
      </trkpt>
      <trkpt lat="45.27157" lon="0.94374">
        <ele>226</ele>
        <time>2015-06-07T07:50:28Z</time>
      </trkpt>
      <trkpt lat="45.27146" lon="0.94368">
        <ele>226.75</ele>
        <time>2015-06-07T07:50:31Z</time>
      </trkpt>
      <trkpt lat="45.27136" lon="0.94361">
        <ele>227.5</ele>
        <time>2015-06-07T07:50:34Z</time>
      </trkpt>
      <trkpt lat="45.27126" lon="0.94356">
        <ele>228</ele>
        <time>2015-06-07T07:50:37Z</time>
      </trkpt>
      <trkpt lat="45.27115" lon="0.94353">
        <ele>228.75</ele>
        <time>2015-06-07T07:50:40Z</time>
      </trkpt>
      <trkpt lat="45.27104" lon="0.94351">
        <ele>229</ele>
        <time>2015-06-07T07:50:43Z</time>
      </trkpt>
      <trkpt lat="45.27093" lon="0.94348">
        <ele>229</ele>
        <time>2015-06-07T07:50:46Z</time>
      </trkpt>
      <trkpt lat="45.2708" lon="0.94346">
        <ele>229</ele>
        <time>2015-06-07T07:50:49Z</time>
      </trkpt>
      <trkpt lat="45.27069" lon="0.94344">
        <ele>229</ele>
        <time>2015-06-07T07:50:53Z</time>
      </trkpt>
      <trkpt lat="45.27059" lon="0.94341">
        <ele>229</ele>
        <time>2015-06-07T07:50:56Z</time>
      </trkpt>
      <trkpt lat="45.27049" lon="0.94337">
        <ele>228.75</ele>
        <time>2015-06-07T07:50:59Z</time>
      </trkpt>
      <trkpt lat="45.2704" lon="0.94335">
        <ele>228.25</ele>
        <time>2015-06-07T07:51:02Z</time>
      </trkpt>
      <trkpt lat="45.2703" lon="0.94332">
        <ele>229.25</ele>
        <time>2015-06-07T07:51:05Z</time>
      </trkpt>
      <trkpt lat="45.27017" lon="0.9433">
        <ele>230</ele>
        <time>2015-06-07T07:51:08Z</time>
      </trkpt>
      <trkpt lat="45.27006" lon="0.94331">
        <ele>230</ele>
        <time>2015-06-07T07:51:10Z</time>
      </trkpt>
      <trkpt lat="45.26994" lon="0.94332">
        <ele>229.75</ele>
        <time>2015-06-07T07:51:12Z</time>
      </trkpt>
      <trkpt lat="45.26983" lon="0.94334">
        <ele>229.25</ele>
        <time>2015-06-07T07:51:14Z</time>
      </trkpt>
      <trkpt lat="45.2697" lon="0.94338">
        <ele>228.5</ele>
        <time>2015-06-07T07:51:16Z</time>
      </trkpt>
      <trkpt lat="45.26958" lon="0.9434">
        <ele>228</ele>
        <time>2015-06-07T07:51:18Z</time>
      </trkpt>
      <trkpt lat="45.26946" lon="0.94344">
        <ele>227.25</ele>
        <time>2015-06-07T07:51:22Z</time>
      </trkpt>
      <trkpt lat="45.26935" lon="0.94347">
        <ele>226.5</ele>
        <time>2015-06-07T07:51:25Z</time>
      </trkpt>
      <trkpt lat="45.26924" lon="0.94351">
        <ele>226</ele>
        <time>2015-06-07T07:51:28Z</time>
      </trkpt>
      <trkpt lat="45.26914" lon="0.94358">
        <ele>226.75</ele>
        <time>2015-06-07T07:51:31Z</time>
      </trkpt>
      <trkpt lat="45.26906" lon="0.94363">
        <ele>227</ele>
        <time>2015-06-07T07:51:33Z</time>
      </trkpt>
      <trkpt lat="45.26896" lon="0.94366">
        <ele>227.5</ele>
        <time>2015-06-07T07:51:35Z</time>
      </trkpt>
      <trkpt lat="45.26886" lon="0.94369">
        <ele>228</ele>
        <time>2015-06-07T07:51:37Z</time>
      </trkpt>
      <trkpt lat="45.26876" lon="0.94372">
        <ele>228</ele>
        <time>2015-06-07T07:51:39Z</time>
      </trkpt>
      <trkpt lat="45.26866" lon="0.94376">
        <ele>228</ele>
        <time>2015-06-07T07:51:41Z</time>
      </trkpt>
      <trkpt lat="45.26856" lon="0.94382">
        <ele>228</ele>
        <time>2015-06-07T07:51:43Z</time>
      </trkpt>
      <trkpt lat="45.26845" lon="0.94389">
        <ele>227.75</ele>
        <time>2015-06-07T07:51:45Z</time>
      </trkpt>
      <trkpt lat="45.26832" lon="0.94397">
        <ele>227.5</ele>
        <time>2015-06-07T07:51:47Z</time>
      </trkpt>
      <trkpt lat="45.2682" lon="0.94404">
        <ele>228.5</ele>
        <time>2015-06-07T07:51:49Z</time>
      </trkpt>
      <trkpt lat="45.2681" lon="0.94407">
        <ele>229.75</ele>
        <time>2015-06-07T07:51:51Z</time>
      </trkpt>
      <trkpt lat="45.26801" lon="0.94407">
        <ele>230</ele>
        <time>2015-06-07T07:51:54Z</time>
      </trkpt>
      <trkpt lat="45.26789" lon="0.94405">
        <ele>230</ele>
        <time>2015-06-07T07:51:57Z</time>
      </trkpt>
      <trkpt lat="45.2678" lon="0.94405">
        <ele>230.5</ele>
        <time>2015-06-07T07:52:01Z</time>
      </trkpt>
      <trkpt lat="45.26767" lon="0.94405">
        <ele>232</ele>
        <time>2015-06-07T07:52:05Z</time>
      </trkpt>
      <trkpt lat="45.26755" lon="0.94403">
        <ele>233.25</ele>
        <time>2015-06-07T07:52:08Z</time>
      </trkpt>
      <trkpt lat="45.26745" lon="0.94402">
        <ele>235.5</ele>
        <time>2015-06-07T07:52:12Z</time>
      </trkpt>
      <trkpt lat="45.26735" lon="0.94397">
        <ele>241.25</ele>
        <time>2015-06-07T07:52:18Z</time>
      </trkpt>
      <trkpt lat="45.26725" lon="0.94394">
        <ele>243</ele>
        <time>2015-06-07T07:52:22Z</time>
      </trkpt>
      <trkpt lat="45.26713" lon="0.9439">
        <ele>244</ele>
        <time>2015-06-07T07:52:26Z</time>
      </trkpt>
      <trkpt lat="45.26702" lon="0.94385">
        <ele>244</ele>
        <time>2015-06-07T07:52:31Z</time>
      </trkpt>
      <trkpt lat="45.26691" lon="0.94382">
        <ele>244</ele>
        <time>2015-06-07T07:52:35Z</time>
      </trkpt>
      <trkpt lat="45.2668" lon="0.94381">
        <ele>244</ele>
        <time>2015-06-07T07:52:39Z</time>
      </trkpt>
      <trkpt lat="45.26671" lon="0.9438">
        <ele>244.75</ele>
        <time>2015-06-07T07:52:42Z</time>
      </trkpt>
      <trkpt lat="45.26662" lon="0.9438">
        <ele>244.25</ele>
        <time>2015-06-07T07:52:45Z</time>
      </trkpt>
      <trkpt lat="45.26653" lon="0.94379">
        <ele>244</ele>
        <time>2015-06-07T07:52:48Z</time>
      </trkpt>
      <trkpt lat="45.26644" lon="0.94378">
        <ele>243.25</ele>
        <time>2015-06-07T07:52:51Z</time>
      </trkpt>
      <trkpt lat="45.26633" lon="0.94374">
        <ele>243</ele>
        <time>2015-06-07T07:52:55Z</time>
      </trkpt>
      <trkpt lat="45.26623" lon="0.9437">
        <ele>243.75</ele>
        <time>2015-06-07T07:53:00Z</time>
      </trkpt>
      <trkpt lat="45.26613" lon="0.9437">
        <ele>244.75</ele>
        <time>2015-06-07T07:53:07Z</time>
      </trkpt>
      <trkpt lat="45.26604" lon="0.94374">
        <ele>246.5</ele>
        <time>2015-06-07T07:53:13Z</time>
      </trkpt>
      <trkpt lat="45.26594" lon="0.94377">
        <ele>247</ele>
        <time>2015-06-07T07:53:18Z</time>
      </trkpt>
      <trkpt lat="45.26584" lon="0.9438">
        <ele>247</ele>
        <time>2015-06-07T07:53:22Z</time>
      </trkpt>
      <trkpt lat="45.26575" lon="0.94383">
        <ele>246.5</ele>
        <time>2015-06-07T07:53:25Z</time>
      </trkpt>
      <trkpt lat="45.26565" lon="0.94388">
        <ele>246</ele>
        <time>2015-06-07T07:53:29Z</time>
      </trkpt>
      <trkpt lat="45.26554" lon="0.94393">
        <ele>246.75</ele>
        <time>2015-06-07T07:53:33Z</time>
      </trkpt>
      <trkpt lat="45.26544" lon="0.94397">
        <ele>247.5</ele>
        <time>2015-06-07T07:53:36Z</time>
      </trkpt>
      <trkpt lat="45.26533" lon="0.94399">
        <ele>247</ele>
        <time>2015-06-07T07:53:41Z</time>
      </trkpt>
      <trkpt lat="45.26523" lon="0.94401">
        <ele>247.25</ele>
        <time>2015-06-07T07:53:44Z</time>
      </trkpt>
      <trkpt lat="45.26512" lon="0.94404">
        <ele>249</ele>
        <time>2015-06-07T07:53:49Z</time>
      </trkpt>
      <trkpt lat="45.26503" lon="0.94406">
        <ele>250.5</ele>
        <time>2015-06-07T07:53:53Z</time>
      </trkpt>
      <trkpt lat="45.26493" lon="0.94409">
        <ele>251.5</ele>
        <time>2015-06-07T07:53:57Z</time>
      </trkpt>
      <trkpt lat="45.26484" lon="0.94411">
        <ele>252.25</ele>
        <time>2015-06-07T07:54:02Z</time>
      </trkpt>
      <trkpt lat="45.26474" lon="0.94412">
        <ele>252.5</ele>
        <time>2015-06-07T07:54:05Z</time>
      </trkpt>
      <trkpt lat="45.26462" lon="0.94413">
        <ele>250.25</ele>
        <time>2015-06-07T07:54:09Z</time>
      </trkpt>
      <trkpt lat="45.26453" lon="0.94417">
        <ele>248.25</ele>
        <time>2015-06-07T07:54:13Z</time>
      </trkpt>
      <trkpt lat="45.26445" lon="0.94424">
        <ele>247.75</ele>
        <time>2015-06-07T07:54:18Z</time>
      </trkpt>
      <trkpt lat="45.26435" lon="0.9443">
        <ele>247</ele>
        <time>2015-06-07T07:54:22Z</time>
      </trkpt>
      <trkpt lat="45.26424" lon="0.94433">
        <ele>247</ele>
        <time>2015-06-07T07:54:27Z</time>
      </trkpt>
      <trkpt lat="45.26414" lon="0.94435">
        <ele>247</ele>
        <time>2015-06-07T07:54:32Z</time>
      </trkpt>
      <trkpt lat="45.26404" lon="0.94436">
        <ele>246.5</ele>
        <time>2015-06-07T07:54:36Z</time>
      </trkpt>
      <trkpt lat="45.26393" lon="0.94435">
        <ele>248.5</ele>
        <time>2015-06-07T07:54:42Z</time>
      </trkpt>
      <trkpt lat="45.26382" lon="0.94435">
        <ele>250.25</ele>
        <time>2015-06-07T07:54:48Z</time>
      </trkpt>
      <trkpt lat="45.26372" lon="0.94439">
        <ele>252.5</ele>
        <time>2015-06-07T07:54:53Z</time>
      </trkpt>
      <trkpt lat="45.26363" lon="0.94439">
        <ele>254</ele>
        <time>2015-06-07T07:54:58Z</time>
      </trkpt>
      <trkpt lat="45.26352" lon="0.94437">
        <ele>255.75</ele>
        <time>2015-06-07T07:55:03Z</time>
      </trkpt>
      <trkpt lat="45.2634" lon="0.94435">
        <ele>256.5</ele>
        <time>2015-06-07T07:55:07Z</time>
      </trkpt>
      <trkpt lat="45.2633" lon="0.94436">
        <ele>257</ele>
        <time>2015-06-07T07:55:11Z</time>
      </trkpt>
      <trkpt lat="45.26319" lon="0.94437">
        <ele>257.25</ele>
        <time>2015-06-07T07:55:15Z</time>
      </trkpt>
      <trkpt lat="45.26309" lon="0.94438">
        <ele>258.5</ele>
        <time>2015-06-07T07:55:18Z</time>
      </trkpt>
      <trkpt lat="45.26299" lon="0.94437">
        <ele>259</ele>
        <time>2015-06-07T07:55:23Z</time>
      </trkpt>
      <trkpt lat="45.26289" lon="0.94439">
        <ele>258.5</ele>
        <time>2015-06-07T07:55:27Z</time>
      </trkpt>
      <trkpt lat="45.26278" lon="0.94437">
        <ele>256.5</ele>
        <time>2015-06-07T07:55:31Z</time>
      </trkpt>
      <trkpt lat="45.26267" lon="0.94436">
        <ele>253</ele>
        <time>2015-06-07T07:55:35Z</time>
      </trkpt>
      <trkpt lat="45.26259" lon="0.94427">
        <ele>250.5</ele>
        <time>2015-06-07T07:55:39Z</time>
      </trkpt>
      <trkpt lat="45.26255" lon="0.94414">
        <ele>249</ele>
        <time>2015-06-07T07:55:43Z</time>
      </trkpt>
      <trkpt lat="45.26255" lon="0.94398">
        <ele>248</ele>
        <time>2015-06-07T07:55:46Z</time>
      </trkpt>
      <trkpt lat="45.26255" lon="0.94382">
        <ele>247.25</ele>
        <time>2015-06-07T07:55:51Z</time>
      </trkpt>
      <trkpt lat="45.26256" lon="0.94369">
        <ele>247</ele>
        <time>2015-06-07T07:55:54Z</time>
      </trkpt>
      <trkpt lat="45.26258" lon="0.94353">
        <ele>247</ele>
        <time>2015-06-07T07:55:57Z</time>
      </trkpt>
      <trkpt lat="45.2626" lon="0.94338">
        <ele>247.5</ele>
        <time>2015-06-07T07:56:00Z</time>
      </trkpt>
      <trkpt lat="45.26261" lon="0.94325">
        <ele>247.5</ele>
        <time>2015-06-07T07:56:03Z</time>
      </trkpt>
      <trkpt lat="45.2626" lon="0.9431">
        <ele>249.25</ele>
        <time>2015-06-07T07:56:06Z</time>
      </trkpt>
      <trkpt lat="45.26264" lon="0.94297">
        <ele>251.5</ele>
        <time>2015-06-07T07:56:10Z</time>
      </trkpt>
      <trkpt lat="45.2626" lon="0.94312">
        <ele>253.5</ele>
        <time>2015-06-07T07:56:23Z</time>
      </trkpt>
      <trkpt lat="45.26256" lon="0.94324">
        <ele>254</ele>
        <time>2015-06-07T07:56:26Z</time>
      </trkpt>
      <trkpt lat="45.26251" lon="0.94335">
        <ele>254.5</ele>
        <time>2015-06-07T07:56:29Z</time>
      </trkpt>
      <trkpt lat="45.26245" lon="0.94348">
        <ele>255</ele>
        <time>2015-06-07T07:56:32Z</time>
      </trkpt>
      <trkpt lat="45.2624" lon="0.94358">
        <ele>255.5</ele>
        <time>2015-06-07T07:56:35Z</time>
      </trkpt>
      <trkpt lat="45.26233" lon="0.94372">
        <ele>255</ele>
        <time>2015-06-07T07:56:39Z</time>
      </trkpt>
      <trkpt lat="45.26229" lon="0.94383">
        <ele>255</ele>
        <time>2015-06-07T07:56:42Z</time>
      </trkpt>
      <trkpt lat="45.26224" lon="0.94397">
        <ele>253.5</ele>
        <time>2015-06-07T07:56:45Z</time>
      </trkpt>
      <trkpt lat="45.26218" lon="0.94412">
        <ele>253</ele>
        <time>2015-06-07T07:56:48Z</time>
      </trkpt>
      <trkpt lat="45.26212" lon="0.94422">
        <ele>253.5</ele>
        <time>2015-06-07T07:56:51Z</time>
      </trkpt>
      <trkpt lat="45.26205" lon="0.94434">
        <ele>254</ele>
        <time>2015-06-07T07:56:53Z</time>
      </trkpt>
      <trkpt lat="45.26197" lon="0.94446">
        <ele>254.25</ele>
        <time>2015-06-07T07:56:55Z</time>
      </trkpt>
      <trkpt lat="45.26191" lon="0.94459">
        <ele>254.25</ele>
        <time>2015-06-07T07:56:57Z</time>
      </trkpt>
      <trkpt lat="45.26185" lon="0.94472">
        <ele>253.5</ele>
        <time>2015-06-07T07:56:59Z</time>
      </trkpt>
      <trkpt lat="45.2618" lon="0.94484">
        <ele>252.75</ele>
        <time>2015-06-07T07:57:01Z</time>
      </trkpt>
      <trkpt lat="45.26175" lon="0.94495">
        <ele>252.25</ele>
        <time>2015-06-07T07:57:03Z</time>
      </trkpt>
      <trkpt lat="45.26172" lon="0.94507">
        <ele>252</ele>
        <time>2015-06-07T07:57:06Z</time>
      </trkpt>
      <trkpt lat="45.26163" lon="0.94513">
        <ele>250.5</ele>
        <time>2015-06-07T07:57:10Z</time>
      </trkpt>
      <trkpt lat="45.26153" lon="0.9451">
        <ele>249.75</ele>
        <time>2015-06-07T07:57:14Z</time>
      </trkpt>
      <trkpt lat="45.26144" lon="0.94506">
        <ele>247.75</ele>
        <time>2015-06-07T07:57:27Z</time>
      </trkpt>
      <trkpt lat="45.26138" lon="0.94493">
        <ele>247.25</ele>
        <time>2015-06-07T07:57:32Z</time>
      </trkpt>
      <trkpt lat="45.26133" lon="0.94479">
        <ele>247</ele>
        <time>2015-06-07T07:57:35Z</time>
      </trkpt>
      <trkpt lat="45.26126" lon="0.94469">
        <ele>245.5</ele>
        <time>2015-06-07T07:57:40Z</time>
      </trkpt>
      <trkpt lat="45.26122" lon="0.94455">
        <ele>244.75</ele>
        <time>2015-06-07T07:57:51Z</time>
      </trkpt>
      <trkpt lat="45.26121" lon="0.94441">
        <ele>245</ele>
        <time>2015-06-07T07:57:55Z</time>
      </trkpt>
      <trkpt lat="45.26123" lon="0.94427">
        <ele>245</ele>
        <time>2015-06-07T07:57:59Z</time>
      </trkpt>
      <trkpt lat="45.26125" lon="0.94412">
        <ele>246</ele>
        <time>2015-06-07T07:58:02Z</time>
      </trkpt>
      <trkpt lat="45.26127" lon="0.94393">
        <ele>247.5</ele>
        <time>2015-06-07T07:58:05Z</time>
      </trkpt>
      <trkpt lat="45.26129" lon="0.9438">
        <ele>248.75</ele>
        <time>2015-06-07T07:58:07Z</time>
      </trkpt>
      <trkpt lat="45.26132" lon="0.94367">
        <ele>250</ele>
        <time>2015-06-07T07:58:09Z</time>
      </trkpt>
      <trkpt lat="45.26134" lon="0.94354">
        <ele>251</ele>
        <time>2015-06-07T07:58:11Z</time>
      </trkpt>
      <trkpt lat="45.26136" lon="0.9434">
        <ele>252.25</ele>
        <time>2015-06-07T07:58:13Z</time>
      </trkpt>
      <trkpt lat="45.26139" lon="0.94326">
        <ele>253.25</ele>
        <time>2015-06-07T07:58:15Z</time>
      </trkpt>
      <trkpt lat="45.26142" lon="0.94312">
        <ele>254</ele>
        <time>2015-06-07T07:58:17Z</time>
      </trkpt>
      <trkpt lat="45.26145" lon="0.94299">
        <ele>255</ele>
        <time>2015-06-07T07:58:20Z</time>
      </trkpt>
      <trkpt lat="45.26147" lon="0.94312">
        <ele>257</ele>
        <time>2015-06-07T07:58:28Z</time>
      </trkpt>
      <trkpt lat="45.26154" lon="0.94322">
        <ele>253.75</ele>
        <time>2015-06-07T07:58:40Z</time>
      </trkpt>
      <trkpt lat="45.26163" lon="0.94317">
        <ele>254</ele>
        <time>2015-06-07T07:58:48Z</time>
      </trkpt>
      <trkpt lat="45.26172" lon="0.94312">
        <ele>254</ele>
        <time>2015-06-07T07:58:52Z</time>
      </trkpt>
      <trkpt lat="45.26174" lon="0.94299">
        <ele>252</ele>
        <time>2015-06-07T07:58:59Z</time>
      </trkpt>
      <trkpt lat="45.26169" lon="0.94311">
        <ele>253.25</ele>
        <time>2015-06-07T07:59:13Z</time>
      </trkpt>
      <trkpt lat="45.26166" lon="0.94326">
        <ele>254</ele>
        <time>2015-06-07T07:59:19Z</time>
      </trkpt>
      <trkpt lat="45.26164" lon="0.94338">
        <ele>253.5</ele>
        <time>2015-06-07T07:59:23Z</time>
      </trkpt>
      <trkpt lat="45.26162" lon="0.94354">
        <ele>253</ele>
        <time>2015-06-07T07:59:27Z</time>
      </trkpt>
      <trkpt lat="45.26159" lon="0.9437">
        <ele>252.25</ele>
        <time>2015-06-07T07:59:31Z</time>
      </trkpt>
      <trkpt lat="45.26158" lon="0.94383">
        <ele>251</ele>
        <time>2015-06-07T07:59:36Z</time>
      </trkpt>
      <trkpt lat="45.26155" lon="0.94396">
        <ele>250</ele>
        <time>2015-06-07T07:59:41Z</time>
      </trkpt>
      <trkpt lat="45.26156" lon="0.94411">
        <ele>250.75</ele>
        <time>2015-06-07T07:59:48Z</time>
      </trkpt>
      <trkpt lat="45.26155" lon="0.94424">
        <ele>250.5</ele>
        <time>2015-06-07T07:59:57Z</time>
      </trkpt>
      <trkpt lat="45.26149" lon="0.94435">
        <ele>249</ele>
        <time>2015-06-07T08:00:07Z</time>
      </trkpt>
      <trkpt lat="45.26148" lon="0.94449">
        <ele>249</ele>
        <time>2015-06-07T08:00:16Z</time>
      </trkpt>
      <trkpt lat="45.26152" lon="0.94461">
        <ele>248</ele>
        <time>2015-06-07T08:00:25Z</time>
      </trkpt>
      <trkpt lat="45.26155" lon="0.94475">
        <ele>245.25</ele>
        <time>2015-06-07T08:00:34Z</time>
      </trkpt>
      <trkpt lat="45.26158" lon="0.94487">
        <ele>243.5</ele>
        <time>2015-06-07T08:00:44Z</time>
      </trkpt>
      <trkpt lat="45.2615" lon="0.94481">
        <ele>245.25</ele>
        <time>2015-06-07T08:01:20Z</time>
      </trkpt>
      <trkpt lat="45.26158" lon="0.94474">
        <ele>244.5</ele>
        <time>2015-06-07T08:01:41Z</time>
      </trkpt>
      <trkpt lat="45.26164" lon="0.94464">
        <ele>245</ele>
        <time>2015-06-07T08:01:45Z</time>
      </trkpt>
      <trkpt lat="45.26169" lon="0.94453">
        <ele>245.75</ele>
        <time>2015-06-07T08:01:48Z</time>
      </trkpt>
      <trkpt lat="45.26174" lon="0.94441">
        <ele>246.25</ele>
        <time>2015-06-07T08:01:51Z</time>
      </trkpt>
      <trkpt lat="45.26181" lon="0.94429">
        <ele>247</ele>
        <time>2015-06-07T08:01:56Z</time>
      </trkpt>
      <trkpt lat="45.26188" lon="0.94419">
        <ele>247.75</ele>
        <time>2015-06-07T08:01:59Z</time>
      </trkpt>
      <trkpt lat="45.26195" lon="0.94408">
        <ele>247.25</ele>
        <time>2015-06-07T08:02:02Z</time>
      </trkpt>
      <trkpt lat="45.26201" lon="0.94395">
        <ele>247.5</ele>
        <time>2015-06-07T08:02:05Z</time>
      </trkpt>
      <trkpt lat="45.26209" lon="0.94382">
        <ele>248</ele>
        <time>2015-06-07T08:02:08Z</time>
      </trkpt>
      <trkpt lat="45.26216" lon="0.94371">
        <ele>248</ele>
        <time>2015-06-07T08:02:11Z</time>
      </trkpt>
      <trkpt lat="45.26221" lon="0.94359">
        <ele>248</ele>
        <time>2015-06-07T08:02:14Z</time>
      </trkpt>
      <trkpt lat="45.26227" lon="0.94345">
        <ele>248</ele>
        <time>2015-06-07T08:02:17Z</time>
      </trkpt>
      <trkpt lat="45.26232" lon="0.94331">
        <ele>248.75</ele>
        <time>2015-06-07T08:02:20Z</time>
      </trkpt>
      <trkpt lat="45.26236" lon="0.94318">
        <ele>249</ele>
        <time>2015-06-07T08:02:22Z</time>
      </trkpt>
      <trkpt lat="45.26242" lon="0.94305">
        <ele>249</ele>
        <time>2015-06-07T08:02:24Z</time>
      </trkpt>
      <trkpt lat="45.26248" lon="0.94292">
        <ele>249.25</ele>
        <time>2015-06-07T08:02:26Z</time>
      </trkpt>
      <trkpt lat="45.26253" lon="0.94279">
        <ele>249.25</ele>
        <time>2015-06-07T08:02:28Z</time>
      </trkpt>
      <trkpt lat="45.26257" lon="0.94268">
        <ele>249</ele>
        <time>2015-06-07T08:02:31Z</time>
      </trkpt>
      <trkpt lat="45.26261" lon="0.94256">
        <ele>249</ele>
        <time>2015-06-07T08:02:34Z</time>
      </trkpt>
      <trkpt lat="45.26262" lon="0.9424">
        <ele>249</ele>
        <time>2015-06-07T08:02:39Z</time>
      </trkpt>
      <trkpt lat="45.26262" lon="0.94224">
        <ele>249.75</ele>
        <time>2015-06-07T08:02:43Z</time>
      </trkpt>
      <trkpt lat="45.26263" lon="0.9421">
        <ele>250.25</ele>
        <time>2015-06-07T08:02:46Z</time>
      </trkpt>
      <trkpt lat="45.26266" lon="0.94197">
        <ele>251.25</ele>
        <time>2015-06-07T08:02:49Z</time>
      </trkpt>
      <trkpt lat="45.26269" lon="0.94184">
        <ele>252</ele>
        <time>2015-06-07T08:02:52Z</time>
      </trkpt>
      <trkpt lat="45.26272" lon="0.94169">
        <ele>251.25</ele>
        <time>2015-06-07T08:02:55Z</time>
      </trkpt>
      <trkpt lat="45.26275" lon="0.94154">
        <ele>251.25</ele>
        <time>2015-06-07T08:02:58Z</time>
      </trkpt>
      <trkpt lat="45.26277" lon="0.94141">
        <ele>252</ele>
        <time>2015-06-07T08:03:01Z</time>
      </trkpt>
      <trkpt lat="45.26279" lon="0.94128">
        <ele>252</ele>
        <time>2015-06-07T08:03:05Z</time>
      </trkpt>
      <trkpt lat="45.26281" lon="0.94113">
        <ele>253.5</ele>
        <time>2015-06-07T08:03:09Z</time>
      </trkpt>
      <trkpt lat="45.26281" lon="0.94097">
        <ele>254</ele>
        <time>2015-06-07T08:03:14Z</time>
      </trkpt>
      <trkpt lat="45.26282" lon="0.94083">
        <ele>254</ele>
        <time>2015-06-07T08:03:18Z</time>
      </trkpt>
      <trkpt lat="45.26284" lon="0.9407">
        <ele>254.75</ele>
        <time>2015-06-07T08:03:22Z</time>
      </trkpt>
      <trkpt lat="45.26284" lon="0.94055">
        <ele>257</ele>
        <time>2015-06-07T08:03:28Z</time>
      </trkpt>
      <trkpt lat="45.26279" lon="0.94042">
        <ele>257</ele>
        <time>2015-06-07T08:03:34Z</time>
      </trkpt>
      <trkpt lat="45.26274" lon="0.94027">
        <ele>257.75</ele>
        <time>2015-06-07T08:03:38Z</time>
      </trkpt>
      <trkpt lat="45.26271" lon="0.94012">
        <ele>257.75</ele>
        <time>2015-06-07T08:03:42Z</time>
      </trkpt>
      <trkpt lat="45.26267" lon="0.93999">
        <ele>257</ele>
        <time>2015-06-07T08:03:46Z</time>
      </trkpt>
      <trkpt lat="45.26261" lon="0.93987">
        <ele>255.75</ele>
        <time>2015-06-07T08:03:50Z</time>
      </trkpt>
      <trkpt lat="45.26253" lon="0.93974">
        <ele>255.5</ele>
        <time>2015-06-07T08:03:54Z</time>
      </trkpt>
      <trkpt lat="45.26244" lon="0.9396">
        <ele>256</ele>
        <time>2015-06-07T08:03:57Z</time>
      </trkpt>
      <trkpt lat="45.26234" lon="0.93953">
        <ele>256.5</ele>
        <time>2015-06-07T08:04:01Z</time>
      </trkpt>
      <trkpt lat="45.26225" lon="0.93945">
        <ele>257.5</ele>
        <time>2015-06-07T08:04:04Z</time>
      </trkpt>
      <trkpt lat="45.26214" lon="0.93935">
        <ele>258.25</ele>
        <time>2015-06-07T08:04:07Z</time>
      </trkpt>
      <trkpt lat="45.26206" lon="0.93925">
        <ele>258.75</ele>
        <time>2015-06-07T08:04:09Z</time>
      </trkpt>
      <trkpt lat="45.26197" lon="0.93913">
        <ele>259</ele>
        <time>2015-06-07T08:04:11Z</time>
      </trkpt>
      <trkpt lat="45.26188" lon="0.93899">
        <ele>259</ele>
        <time>2015-06-07T08:04:14Z</time>
      </trkpt>
      <trkpt lat="45.26181" lon="0.93886">
        <ele>258.75</ele>
        <time>2015-06-07T08:04:16Z</time>
      </trkpt>
      <trkpt lat="45.26175" lon="0.93875">
        <ele>258.5</ele>
        <time>2015-06-07T08:04:18Z</time>
      </trkpt>
      <trkpt lat="45.26167" lon="0.93865">
        <ele>258.25</ele>
        <time>2015-06-07T08:04:20Z</time>
      </trkpt>
      <trkpt lat="45.2616" lon="0.93856">
        <ele>257.5</ele>
        <time>2015-06-07T08:04:22Z</time>
      </trkpt>
      <trkpt lat="45.26151" lon="0.93848">
        <ele>256.5</ele>
        <time>2015-06-07T08:04:24Z</time>
      </trkpt>
      <trkpt lat="45.2614" lon="0.93842">
        <ele>255.5</ele>
        <time>2015-06-07T08:04:26Z</time>
      </trkpt>
      <trkpt lat="45.26131" lon="0.93837">
        <ele>255</ele>
        <time>2015-06-07T08:04:28Z</time>
      </trkpt>
      <trkpt lat="45.26121" lon="0.93828">
        <ele>254.25</ele>
        <time>2015-06-07T08:04:31Z</time>
      </trkpt>
      <trkpt lat="45.26113" lon="0.93813">
        <ele>253.75</ele>
        <time>2015-06-07T08:04:34Z</time>
      </trkpt>
      <trkpt lat="45.26109" lon="0.93801">
        <ele>254.5</ele>
        <time>2015-06-07T08:04:36Z</time>
      </trkpt>
      <trkpt lat="45.26105" lon="0.93789">
        <ele>255.75</ele>
        <time>2015-06-07T08:04:38Z</time>
      </trkpt>
      <trkpt lat="45.26099" lon="0.93777">
        <ele>258.25</ele>
        <time>2015-06-07T08:04:40Z</time>
      </trkpt>
      <trkpt lat="45.2609" lon="0.93761">
        <ele>262</ele>
        <time>2015-06-07T08:04:42Z</time>
      </trkpt>
      <trkpt lat="45.26082" lon="0.93744">
        <ele>264</ele>
        <time>2015-06-07T08:04:44Z</time>
      </trkpt>
      <trkpt lat="45.26075" lon="0.93731">
        <ele>264.25</ele>
        <time>2015-06-07T08:04:47Z</time>
      </trkpt>
      <trkpt lat="45.26069" lon="0.93719">
        <ele>264.75</ele>
        <time>2015-06-07T08:04:49Z</time>
      </trkpt>
      <trkpt lat="45.26063" lon="0.93709">
        <ele>265</ele>
        <time>2015-06-07T08:04:51Z</time>
      </trkpt>
      <trkpt lat="45.26054" lon="0.93698">
        <ele>264.25</ele>
        <time>2015-06-07T08:04:54Z</time>
      </trkpt>
      <trkpt lat="45.26046" lon="0.93684">
        <ele>265.75</ele>
        <time>2015-06-07T08:04:57Z</time>
      </trkpt>
      <trkpt lat="45.26039" lon="0.93676">
        <ele>268.25</ele>
        <time>2015-06-07T08:04:59Z</time>
      </trkpt>
      <trkpt lat="45.2603" lon="0.93664">
        <ele>271.25</ele>
        <time>2015-06-07T08:05:02Z</time>
      </trkpt>
      <trkpt lat="45.26023" lon="0.93654">
        <ele>274</ele>
        <time>2015-06-07T08:05:05Z</time>
      </trkpt>
      <trkpt lat="45.26015" lon="0.93645">
        <ele>275.75</ele>
        <time>2015-06-07T08:05:08Z</time>
      </trkpt>
      <trkpt lat="45.26001" lon="0.93638">
        <ele>277</ele>
        <time>2015-06-07T08:05:11Z</time>
      </trkpt>
      <trkpt lat="45.25988" lon="0.93635">
        <ele>277.25</ele>
        <time>2015-06-07T08:05:13Z</time>
      </trkpt>
      <trkpt lat="45.25974" lon="0.93632">
        <ele>277.5</ele>
        <time>2015-06-07T08:05:15Z</time>
      </trkpt>
      <trkpt lat="45.2596" lon="0.93627">
        <ele>276.5</ele>
        <time>2015-06-07T08:05:17Z</time>
      </trkpt>
      <trkpt lat="45.25944" lon="0.93621">
        <ele>274</ele>
        <time>2015-06-07T08:05:20Z</time>
      </trkpt>
      <trkpt lat="45.25928" lon="0.93613">
        <ele>271.5</ele>
        <time>2015-06-07T08:05:22Z</time>
      </trkpt>
      <trkpt lat="45.25916" lon="0.93604">
        <ele>269.5</ele>
        <time>2015-06-07T08:05:24Z</time>
      </trkpt>
      <trkpt lat="45.25905" lon="0.93593">
        <ele>267.75</ele>
        <time>2015-06-07T08:05:26Z</time>
      </trkpt>
      <trkpt lat="45.25896" lon="0.93581">
        <ele>266.25</ele>
        <time>2015-06-07T08:05:28Z</time>
      </trkpt>
      <trkpt lat="45.25887" lon="0.93568">
        <ele>264.25</ele>
        <time>2015-06-07T08:05:30Z</time>
      </trkpt>
      <trkpt lat="45.25878" lon="0.93553">
        <ele>261.75</ele>
        <time>2015-06-07T08:05:32Z</time>
      </trkpt>
      <trkpt lat="45.25869" lon="0.93536">
        <ele>260</ele>
        <time>2015-06-07T08:05:34Z</time>
      </trkpt>
      <trkpt lat="45.25858" lon="0.9352">
        <ele>258.5</ele>
        <time>2015-06-07T08:05:36Z</time>
      </trkpt>
      <trkpt lat="45.25848" lon="0.93504">
        <ele>257</ele>
        <time>2015-06-07T08:05:38Z</time>
      </trkpt>
      <trkpt lat="45.25839" lon="0.93487">
        <ele>256</ele>
        <time>2015-06-07T08:05:40Z</time>
      </trkpt>
      <trkpt lat="45.25828" lon="0.9347">
        <ele>255.75</ele>
        <time>2015-06-07T08:05:42Z</time>
      </trkpt>
      <trkpt lat="45.25815" lon="0.93451">
        <ele>255.75</ele>
        <time>2015-06-07T08:05:44Z</time>
      </trkpt>
      <trkpt lat="45.25808" lon="0.9344">
        <ele>255.5</ele>
        <time>2015-06-07T08:05:45Z</time>
      </trkpt>
      <trkpt lat="45.258" lon="0.9343">
        <ele>255.25</ele>
        <time>2015-06-07T08:05:46Z</time>
      </trkpt>
      <trkpt lat="45.25791" lon="0.9342">
        <ele>254.75</ele>
        <time>2015-06-07T08:05:47Z</time>
      </trkpt>
      <trkpt lat="45.25782" lon="0.9341">
        <ele>254.25</ele>
        <time>2015-06-07T08:05:48Z</time>
      </trkpt>
      <trkpt lat="45.25772" lon="0.93401">
        <ele>253.75</ele>
        <time>2015-06-07T08:05:49Z</time>
      </trkpt>
      <trkpt lat="45.25763" lon="0.93393">
        <ele>253</ele>
        <time>2015-06-07T08:05:50Z</time>
      </trkpt>
      <trkpt lat="45.25751" lon="0.93384">
        <ele>252</ele>
        <time>2015-06-07T08:05:51Z</time>
      </trkpt>
      <trkpt lat="45.25739" lon="0.93377">
        <ele>251</ele>
        <time>2015-06-07T08:05:52Z</time>
      </trkpt>
      <trkpt lat="45.25726" lon="0.9337">
        <ele>249.5</ele>
        <time>2015-06-07T08:05:53Z</time>
      </trkpt>
      <trkpt lat="45.25712" lon="0.93365">
        <ele>248</ele>
        <time>2015-06-07T08:05:54Z</time>
      </trkpt>
      <trkpt lat="45.25701" lon="0.93362">
        <ele>246.75</ele>
        <time>2015-06-07T08:05:55Z</time>
      </trkpt>
      <trkpt lat="45.25689" lon="0.93361">
        <ele>245.25</ele>
        <time>2015-06-07T08:05:56Z</time>
      </trkpt>
      <trkpt lat="45.2568" lon="0.93359">
        <ele>244</ele>
        <time>2015-06-07T08:05:57Z</time>
      </trkpt>
      <trkpt lat="45.25662" lon="0.93359">
        <ele>241</ele>
        <time>2015-06-07T08:06:00Z</time>
      </trkpt>
      <trkpt lat="45.25646" lon="0.93359">
        <ele>237.5</ele>
        <time>2015-06-07T08:06:02Z</time>
      </trkpt>
      <trkpt lat="45.25629" lon="0.93354">
        <ele>234.25</ele>
        <time>2015-06-07T08:06:04Z</time>
      </trkpt>
      <trkpt lat="45.25615" lon="0.93345">
        <ele>231.25</ele>
        <time>2015-06-07T08:06:06Z</time>
      </trkpt>
      <trkpt lat="45.25604" lon="0.9334">
        <ele>228.75</ele>
        <time>2015-06-07T08:06:08Z</time>
      </trkpt>
      <trkpt lat="45.25594" lon="0.9334">
        <ele>227.25</ele>
        <time>2015-06-07T08:06:10Z</time>
      </trkpt>
      <trkpt lat="45.25581" lon="0.93346">
        <ele>225.5</ele>
        <time>2015-06-07T08:06:12Z</time>
      </trkpt>
      <trkpt lat="45.25566" lon="0.93353">
        <ele>224</ele>
        <time>2015-06-07T08:06:14Z</time>
      </trkpt>
      <trkpt lat="45.25555" lon="0.9336">
        <ele>223.25</ele>
        <time>2015-06-07T08:06:16Z</time>
      </trkpt>
      <trkpt lat="45.25546" lon="0.93368">
        <ele>222.75</ele>
        <time>2015-06-07T08:06:18Z</time>
      </trkpt>
      <trkpt lat="45.25536" lon="0.93374">
        <ele>220.5</ele>
        <time>2015-06-07T08:06:23Z</time>
      </trkpt>
      <trkpt lat="45.25532" lon="0.93361">
        <ele>214</ele>
        <time>2015-06-07T08:06:34Z</time>
      </trkpt>
      <trkpt lat="45.25522" lon="0.93356">
        <ele>213</ele>
        <time>2015-06-07T08:06:40Z</time>
      </trkpt>
      <trkpt lat="45.25513" lon="0.93352">
        <ele>213</ele>
        <time>2015-06-07T08:06:43Z</time>
      </trkpt>
      <trkpt lat="45.25503" lon="0.93346">
        <ele>212.25</ele>
        <time>2015-06-07T08:06:46Z</time>
      </trkpt>
      <trkpt lat="45.25494" lon="0.9334">
        <ele>211.5</ele>
        <time>2015-06-07T08:06:48Z</time>
      </trkpt>
      <trkpt lat="45.25485" lon="0.93333">
        <ele>211</ele>
        <time>2015-06-07T08:06:50Z</time>
      </trkpt>
      <trkpt lat="45.25475" lon="0.93326">
        <ele>211</ele>
        <time>2015-06-07T08:06:52Z</time>
      </trkpt>
      <trkpt lat="45.25464" lon="0.93318">
        <ele>210.75</ele>
        <time>2015-06-07T08:06:54Z</time>
      </trkpt>
      <trkpt lat="45.25453" lon="0.93309">
        <ele>210.25</ele>
        <time>2015-06-07T08:06:56Z</time>
      </trkpt>
      <trkpt lat="45.25443" lon="0.93302">
        <ele>209.5</ele>
        <time>2015-06-07T08:06:58Z</time>
      </trkpt>
      <trkpt lat="45.25434" lon="0.93292">
        <ele>208.75</ele>
        <time>2015-06-07T08:07:02Z</time>
      </trkpt>
      <trkpt lat="45.25426" lon="0.93281">
        <ele>208</ele>
        <time>2015-06-07T08:07:05Z</time>
      </trkpt>
      <trkpt lat="45.25418" lon="0.93273">
        <ele>207.75</ele>
        <time>2015-06-07T08:07:08Z</time>
      </trkpt>
      <trkpt lat="45.25409" lon="0.93264">
        <ele>208</ele>
        <time>2015-06-07T08:07:13Z</time>
      </trkpt>
      <trkpt lat="45.25401" lon="0.93252">
        <ele>209.5</ele>
        <time>2015-06-07T08:07:17Z</time>
      </trkpt>
      <trkpt lat="45.25391" lon="0.93242">
        <ele>212</ele>
        <time>2015-06-07T08:07:20Z</time>
      </trkpt>
      <trkpt lat="45.25381" lon="0.93234">
        <ele>213.75</ele>
        <time>2015-06-07T08:07:23Z</time>
      </trkpt>
      <trkpt lat="45.25371" lon="0.93226">
        <ele>215.25</ele>
        <time>2015-06-07T08:07:26Z</time>
      </trkpt>
      <trkpt lat="45.25362" lon="0.93217">
        <ele>217.5</ele>
        <time>2015-06-07T08:07:31Z</time>
      </trkpt>
      <trkpt lat="45.25353" lon="0.93213">
        <ele>218.75</ele>
        <time>2015-06-07T08:07:35Z</time>
      </trkpt>
      <trkpt lat="45.25343" lon="0.93209">
        <ele>219</ele>
        <time>2015-06-07T08:07:39Z</time>
      </trkpt>
      <trkpt lat="45.25333" lon="0.93207">
        <ele>218.25</ele>
        <time>2015-06-07T08:07:43Z</time>
      </trkpt>
      <trkpt lat="45.25322" lon="0.93205">
        <ele>219.25</ele>
        <time>2015-06-07T08:07:48Z</time>
      </trkpt>
      <trkpt lat="45.2531" lon="0.93207">
        <ele>220.75</ele>
        <time>2015-06-07T08:07:52Z</time>
      </trkpt>
      <trkpt lat="45.25301" lon="0.93206">
        <ele>221.5</ele>
        <time>2015-06-07T08:07:55Z</time>
      </trkpt>
      <trkpt lat="45.25288" lon="0.93201">
        <ele>223.5</ele>
        <time>2015-06-07T08:08:00Z</time>
      </trkpt>
      <trkpt lat="45.25276" lon="0.93196">
        <ele>225</ele>
        <time>2015-06-07T08:08:05Z</time>
      </trkpt>
      <trkpt lat="45.25265" lon="0.93193">
        <ele>224.75</ele>
        <time>2015-06-07T08:08:08Z</time>
      </trkpt>
      <trkpt lat="45.25254" lon="0.93188">
        <ele>223.75</ele>
        <time>2015-06-07T08:08:12Z</time>
      </trkpt>
      <trkpt lat="45.25244" lon="0.93183">
        <ele>223.75</ele>
        <time>2015-06-07T08:08:15Z</time>
      </trkpt>
      <trkpt lat="45.25234" lon="0.93179">
        <ele>223.25</ele>
        <time>2015-06-07T08:08:18Z</time>
      </trkpt>
      <trkpt lat="45.25224" lon="0.93174">
        <ele>221.75</ele>
        <time>2015-06-07T08:08:22Z</time>
      </trkpt>
      <trkpt lat="45.25215" lon="0.93168">
        <ele>221</ele>
        <time>2015-06-07T08:08:26Z</time>
      </trkpt>
      <trkpt lat="45.25207" lon="0.93162">
        <ele>221</ele>
        <time>2015-06-07T08:08:31Z</time>
      </trkpt>
      <trkpt lat="45.252" lon="0.93153">
        <ele>221.5</ele>
        <time>2015-06-07T08:08:36Z</time>
      </trkpt>
      <trkpt lat="45.25193" lon="0.93143">
        <ele>222</ele>
        <time>2015-06-07T08:08:43Z</time>
      </trkpt>
      <trkpt lat="45.25186" lon="0.93132">
        <ele>222.25</ele>
        <time>2015-06-07T08:08:48Z</time>
      </trkpt>
      <trkpt lat="45.2518" lon="0.9312">
        <ele>222.5</ele>
        <time>2015-06-07T08:08:53Z</time>
      </trkpt>
      <trkpt lat="45.25172" lon="0.93113">
        <ele>224.25</ele>
        <time>2015-06-07T08:08:59Z</time>
      </trkpt>
      <trkpt lat="45.25167" lon="0.93102">
        <ele>225.75</ele>
        <time>2015-06-07T08:09:04Z</time>
      </trkpt>
      <trkpt lat="45.25162" lon="0.93089">
        <ele>226</ele>
        <time>2015-06-07T08:09:08Z</time>
      </trkpt>
      <trkpt lat="45.25158" lon="0.93077">
        <ele>226</ele>
        <time>2015-06-07T08:09:13Z</time>
      </trkpt>
      <trkpt lat="45.2515" lon="0.93069">
        <ele>225</ele>
        <time>2015-06-07T08:09:17Z</time>
      </trkpt>
      <trkpt lat="45.25141" lon="0.93063">
        <ele>226</ele>
        <time>2015-06-07T08:09:23Z</time>
      </trkpt>
      <trkpt lat="45.25131" lon="0.93058">
        <ele>226.75</ele>
        <time>2015-06-07T08:09:44Z</time>
      </trkpt>
      <trkpt lat="45.25124" lon="0.93048">
        <ele>227</ele>
        <time>2015-06-07T08:09:47Z</time>
      </trkpt>
      <trkpt lat="45.25116" lon="0.93037">
        <ele>226.5</ele>
        <time>2015-06-07T08:09:50Z</time>
      </trkpt>
      <trkpt lat="45.25107" lon="0.93026">
        <ele>225.75</ele>
        <time>2015-06-07T08:09:53Z</time>
      </trkpt>
      <trkpt lat="45.25101" lon="0.93017">
        <ele>225.25</ele>
        <time>2015-06-07T08:09:55Z</time>
      </trkpt>
      <trkpt lat="45.25094" lon="0.93006">
        <ele>224.75</ele>
        <time>2015-06-07T08:09:57Z</time>
      </trkpt>
      <trkpt lat="45.25086" lon="0.92992">
        <ele>224.75</ele>
        <time>2015-06-07T08:09:59Z</time>
      </trkpt>
      <trkpt lat="45.25077" lon="0.92977">
        <ele>225.5</ele>
        <time>2015-06-07T08:10:01Z</time>
      </trkpt>
      <trkpt lat="45.2507" lon="0.92965">
        <ele>226</ele>
        <time>2015-06-07T08:10:03Z</time>
      </trkpt>
      <trkpt lat="45.25061" lon="0.92952">
        <ele>225.5</ele>
        <time>2015-06-07T08:10:06Z</time>
      </trkpt>
      <trkpt lat="45.25051" lon="0.92942">
        <ele>225.75</ele>
        <time>2015-06-07T08:10:09Z</time>
      </trkpt>
      <trkpt lat="45.25039" lon="0.92934">
        <ele>226.25</ele>
        <time>2015-06-07T08:10:13Z</time>
      </trkpt>
      <trkpt lat="45.25032" lon="0.92925">
        <ele>227</ele>
        <time>2015-06-07T08:10:15Z</time>
      </trkpt>
      <trkpt lat="45.25024" lon="0.92917">
        <ele>228</ele>
        <time>2015-06-07T08:10:17Z</time>
      </trkpt>
      <trkpt lat="45.25015" lon="0.92909">
        <ele>228.75</ele>
        <time>2015-06-07T08:10:19Z</time>
      </trkpt>
      <trkpt lat="45.25008" lon="0.92899">
        <ele>229.25</ele>
        <time>2015-06-07T08:10:21Z</time>
      </trkpt>
      <trkpt lat="45.25003" lon="0.92888">
        <ele>229.75</ele>
        <time>2015-06-07T08:10:23Z</time>
      </trkpt>
      <trkpt lat="45.24997" lon="0.92873">
        <ele>229.75</ele>
        <time>2015-06-07T08:10:26Z</time>
      </trkpt>
      <trkpt lat="45.24991" lon="0.92862">
        <ele>228.5</ele>
        <time>2015-06-07T08:10:29Z</time>
      </trkpt>
      <trkpt lat="45.24985" lon="0.92849">
        <ele>228</ele>
        <time>2015-06-07T08:10:32Z</time>
      </trkpt>
      <trkpt lat="45.24978" lon="0.92833">
        <ele>227.25</ele>
        <time>2015-06-07T08:10:35Z</time>
      </trkpt>
      <trkpt lat="45.24971" lon="0.92819">
        <ele>226.75</ele>
        <time>2015-06-07T08:10:38Z</time>
      </trkpt>
      <trkpt lat="45.24965" lon="0.92803">
        <ele>226.25</ele>
        <time>2015-06-07T08:10:41Z</time>
      </trkpt>
      <trkpt lat="45.24962" lon="0.92791">
        <ele>225.5</ele>
        <time>2015-06-07T08:10:43Z</time>
      </trkpt>
      <trkpt lat="45.24955" lon="0.92777">
        <ele>224.5</ele>
        <time>2015-06-07T08:10:47Z</time>
      </trkpt>
      <trkpt lat="45.24945" lon="0.92766">
        <ele>223</ele>
        <time>2015-06-07T08:10:50Z</time>
      </trkpt>
      <trkpt lat="45.24937" lon="0.92758">
        <ele>222.5</ele>
        <time>2015-06-07T08:10:53Z</time>
      </trkpt>
      <trkpt lat="45.24926" lon="0.92757">
        <ele>223.5</ele>
        <time>2015-06-07T08:11:02Z</time>
      </trkpt>
      <trkpt lat="45.24917" lon="0.92763">
        <ele>224</ele>
        <time>2015-06-07T08:11:05Z</time>
      </trkpt>
      <trkpt lat="45.24905" lon="0.92766">
        <ele>223.25</ele>
        <time>2015-06-07T08:11:08Z</time>
      </trkpt>
      <trkpt lat="45.24894" lon="0.92765">
        <ele>222.5</ele>
        <time>2015-06-07T08:11:11Z</time>
      </trkpt>
      <trkpt lat="45.24884" lon="0.92764">
        <ele>222.25</ele>
        <time>2015-06-07T08:11:13Z</time>
      </trkpt>
      <trkpt lat="45.24872" lon="0.9276">
        <ele>221.75</ele>
        <time>2015-06-07T08:11:15Z</time>
      </trkpt>
      <trkpt lat="45.24858" lon="0.92754">
        <ele>221</ele>
        <time>2015-06-07T08:11:18Z</time>
      </trkpt>
      <trkpt lat="45.24843" lon="0.92746">
        <ele>220</ele>
        <time>2015-06-07T08:11:20Z</time>
      </trkpt>
      <trkpt lat="45.24827" lon="0.92736">
        <ele>219.25</ele>
        <time>2015-06-07T08:11:22Z</time>
      </trkpt>
      <trkpt lat="45.24812" lon="0.92724">
        <ele>218.5</ele>
        <time>2015-06-07T08:11:24Z</time>
      </trkpt>
      <trkpt lat="45.24796" lon="0.92713">
        <ele>217.5</ele>
        <time>2015-06-07T08:11:26Z</time>
      </trkpt>
      <trkpt lat="45.24787" lon="0.92708">
        <ele>217.25</ele>
        <time>2015-06-07T08:11:27Z</time>
      </trkpt>
      <trkpt lat="45.24772" lon="0.92698">
        <ele>216.5</ele>
        <time>2015-06-07T08:11:29Z</time>
      </trkpt>
      <trkpt lat="45.24758" lon="0.92687">
        <ele>216</ele>
        <time>2015-06-07T08:11:31Z</time>
      </trkpt>
      <trkpt lat="45.24746" lon="0.92673">
        <ele>216</ele>
        <time>2015-06-07T08:11:33Z</time>
      </trkpt>
      <trkpt lat="45.24737" lon="0.92658">
        <ele>216</ele>
        <time>2015-06-07T08:11:35Z</time>
      </trkpt>
      <trkpt lat="45.24731" lon="0.92642">
        <ele>216</ele>
        <time>2015-06-07T08:11:37Z</time>
      </trkpt>
      <trkpt lat="45.24728" lon="0.92625">
        <ele>216</ele>
        <time>2015-06-07T08:11:39Z</time>
      </trkpt>
      <trkpt lat="45.24727" lon="0.9261">
        <ele>215.25</ele>
        <time>2015-06-07T08:11:41Z</time>
      </trkpt>
      <trkpt lat="45.24726" lon="0.92593">
        <ele>213.5</ele>
        <time>2015-06-07T08:11:44Z</time>
      </trkpt>
      <trkpt lat="45.24726" lon="0.92578">
        <ele>211.5</ele>
        <time>2015-06-07T08:11:47Z</time>
      </trkpt>
      <trkpt lat="45.24728" lon="0.92565">
        <ele>210.5</ele>
        <time>2015-06-07T08:11:50Z</time>
      </trkpt>
      <trkpt lat="45.24732" lon="0.92553">
        <ele>209.5</ele>
        <time>2015-06-07T08:11:52Z</time>
      </trkpt>
      <trkpt lat="45.24738" lon="0.92537">
        <ele>208</ele>
        <time>2015-06-07T08:11:55Z</time>
      </trkpt>
      <trkpt lat="45.24742" lon="0.92519">
        <ele>206.75</ele>
        <time>2015-06-07T08:11:58Z</time>
      </trkpt>
      <trkpt lat="45.24742" lon="0.92504">
        <ele>206</ele>
        <time>2015-06-07T08:12:01Z</time>
      </trkpt>
      <trkpt lat="45.2474" lon="0.92491">
        <ele>205.25</ele>
        <time>2015-06-07T08:12:04Z</time>
      </trkpt>
      <trkpt lat="45.24738" lon="0.92473">
        <ele>204.25</ele>
        <time>2015-06-07T08:12:07Z</time>
      </trkpt>
      <trkpt lat="45.24736" lon="0.9246">
        <ele>204</ele>
        <time>2015-06-07T08:12:09Z</time>
      </trkpt>
      <trkpt lat="45.24735" lon="0.92443">
        <ele>203.5</ele>
        <time>2015-06-07T08:12:11Z</time>
      </trkpt>
      <trkpt lat="45.24736" lon="0.92424">
        <ele>203</ele>
        <time>2015-06-07T08:12:13Z</time>
      </trkpt>
      <trkpt lat="45.24742" lon="0.92406">
        <ele>203</ele>
        <time>2015-06-07T08:12:15Z</time>
      </trkpt>
      <trkpt lat="45.24747" lon="0.92396">
        <ele>202.5</ele>
        <time>2015-06-07T08:12:16Z</time>
      </trkpt>
      <trkpt lat="45.24752" lon="0.92385">
        <ele>201.75</ele>
        <time>2015-06-07T08:12:17Z</time>
      </trkpt>
      <trkpt lat="45.24758" lon="0.92375">
        <ele>200.75</ele>
        <time>2015-06-07T08:12:18Z</time>
      </trkpt>
      <trkpt lat="45.24768" lon="0.92359">
        <ele>199.25</ele>
        <time>2015-06-07T08:12:21Z</time>
      </trkpt>
      <trkpt lat="45.24775" lon="0.92344">
        <ele>199.25</ele>
        <time>2015-06-07T08:12:23Z</time>
      </trkpt>
      <trkpt lat="45.2478" lon="0.9233">
        <ele>200.25</ele>
        <time>2015-06-07T08:12:25Z</time>
      </trkpt>
      <trkpt lat="45.24785" lon="0.92315">
        <ele>201</ele>
        <time>2015-06-07T08:12:27Z</time>
      </trkpt>
      <trkpt lat="45.2479" lon="0.92302">
        <ele>201.5</ele>
        <time>2015-06-07T08:12:29Z</time>
      </trkpt>
      <trkpt lat="45.24793" lon="0.9229">
        <ele>202</ele>
        <time>2015-06-07T08:12:31Z</time>
      </trkpt>
      <trkpt lat="45.24794" lon="0.92276">
        <ele>202.25</ele>
        <time>2015-06-07T08:12:34Z</time>
      </trkpt>
      <trkpt lat="45.24786" lon="0.92268">
        <ele>205.5</ele>
        <time>2015-06-07T08:12:37Z</time>
      </trkpt>
      <trkpt lat="45.24778" lon="0.92263">
        <ele>208</ele>
        <time>2015-06-07T08:12:39Z</time>
      </trkpt>
      <trkpt lat="45.24769" lon="0.92258">
        <ele>209.25</ele>
        <time>2015-06-07T08:12:41Z</time>
      </trkpt>
      <trkpt lat="45.24759" lon="0.92254">
        <ele>209.25</ele>
        <time>2015-06-07T08:12:44Z</time>
      </trkpt>
      <trkpt lat="45.24747" lon="0.92255">
        <ele>208.25</ele>
        <time>2015-06-07T08:12:48Z</time>
      </trkpt>
      <trkpt lat="45.24736" lon="0.92254">
        <ele>208.25</ele>
        <time>2015-06-07T08:12:53Z</time>
      </trkpt>
      <trkpt lat="45.24726" lon="0.92255">
        <ele>207</ele>
        <time>2015-06-07T08:12:58Z</time>
      </trkpt>
      <trkpt lat="45.24714" lon="0.92251">
        <ele>207.75</ele>
        <time>2015-06-07T08:13:02Z</time>
      </trkpt>
      <trkpt lat="45.24706" lon="0.92247">
        <ele>208.5</ele>
        <time>2015-06-07T08:13:05Z</time>
      </trkpt>
      <trkpt lat="45.24694" lon="0.92241">
        <ele>209.75</ele>
        <time>2015-06-07T08:13:09Z</time>
      </trkpt>
      <trkpt lat="45.24685" lon="0.92238">
        <ele>210.5</ele>
        <time>2015-06-07T08:13:12Z</time>
      </trkpt>
      <trkpt lat="45.24676" lon="0.92239">
        <ele>208.5</ele>
        <time>2015-06-07T08:13:18Z</time>
      </trkpt>
      <trkpt lat="45.24671" lon="0.9225">
        <ele>207.25</ele>
        <time>2015-06-07T08:13:26Z</time>
      </trkpt>
      <trkpt lat="45.2467" lon="0.92263">
        <ele>209.5</ele>
        <time>2015-06-07T08:13:33Z</time>
      </trkpt>
      <trkpt lat="45.24664" lon="0.92273">
        <ele>210</ele>
        <time>2015-06-07T08:13:39Z</time>
      </trkpt>
      <trkpt lat="45.24658" lon="0.92282">
        <ele>210.75</ele>
        <time>2015-06-07T08:13:45Z</time>
      </trkpt>
      <trkpt lat="45.24654" lon="0.92295">
        <ele>212.5</ele>
        <time>2015-06-07T08:13:53Z</time>
      </trkpt>
      <trkpt lat="45.24646" lon="0.92305">
        <ele>212.5</ele>
        <time>2015-06-07T08:13:59Z</time>
      </trkpt>
      <trkpt lat="45.24639" lon="0.92316">
        <ele>212</ele>
        <time>2015-06-07T08:14:07Z</time>
      </trkpt>
      <trkpt lat="45.24635" lon="0.92327">
        <ele>213.25</ele>
        <time>2015-06-07T08:14:14Z</time>
      </trkpt>
      <trkpt lat="45.2463" lon="0.92339">
        <ele>215.75</ele>
        <time>2015-06-07T08:14:21Z</time>
      </trkpt>
      <trkpt lat="45.24624" lon="0.92349">
        <ele>217.25</ele>
        <time>2015-06-07T08:14:27Z</time>
      </trkpt>
      <trkpt lat="45.24615" lon="0.92357">
        <ele>218</ele>
        <time>2015-06-07T08:14:33Z</time>
      </trkpt>
      <trkpt lat="45.24606" lon="0.92353">
        <ele>219</ele>
        <time>2015-06-07T08:14:45Z</time>
      </trkpt>
      <trkpt lat="45.24599" lon="0.92343">
        <ele>220</ele>
        <time>2015-06-07T08:14:51Z</time>
      </trkpt>
      <trkpt lat="45.24589" lon="0.92342">
        <ele>219.5</ele>
        <time>2015-06-07T08:14:57Z</time>
      </trkpt>
      <trkpt lat="45.2458" lon="0.92337">
        <ele>220</ele>
        <time>2015-06-07T08:15:03Z</time>
      </trkpt>
      <trkpt lat="45.24571" lon="0.92337">
        <ele>220</ele>
        <time>2015-06-07T08:15:08Z</time>
      </trkpt>
      <trkpt lat="45.24562" lon="0.92337">
        <ele>220.5</ele>
        <time>2015-06-07T08:15:13Z</time>
      </trkpt>
      <trkpt lat="45.24552" lon="0.92333">
        <ele>221</ele>
        <time>2015-06-07T08:15:20Z</time>
      </trkpt>
      <trkpt lat="45.24542" lon="0.92332">
        <ele>223.25</ele>
        <time>2015-06-07T08:15:31Z</time>
      </trkpt>
      <trkpt lat="45.24539" lon="0.9232">
        <ele>227.5</ele>
        <time>2015-06-07T08:16:16Z</time>
      </trkpt>
      <trkpt lat="45.24534" lon="0.92309">
        <ele>229</ele>
        <time>2015-06-07T08:16:29Z</time>
      </trkpt>
      <trkpt lat="45.24528" lon="0.92297">
        <ele>229.5</ele>
        <time>2015-06-07T08:16:36Z</time>
      </trkpt>
      <trkpt lat="45.24523" lon="0.92285">
        <ele>230</ele>
        <time>2015-06-07T08:16:40Z</time>
      </trkpt>
      <trkpt lat="45.24521" lon="0.92272">
        <ele>229.25</ele>
        <time>2015-06-07T08:16:43Z</time>
      </trkpt>
      <trkpt lat="45.24517" lon="0.92258">
        <ele>229.25</ele>
        <time>2015-06-07T08:16:46Z</time>
      </trkpt>
      <trkpt lat="45.24512" lon="0.92244">
        <ele>230</ele>
        <time>2015-06-07T08:16:49Z</time>
      </trkpt>
      <trkpt lat="45.24504" lon="0.92229">
        <ele>228.75</ele>
        <time>2015-06-07T08:16:53Z</time>
      </trkpt>
      <trkpt lat="45.24498" lon="0.92217">
        <ele>227.5</ele>
        <time>2015-06-07T08:16:55Z</time>
      </trkpt>
      <trkpt lat="45.24492" lon="0.92201">
        <ele>227</ele>
        <time>2015-06-07T08:16:57Z</time>
      </trkpt>
      <trkpt lat="45.24484" lon="0.92183">
        <ele>226.75</ele>
        <time>2015-06-07T08:16:59Z</time>
      </trkpt>
      <trkpt lat="45.24476" lon="0.92165">
        <ele>226</ele>
        <time>2015-06-07T08:17:01Z</time>
      </trkpt>
      <trkpt lat="45.24468" lon="0.92147">
        <ele>225.25</ele>
        <time>2015-06-07T08:17:03Z</time>
      </trkpt>
      <trkpt lat="45.24461" lon="0.9213">
        <ele>224.75</ele>
        <time>2015-06-07T08:17:05Z</time>
      </trkpt>
      <trkpt lat="45.24454" lon="0.92112">
        <ele>224</ele>
        <time>2015-06-07T08:17:07Z</time>
      </trkpt>
      <trkpt lat="45.24447" lon="0.92096">
        <ele>223</ele>
        <time>2015-06-07T08:17:09Z</time>
      </trkpt>
      <trkpt lat="45.2444" lon="0.92086">
        <ele>222.25</ele>
        <time>2015-06-07T08:17:11Z</time>
      </trkpt>
      <trkpt lat="45.24434" lon="0.92075">
        <ele>221.5</ele>
        <time>2015-06-07T08:17:15Z</time>
      </trkpt>
      <trkpt lat="45.2444" lon="0.92065">
        <ele>215.5</ele>
        <time>2015-06-07T08:17:22Z</time>
      </trkpt>
      <trkpt lat="45.24433" lon="0.92073">
        <ele>212</ele>
        <time>2015-06-07T08:17:38Z</time>
      </trkpt>
      <trkpt lat="45.24422" lon="0.92079">
        <ele>211.75</ele>
        <time>2015-06-07T08:17:43Z</time>
      </trkpt>
      <trkpt lat="45.24412" lon="0.9208">
        <ele>210.25</ele>
        <time>2015-06-07T08:17:47Z</time>
      </trkpt>
      <trkpt lat="45.24403" lon="0.92078">
        <ele>210</ele>
        <time>2015-06-07T08:17:51Z</time>
      </trkpt>
      <trkpt lat="45.24394" lon="0.92079">
        <ele>210</ele>
        <time>2015-06-07T08:17:54Z</time>
      </trkpt>
      <trkpt lat="45.24384" lon="0.92078">
        <ele>209.75</ele>
        <time>2015-06-07T08:17:57Z</time>
      </trkpt>
      <trkpt lat="45.24373" lon="0.92075">
        <ele>210.25</ele>
        <time>2015-06-07T08:18:02Z</time>
      </trkpt>
      <trkpt lat="45.24364" lon="0.92072">
        <ele>210.75</ele>
        <time>2015-06-07T08:18:05Z</time>
      </trkpt>
      <trkpt lat="45.24352" lon="0.9207">
        <ele>209.25</ele>
        <time>2015-06-07T08:18:08Z</time>
      </trkpt>
      <trkpt lat="45.24343" lon="0.92065">
        <ele>208.25</ele>
        <time>2015-06-07T08:18:11Z</time>
      </trkpt>
      <trkpt lat="45.24338" lon="0.92053">
        <ele>209.5</ele>
        <time>2015-06-07T08:18:16Z</time>
      </trkpt>
      <trkpt lat="45.24334" lon="0.92041">
        <ele>211.5</ele>
        <time>2015-06-07T08:18:20Z</time>
      </trkpt>
      <trkpt lat="45.24332" lon="0.92028">
        <ele>213.25</ele>
        <time>2015-06-07T08:18:24Z</time>
      </trkpt>
      <trkpt lat="45.24332" lon="0.92014">
        <ele>214</ele>
        <time>2015-06-07T08:18:29Z</time>
      </trkpt>
      <trkpt lat="45.2433" lon="0.92">
        <ele>215.5</ele>
        <time>2015-06-07T08:18:36Z</time>
      </trkpt>
      <trkpt lat="45.24323" lon="0.91991">
        <ele>216.5</ele>
        <time>2015-06-07T08:18:44Z</time>
      </trkpt>
      <trkpt lat="45.24316" lon="0.91983">
        <ele>220</ele>
        <time>2015-06-07T08:18:58Z</time>
      </trkpt>
      <trkpt lat="45.24307" lon="0.91982">
        <ele>221</ele>
        <time>2015-06-07T08:19:05Z</time>
      </trkpt>
      <trkpt lat="45.24298" lon="0.91981">
        <ele>223.5</ele>
        <time>2015-06-07T08:19:12Z</time>
      </trkpt>
      <trkpt lat="45.24288" lon="0.91986">
        <ele>225.25</ele>
        <time>2015-06-07T08:19:21Z</time>
      </trkpt>
      <trkpt lat="45.2428" lon="0.91989">
        <ele>226</ele>
        <time>2015-06-07T08:19:27Z</time>
      </trkpt>
      <trkpt lat="45.24269" lon="0.9199">
        <ele>227</ele>
        <time>2015-06-07T08:19:34Z</time>
      </trkpt>
      <trkpt lat="45.24259" lon="0.9199">
        <ele>227.5</ele>
        <time>2015-06-07T08:19:39Z</time>
      </trkpt>
      <trkpt lat="45.24248" lon="0.91991">
        <ele>228.5</ele>
        <time>2015-06-07T08:19:43Z</time>
      </trkpt>
      <trkpt lat="45.24239" lon="0.91991">
        <ele>229.75</ele>
        <time>2015-06-07T08:19:47Z</time>
      </trkpt>
      <trkpt lat="45.24227" lon="0.91988">
        <ele>231</ele>
        <time>2015-06-07T08:19:52Z</time>
      </trkpt>
      <trkpt lat="45.24217" lon="0.91987">
        <ele>231.75</ele>
        <time>2015-06-07T08:19:57Z</time>
      </trkpt>
      <trkpt lat="45.24207" lon="0.91986">
        <ele>231.75</ele>
        <time>2015-06-07T08:20:02Z</time>
      </trkpt>
      <trkpt lat="45.24198" lon="0.91981">
        <ele>234.25</ele>
        <time>2015-06-07T08:20:09Z</time>
      </trkpt>
      <trkpt lat="45.24189" lon="0.91977">
        <ele>235</ele>
        <time>2015-06-07T08:20:14Z</time>
      </trkpt>
      <trkpt lat="45.24179" lon="0.91973">
        <ele>235.75</ele>
        <time>2015-06-07T08:20:19Z</time>
      </trkpt>
      <trkpt lat="45.24167" lon="0.91968">
        <ele>237.5</ele>
        <time>2015-06-07T08:20:24Z</time>
      </trkpt>
      <trkpt lat="45.24158" lon="0.91969">
        <ele>237.5</ele>
        <time>2015-06-07T08:20:29Z</time>
      </trkpt>
      <trkpt lat="45.24148" lon="0.91971">
        <ele>237</ele>
        <time>2015-06-07T08:20:34Z</time>
      </trkpt>
      <trkpt lat="45.24139" lon="0.91975">
        <ele>237</ele>
        <time>2015-06-07T08:20:42Z</time>
      </trkpt>
      <trkpt lat="45.24129" lon="0.91968">
        <ele>234.25</ele>
        <time>2015-06-07T08:20:50Z</time>
      </trkpt>
      <trkpt lat="45.2412" lon="0.91969">
        <ele>237</ele>
        <time>2015-06-07T08:21:37Z</time>
      </trkpt>
      <trkpt lat="45.24111" lon="0.91973">
        <ele>236</ele>
        <time>2015-06-07T08:22:09Z</time>
      </trkpt>
      <trkpt lat="45.24102" lon="0.91968">
        <ele>242</ele>
        <time>2015-06-07T08:23:00Z</time>
      </trkpt>
      <trkpt lat="45.24094" lon="0.91959">
        <ele>242.75</ele>
        <time>2015-06-07T08:23:07Z</time>
      </trkpt>
      <trkpt lat="45.24087" lon="0.9195">
        <ele>242</ele>
        <time>2015-06-07T08:23:15Z</time>
      </trkpt>
      <trkpt lat="45.24081" lon="0.9194">
        <ele>241.25</ele>
        <time>2015-06-07T08:23:24Z</time>
      </trkpt>
      <trkpt lat="45.24073" lon="0.91933">
        <ele>240.25</ele>
        <time>2015-06-07T08:23:32Z</time>
      </trkpt>
      <trkpt lat="45.24065" lon="0.91924">
        <ele>240</ele>
        <time>2015-06-07T08:23:56Z</time>
      </trkpt>
      <trkpt lat="45.24062" lon="0.91911">
        <ele>239</ele>
        <time>2015-06-07T08:24:12Z</time>
      </trkpt>
      <trkpt lat="45.24065" lon="0.91898">
        <ele>241</ele>
        <time>2015-06-07T08:24:32Z</time>
      </trkpt>
      <trkpt lat="45.24073" lon="0.91906">
        <ele>242</ele>
        <time>2015-06-07T08:28:04Z</time>
      </trkpt>
      <trkpt lat="45.24081" lon="0.91902">
        <ele>242</ele>
        <time>2015-06-07T08:28:10Z</time>
      </trkpt>
      <trkpt lat="45.2409" lon="0.91896">
        <ele>243.75</ele>
        <time>2015-06-07T08:28:21Z</time>
      </trkpt>
      <trkpt lat="45.24099" lon="0.9189">
        <ele>244</ele>
        <time>2015-06-07T08:28:27Z</time>
      </trkpt>
      <trkpt lat="45.24109" lon="0.91884">
        <ele>244</ele>
        <time>2015-06-07T08:28:34Z</time>
      </trkpt>
      <trkpt lat="45.24118" lon="0.91879">
        <ele>244.75</ele>
        <time>2015-06-07T08:28:39Z</time>
      </trkpt>
      <trkpt lat="45.24127" lon="0.91872">
        <ele>246</ele>
        <time>2015-06-07T08:28:45Z</time>
      </trkpt>
      <trkpt lat="45.24136" lon="0.91866">
        <ele>247</ele>
        <time>2015-06-07T08:28:51Z</time>
      </trkpt>
      <trkpt lat="45.24145" lon="0.9186">
        <ele>247.25</ele>
        <time>2015-06-07T08:28:58Z</time>
      </trkpt>
      <trkpt lat="45.24154" lon="0.91861">
        <ele>245</ele>
        <time>2015-06-07T08:29:58Z</time>
      </trkpt>
      <trkpt lat="45.24164" lon="0.9187">
        <ele>244.5</ele>
        <time>2015-06-07T08:30:03Z</time>
      </trkpt>
      <trkpt lat="45.24172" lon="0.91876">
        <ele>244</ele>
        <time>2015-06-07T08:30:06Z</time>
      </trkpt>
      <trkpt lat="45.24181" lon="0.91882">
        <ele>243.75</ele>
        <time>2015-06-07T08:30:09Z</time>
      </trkpt>
      <trkpt lat="45.24192" lon="0.91887">
        <ele>243</ele>
        <time>2015-06-07T08:30:12Z</time>
      </trkpt>
      <trkpt lat="45.24201" lon="0.91891">
        <ele>243</ele>
        <time>2015-06-07T08:30:14Z</time>
      </trkpt>
      <trkpt lat="45.24212" lon="0.91894">
        <ele>243</ele>
        <time>2015-06-07T08:30:16Z</time>
      </trkpt>
      <trkpt lat="45.24225" lon="0.91897">
        <ele>242.5</ele>
        <time>2015-06-07T08:30:18Z</time>
      </trkpt>
      <trkpt lat="45.24239" lon="0.91901">
        <ele>242</ele>
        <time>2015-06-07T08:30:21Z</time>
      </trkpt>
      <trkpt lat="45.2425" lon="0.91904">
        <ele>241.75</ele>
        <time>2015-06-07T08:30:23Z</time>
      </trkpt>
      <trkpt lat="45.24258" lon="0.91911">
        <ele>241</ele>
        <time>2015-06-07T08:30:25Z</time>
      </trkpt>
      <trkpt lat="45.24265" lon="0.91923">
        <ele>240</ele>
        <time>2015-06-07T08:30:27Z</time>
      </trkpt>
      <trkpt lat="45.24271" lon="0.91936">
        <ele>238.75</ele>
        <time>2015-06-07T08:30:29Z</time>
      </trkpt>
      <trkpt lat="45.24276" lon="0.91949">
        <ele>237.25</ele>
        <time>2015-06-07T08:30:31Z</time>
      </trkpt>
      <trkpt lat="45.24285" lon="0.91959">
        <ele>236</ele>
        <time>2015-06-07T08:30:34Z</time>
      </trkpt>
      <trkpt lat="45.24296" lon="0.91958">
        <ele>235.5</ele>
        <time>2015-06-07T08:30:37Z</time>
      </trkpt>
      <trkpt lat="45.24308" lon="0.91954">
        <ele>234.25</ele>
        <time>2015-06-07T08:30:40Z</time>
      </trkpt>
      <trkpt lat="45.24318" lon="0.91958">
        <ele>232.25</ele>
        <time>2015-06-07T08:30:43Z</time>
      </trkpt>
      <trkpt lat="45.24327" lon="0.91971">
        <ele>230.25</ele>
        <time>2015-06-07T08:30:46Z</time>
      </trkpt>
      <trkpt lat="45.24331" lon="0.91983">
        <ele>229</ele>
        <time>2015-06-07T08:30:48Z</time>
      </trkpt>
      <trkpt lat="45.24334" lon="0.91998">
        <ele>227.5</ele>
        <time>2015-06-07T08:30:52Z</time>
      </trkpt>
      <trkpt lat="45.24337" lon="0.9201">
        <ele>226.5</ele>
        <time>2015-06-07T08:30:54Z</time>
      </trkpt>
      <trkpt lat="45.24339" lon="0.92026">
        <ele>225.75</ele>
        <time>2015-06-07T08:30:56Z</time>
      </trkpt>
      <trkpt lat="45.24339" lon="0.9204">
        <ele>225.5</ele>
        <time>2015-06-07T08:30:58Z</time>
      </trkpt>
      <trkpt lat="45.24344" lon="0.92051">
        <ele>226</ele>
        <time>2015-06-07T08:31:02Z</time>
      </trkpt>
      <trkpt lat="45.24357" lon="0.92054">
        <ele>225.75</ele>
        <time>2015-06-07T08:31:05Z</time>
      </trkpt>
      <trkpt lat="45.24367" lon="0.92056">
        <ele>225</ele>
        <time>2015-06-07T08:31:07Z</time>
      </trkpt>
      <trkpt lat="45.24376" lon="0.9206">
        <ele>224</ele>
        <time>2015-06-07T08:31:09Z</time>
      </trkpt>
      <trkpt lat="45.24386" lon="0.92064">
        <ele>223</ele>
        <time>2015-06-07T08:31:11Z</time>
      </trkpt>
      <trkpt lat="45.24398" lon="0.92067">
        <ele>222</ele>
        <time>2015-06-07T08:31:14Z</time>
      </trkpt>
      <trkpt lat="45.2441" lon="0.92065">
        <ele>221.25</ele>
        <time>2015-06-07T08:31:17Z</time>
      </trkpt>
      <trkpt lat="45.24422" lon="0.92061">
        <ele>220.5</ele>
        <time>2015-06-07T08:31:20Z</time>
      </trkpt>
      <trkpt lat="45.24433" lon="0.92058">
        <ele>219.5</ele>
        <time>2015-06-07T08:31:23Z</time>
      </trkpt>
      <trkpt lat="45.24434" lon="0.92043">
        <ele>215.25</ele>
        <time>2015-06-07T08:31:31Z</time>
      </trkpt>
      <trkpt lat="45.24438" lon="0.92029">
        <ele>214.25</ele>
        <time>2015-06-07T08:31:34Z</time>
      </trkpt>
      <trkpt lat="45.24443" lon="0.92014">
        <ele>214</ele>
        <time>2015-06-07T08:31:37Z</time>
      </trkpt>
      <trkpt lat="45.24449" lon="0.92001">
        <ele>213.25</ele>
        <time>2015-06-07T08:31:40Z</time>
      </trkpt>
      <trkpt lat="45.24456" lon="0.9199">
        <ele>213</ele>
        <time>2015-06-07T08:31:43Z</time>
      </trkpt>
      <trkpt lat="45.24455" lon="0.91976">
        <ele>213</ele>
        <time>2015-06-07T08:31:48Z</time>
      </trkpt>
      <trkpt lat="45.24449" lon="0.91965">
        <ele>213</ele>
        <time>2015-06-07T08:31:53Z</time>
      </trkpt>
      <trkpt lat="45.24441" lon="0.91954">
        <ele>213</ele>
        <time>2015-06-07T08:31:59Z</time>
      </trkpt>
      <trkpt lat="45.24437" lon="0.91942">
        <ele>213</ele>
        <time>2015-06-07T08:32:04Z</time>
      </trkpt>
      <trkpt lat="45.24435" lon="0.91929">
        <ele>213</ele>
        <time>2015-06-07T08:32:09Z</time>
      </trkpt>
      <trkpt lat="45.24434" lon="0.91915">
        <ele>213.75</ele>
        <time>2015-06-07T08:32:16Z</time>
      </trkpt>
      <trkpt lat="45.24431" lon="0.91902">
        <ele>216.25</ele>
        <time>2015-06-07T08:32:24Z</time>
      </trkpt>
      <trkpt lat="45.24427" lon="0.91889">
        <ele>218.25</ele>
        <time>2015-06-07T08:32:33Z</time>
      </trkpt>
      <trkpt lat="45.24425" lon="0.91876">
        <ele>219</ele>
        <time>2015-06-07T08:32:40Z</time>
      </trkpt>
      <trkpt lat="45.24423" lon="0.91863">
        <ele>219.75</ele>
        <time>2015-06-07T08:32:46Z</time>
      </trkpt>
      <trkpt lat="45.24419" lon="0.91851">
        <ele>220</ele>
        <time>2015-06-07T08:32:54Z</time>
      </trkpt>
      <trkpt lat="45.24417" lon="0.91837">
        <ele>221</ele>
        <time>2015-06-07T08:33:04Z</time>
      </trkpt>
      <trkpt lat="45.24416" lon="0.91824">
        <ele>222.5</ele>
        <time>2015-06-07T08:33:12Z</time>
      </trkpt>
      <trkpt lat="45.24418" lon="0.9181">
        <ele>224</ele>
        <time>2015-06-07T08:33:20Z</time>
      </trkpt>
      <trkpt lat="45.24421" lon="0.91797">
        <ele>226.75</ele>
        <time>2015-06-07T08:33:27Z</time>
      </trkpt>
      <trkpt lat="45.24424" lon="0.91785">
        <ele>227.5</ele>
        <time>2015-06-07T08:33:33Z</time>
      </trkpt>
      <trkpt lat="45.24426" lon="0.9177">
        <ele>229.75</ele>
        <time>2015-06-07T08:33:40Z</time>
      </trkpt>
      <trkpt lat="45.24427" lon="0.91756">
        <ele>232.5</ele>
        <time>2015-06-07T08:33:49Z</time>
      </trkpt>
      <trkpt lat="45.24426" lon="0.91743">
        <ele>236.25</ele>
        <time>2015-06-07T08:33:59Z</time>
      </trkpt>
      <trkpt lat="45.24428" lon="0.9173">
        <ele>237.75</ele>
        <time>2015-06-07T08:34:07Z</time>
      </trkpt>
      <trkpt lat="45.2443" lon="0.91717">
        <ele>240.75</ele>
        <time>2015-06-07T08:34:16Z</time>
      </trkpt>
      <trkpt lat="45.24432" lon="0.91703">
        <ele>240</ele>
        <time>2015-06-07T08:34:24Z</time>
      </trkpt>
      <trkpt lat="45.24435" lon="0.91689">
        <ele>241</ele>
        <time>2015-06-07T08:34:31Z</time>
      </trkpt>
      <trkpt lat="45.24431" lon="0.91677">
        <ele>242</ele>
        <time>2015-06-07T08:34:39Z</time>
      </trkpt>
      <trkpt lat="45.2443" lon="0.91664">
        <ele>242</ele>
        <time>2015-06-07T08:34:46Z</time>
      </trkpt>
      <trkpt lat="45.2443" lon="0.9165">
        <ele>243</ele>
        <time>2015-06-07T08:34:53Z</time>
      </trkpt>
      <trkpt lat="45.24426" lon="0.91637">
        <ele>245.25</ele>
        <time>2015-06-07T08:35:02Z</time>
      </trkpt>
      <trkpt lat="45.24423" lon="0.91624">
        <ele>247.25</ele>
        <time>2015-06-07T08:35:09Z</time>
      </trkpt>
      <trkpt lat="45.2442" lon="0.91611">
        <ele>249</ele>
        <time>2015-06-07T08:35:16Z</time>
      </trkpt>
      <trkpt lat="45.24415" lon="0.91599">
        <ele>250</ele>
        <time>2015-06-07T08:35:22Z</time>
      </trkpt>
      <trkpt lat="45.2441" lon="0.91586">
        <ele>251</ele>
        <time>2015-06-07T08:35:28Z</time>
      </trkpt>
      <trkpt lat="45.24407" lon="0.91573">
        <ele>251</ele>
        <time>2015-06-07T08:35:33Z</time>
      </trkpt>
      <trkpt lat="45.24402" lon="0.9156">
        <ele>251</ele>
        <time>2015-06-07T08:35:39Z</time>
      </trkpt>
      <trkpt lat="45.24397" lon="0.91548">
        <ele>251</ele>
        <time>2015-06-07T08:35:44Z</time>
      </trkpt>
      <trkpt lat="45.24393" lon="0.91536">
        <ele>251.25</ele>
        <time>2015-06-07T08:35:49Z</time>
      </trkpt>
      <trkpt lat="45.24387" lon="0.91522">
        <ele>252</ele>
        <time>2015-06-07T08:35:54Z</time>
      </trkpt>
      <trkpt lat="45.24383" lon="0.9151">
        <ele>251.5</ele>
        <time>2015-06-07T08:35:57Z</time>
      </trkpt>
      <trkpt lat="45.24382" lon="0.91491">
        <ele>251</ele>
        <time>2015-06-07T08:36:01Z</time>
      </trkpt>
      <trkpt lat="45.24382" lon="0.91472">
        <ele>250.75</ele>
        <time>2015-06-07T08:36:03Z</time>
      </trkpt>
      <trkpt lat="45.24381" lon="0.91451">
        <ele>250.25</ele>
        <time>2015-06-07T08:36:05Z</time>
      </trkpt>
      <trkpt lat="45.2438" lon="0.91432">
        <ele>249.5</ele>
        <time>2015-06-07T08:36:07Z</time>
      </trkpt>
      <trkpt lat="45.24381" lon="0.91413">
        <ele>249</ele>
        <time>2015-06-07T08:36:09Z</time>
      </trkpt>
      <trkpt lat="45.2438" lon="0.91393">
        <ele>248.5</ele>
        <time>2015-06-07T08:36:11Z</time>
      </trkpt>
      <trkpt lat="45.24379" lon="0.91374">
        <ele>247.75</ele>
        <time>2015-06-07T08:36:13Z</time>
      </trkpt>
      <trkpt lat="45.24379" lon="0.91355">
        <ele>247.25</ele>
        <time>2015-06-07T08:36:15Z</time>
      </trkpt>
      <trkpt lat="45.24378" lon="0.91337">
        <ele>247</ele>
        <time>2015-06-07T08:36:17Z</time>
      </trkpt>
      <trkpt lat="45.24378" lon="0.91321">
        <ele>247</ele>
        <time>2015-06-07T08:36:19Z</time>
      </trkpt>
      <trkpt lat="45.24377" lon="0.91308">
        <ele>246.5</ele>
        <time>2015-06-07T08:36:21Z</time>
      </trkpt>
      <trkpt lat="45.24375" lon="0.91295">
        <ele>246.75</ele>
        <time>2015-06-07T08:36:28Z</time>
      </trkpt>
      <trkpt lat="45.24375" lon="0.91282">
        <ele>244</ele>
        <time>2015-06-07T08:37:10Z</time>
      </trkpt>
      <trkpt lat="45.24366" lon="0.9128">
        <ele>242</ele>
        <time>2015-06-07T08:37:22Z</time>
      </trkpt>
      <trkpt lat="45.24371" lon="0.91269">
        <ele>240.25</ele>
        <time>2015-06-07T08:37:45Z</time>
      </trkpt>
      <trkpt lat="45.24368" lon="0.91255">
        <ele>241</ele>
        <time>2015-06-07T08:37:49Z</time>
      </trkpt>
      <trkpt lat="45.24364" lon="0.9124">
        <ele>241.75</ele>
        <time>2015-06-07T08:37:53Z</time>
      </trkpt>
      <trkpt lat="45.24363" lon="0.91226">
        <ele>242</ele>
        <time>2015-06-07T08:37:56Z</time>
      </trkpt>
      <trkpt lat="45.2436" lon="0.91211">
        <ele>242</ele>
        <time>2015-06-07T08:37:59Z</time>
      </trkpt>
      <trkpt lat="45.24354" lon="0.91196">
        <ele>242</ele>
        <time>2015-06-07T08:38:02Z</time>
      </trkpt>
      <trkpt lat="45.24348" lon="0.91181">
        <ele>241.5</ele>
        <time>2015-06-07T08:38:05Z</time>
      </trkpt>
      <trkpt lat="45.24348" lon="0.91167">
        <ele>240.25</ele>
        <time>2015-06-07T08:38:09Z</time>
      </trkpt>
      <trkpt lat="45.24347" lon="0.91154">
        <ele>239</ele>
        <time>2015-06-07T08:38:18Z</time>
      </trkpt>
      <trkpt lat="45.24344" lon="0.91141">
        <ele>238.5</ele>
        <time>2015-06-07T08:38:24Z</time>
      </trkpt>
      <trkpt lat="45.24341" lon="0.91126">
        <ele>238</ele>
        <time>2015-06-07T08:38:29Z</time>
      </trkpt>
      <trkpt lat="45.24337" lon="0.91112">
        <ele>238</ele>
        <time>2015-06-07T08:38:34Z</time>
      </trkpt>
      <trkpt lat="45.24333" lon="0.911">
        <ele>238</ele>
        <time>2015-06-07T08:38:38Z</time>
      </trkpt>
      <trkpt lat="45.24335" lon="0.91087">
        <ele>235.5</ele>
        <time>2015-06-07T08:38:48Z</time>
      </trkpt>
      <trkpt lat="45.24333" lon="0.91074">
        <ele>235.25</ele>
        <time>2015-06-07T08:38:56Z</time>
      </trkpt>
      <trkpt lat="45.24331" lon="0.91058">
        <ele>236</ele>
        <time>2015-06-07T08:39:03Z</time>
      </trkpt>
      <trkpt lat="45.24328" lon="0.91045">
        <ele>235.75</ele>
        <time>2015-06-07T08:39:07Z</time>
      </trkpt>
      <trkpt lat="45.24325" lon="0.91032">
        <ele>236.25</ele>
        <time>2015-06-07T08:39:14Z</time>
      </trkpt>
      <trkpt lat="45.2432" lon="0.9102">
        <ele>238</ele>
        <time>2015-06-07T08:39:19Z</time>
      </trkpt>
      <trkpt lat="45.24316" lon="0.91007">
        <ele>239</ele>
        <time>2015-06-07T08:39:25Z</time>
      </trkpt>
      <trkpt lat="45.24314" lon="0.90994">
        <ele>239.5</ele>
        <time>2015-06-07T08:39:35Z</time>
      </trkpt>
      <trkpt lat="45.2431" lon="0.90981">
        <ele>240</ele>
        <time>2015-06-07T08:39:40Z</time>
      </trkpt>
      <trkpt lat="45.24307" lon="0.90967">
        <ele>240</ele>
        <time>2015-06-07T08:39:46Z</time>
      </trkpt>
      <trkpt lat="45.24304" lon="0.90954">
        <ele>240</ele>
        <time>2015-06-07T08:39:50Z</time>
      </trkpt>
      <trkpt lat="45.24301" lon="0.90941">
        <ele>239</ele>
        <time>2015-06-07T08:39:55Z</time>
      </trkpt>
      <trkpt lat="45.24299" lon="0.90928">
        <ele>238.75</ele>
        <time>2015-06-07T08:40:01Z</time>
      </trkpt>
      <trkpt lat="45.24298" lon="0.90915">
        <ele>238.75</ele>
        <time>2015-06-07T08:40:06Z</time>
      </trkpt>
      <trkpt lat="45.24296" lon="0.90902">
        <ele>238</ele>
        <time>2015-06-07T08:40:11Z</time>
      </trkpt>
      <trkpt lat="45.24296" lon="0.90888">
        <ele>237.75</ele>
        <time>2015-06-07T08:40:16Z</time>
      </trkpt>
      <trkpt lat="45.24294" lon="0.90873">
        <ele>236.75</ele>
        <time>2015-06-07T08:40:22Z</time>
      </trkpt>
      <trkpt lat="45.24294" lon="0.90857">
        <ele>237</ele>
        <time>2015-06-07T08:40:27Z</time>
      </trkpt>
      <trkpt lat="45.24296" lon="0.90845">
        <ele>236.5</ele>
        <time>2015-06-07T08:40:31Z</time>
      </trkpt>
      <trkpt lat="45.24297" lon="0.90831">
        <ele>236</ele>
        <time>2015-06-07T08:40:35Z</time>
      </trkpt>
      <trkpt lat="45.24298" lon="0.90817">
        <ele>235.5</ele>
        <time>2015-06-07T08:40:41Z</time>
      </trkpt>
      <trkpt lat="45.243" lon="0.90804">
        <ele>234.25</ele>
        <time>2015-06-07T08:40:47Z</time>
      </trkpt>
      <trkpt lat="45.24304" lon="0.90792">
        <ele>232.25</ele>
        <time>2015-06-07T08:40:51Z</time>
      </trkpt>
      <trkpt lat="45.24308" lon="0.90779">
        <ele>227.75</ele>
        <time>2015-06-07T08:40:59Z</time>
      </trkpt>
      <trkpt lat="45.24313" lon="0.90767">
        <ele>223.5</ele>
        <time>2015-06-07T08:41:10Z</time>
      </trkpt>
      <trkpt lat="45.24315" lon="0.90754">
        <ele>222.25</ele>
        <time>2015-06-07T08:41:20Z</time>
      </trkpt>
      <trkpt lat="45.24319" lon="0.90742">
        <ele>218.25</ele>
        <time>2015-06-07T08:41:31Z</time>
      </trkpt>
      <trkpt lat="45.24321" lon="0.9073">
        <ele>217.5</ele>
        <time>2015-06-07T08:41:42Z</time>
      </trkpt>
      <trkpt lat="45.24324" lon="0.90715">
        <ele>216</ele>
        <time>2015-06-07T08:42:06Z</time>
      </trkpt>
      <trkpt lat="45.24326" lon="0.90702">
        <ele>214.5</ele>
        <time>2015-06-07T08:42:12Z</time>
      </trkpt>
      <trkpt lat="45.24328" lon="0.90689">
        <ele>212.25</ele>
        <time>2015-06-07T08:42:25Z</time>
      </trkpt>
      <trkpt lat="45.2433" lon="0.90676">
        <ele>211</ele>
        <time>2015-06-07T08:42:37Z</time>
      </trkpt>
      <trkpt lat="45.24333" lon="0.90663">
        <ele>208</ele>
        <time>2015-06-07T08:42:49Z</time>
      </trkpt>
      <trkpt lat="45.24339" lon="0.9065">
        <ele>207.25</ele>
        <time>2015-06-07T08:42:58Z</time>
      </trkpt>
      <trkpt lat="45.24342" lon="0.90637">
        <ele>207</ele>
        <time>2015-06-07T08:43:00Z</time>
      </trkpt>
      <trkpt lat="45.24346" lon="0.90625">
        <ele>206.5</ele>
        <time>2015-06-07T08:43:03Z</time>
      </trkpt>
      <trkpt lat="45.24348" lon="0.90609">
        <ele>205.5</ele>
        <time>2015-06-07T08:43:06Z</time>
      </trkpt>
      <trkpt lat="45.24349" lon="0.90593">
        <ele>204.75</ele>
        <time>2015-06-07T08:43:09Z</time>
      </trkpt>
      <trkpt lat="45.24351" lon="0.90579">
        <ele>203.25</ele>
        <time>2015-06-07T08:43:13Z</time>
      </trkpt>
      <trkpt lat="45.2435" lon="0.90566">
        <ele>198</ele>
        <time>2015-06-07T08:43:46Z</time>
      </trkpt>
      <trkpt lat="45.2436" lon="0.90558">
        <ele>196.25</ele>
        <time>2015-06-07T08:44:29Z</time>
      </trkpt>
      <trkpt lat="45.24366" lon="0.90546">
        <ele>194.75</ele>
        <time>2015-06-07T08:44:33Z</time>
      </trkpt>
      <trkpt lat="45.2437" lon="0.90534">
        <ele>194</ele>
        <time>2015-06-07T08:44:37Z</time>
      </trkpt>
      <trkpt lat="45.24373" lon="0.90521">
        <ele>193.5</ele>
        <time>2015-06-07T08:44:40Z</time>
      </trkpt>
      <trkpt lat="45.24375" lon="0.90506">
        <ele>193</ele>
        <time>2015-06-07T08:44:43Z</time>
      </trkpt>
      <trkpt lat="45.24379" lon="0.90487">
        <ele>192.25</ele>
        <time>2015-06-07T08:44:46Z</time>
      </trkpt>
      <trkpt lat="45.24381" lon="0.90473">
        <ele>192</ele>
        <time>2015-06-07T08:44:48Z</time>
      </trkpt>
      <trkpt lat="45.24383" lon="0.90458">
        <ele>191.5</ele>
        <time>2015-06-07T08:44:50Z</time>
      </trkpt>
      <trkpt lat="45.24385" lon="0.90444">
        <ele>191</ele>
        <time>2015-06-07T08:44:52Z</time>
      </trkpt>
      <trkpt lat="45.24387" lon="0.9043">
        <ele>190.75</ele>
        <time>2015-06-07T08:44:54Z</time>
      </trkpt>
      <trkpt lat="45.2439" lon="0.90417">
        <ele>190.25</ele>
        <time>2015-06-07T08:44:56Z</time>
      </trkpt>
      <trkpt lat="45.24392" lon="0.90403">
        <ele>189.75</ele>
        <time>2015-06-07T08:44:58Z</time>
      </trkpt>
      <trkpt lat="45.24396" lon="0.90388">
        <ele>189.75</ele>
        <time>2015-06-07T08:45:00Z</time>
      </trkpt>
      <trkpt lat="45.24401" lon="0.9037">
        <ele>189.75</ele>
        <time>2015-06-07T08:45:02Z</time>
      </trkpt>
      <trkpt lat="45.24407" lon="0.90353">
        <ele>189.25</ele>
        <time>2015-06-07T08:45:04Z</time>
      </trkpt>
      <trkpt lat="45.24413" lon="0.90338">
        <ele>188.75</ele>
        <time>2015-06-07T08:45:06Z</time>
      </trkpt>
      <trkpt lat="45.2442" lon="0.90322">
        <ele>188</ele>
        <time>2015-06-07T08:45:08Z</time>
      </trkpt>
      <trkpt lat="45.24429" lon="0.90305">
        <ele>187</ele>
        <time>2015-06-07T08:45:11Z</time>
      </trkpt>
      <trkpt lat="45.24437" lon="0.90292">
        <ele>186.25</ele>
        <time>2015-06-07T08:45:13Z</time>
      </trkpt>
      <trkpt lat="45.24445" lon="0.90279">
        <ele>185.5</ele>
        <time>2015-06-07T08:45:15Z</time>
      </trkpt>
      <trkpt lat="45.24453" lon="0.90266">
        <ele>184.5</ele>
        <time>2015-06-07T08:45:17Z</time>
      </trkpt>
      <trkpt lat="45.24462" lon="0.90252">
        <ele>183.75</ele>
        <time>2015-06-07T08:45:19Z</time>
      </trkpt>
      <trkpt lat="45.24469" lon="0.90238">
        <ele>183.25</ele>
        <time>2015-06-07T08:45:21Z</time>
      </trkpt>
      <trkpt lat="45.24475" lon="0.90222">
        <ele>182.25</ele>
        <time>2015-06-07T08:45:23Z</time>
      </trkpt>
      <trkpt lat="45.24481" lon="0.90205">
        <ele>181.25</ele>
        <time>2015-06-07T08:45:25Z</time>
      </trkpt>
      <trkpt lat="45.24485" lon="0.90187">
        <ele>180.5</ele>
        <time>2015-06-07T08:45:27Z</time>
      </trkpt>
      <trkpt lat="45.24485" lon="0.90168">
        <ele>180</ele>
        <time>2015-06-07T08:45:29Z</time>
      </trkpt>
      <trkpt lat="45.24485" lon="0.90149">
        <ele>179.75</ele>
        <time>2015-06-07T08:45:31Z</time>
      </trkpt>
      <trkpt lat="45.24484" lon="0.90129">
        <ele>179.25</ele>
        <time>2015-06-07T08:45:33Z</time>
      </trkpt>
      <trkpt lat="45.24482" lon="0.90109">
        <ele>178.5</ele>
        <time>2015-06-07T08:45:35Z</time>
      </trkpt>
      <trkpt lat="45.24481" lon="0.90089">
        <ele>177.75</ele>
        <time>2015-06-07T08:45:37Z</time>
      </trkpt>
      <trkpt lat="45.24479" lon="0.90069">
        <ele>177</ele>
        <time>2015-06-07T08:45:39Z</time>
      </trkpt>
      <trkpt lat="45.24475" lon="0.9005">
        <ele>176</ele>
        <time>2015-06-07T08:45:41Z</time>
      </trkpt>
      <trkpt lat="45.24471" lon="0.90034">
        <ele>175.25</ele>
        <time>2015-06-07T08:45:43Z</time>
      </trkpt>
      <trkpt lat="45.24464" lon="0.90019">
        <ele>174.5</ele>
        <time>2015-06-07T08:45:46Z</time>
      </trkpt>
      <trkpt lat="45.24456" lon="0.90023">
        <ele>174</ele>
        <time>2015-06-07T08:45:55Z</time>
      </trkpt>
      <trkpt lat="45.24455" lon="0.90036">
        <ele>174</ele>
        <time>2015-06-07T08:45:59Z</time>
      </trkpt>
      <trkpt lat="45.24455" lon="0.90049">
        <ele>174</ele>
        <time>2015-06-07T08:46:03Z</time>
      </trkpt>
      <trkpt lat="45.24455" lon="0.90063">
        <ele>175</ele>
        <time>2015-06-07T08:46:07Z</time>
      </trkpt>
      <trkpt lat="45.24456" lon="0.90077">
        <ele>175.5</ele>
        <time>2015-06-07T08:46:11Z</time>
      </trkpt>
      <trkpt lat="45.24455" lon="0.9009">
        <ele>176</ele>
        <time>2015-06-07T08:46:15Z</time>
      </trkpt>
      <trkpt lat="45.24451" lon="0.90105">
        <ele>177</ele>
        <time>2015-06-07T08:46:20Z</time>
      </trkpt>
      <trkpt lat="45.24445" lon="0.90117">
        <ele>178</ele>
        <time>2015-06-07T08:46:25Z</time>
      </trkpt>
      <trkpt lat="45.24435" lon="0.90121">
        <ele>179</ele>
        <time>2015-06-07T08:46:30Z</time>
      </trkpt>
      <trkpt lat="45.24426" lon="0.90121">
        <ele>179</ele>
        <time>2015-06-07T08:46:35Z</time>
      </trkpt>
      <trkpt lat="45.24415" lon="0.9012">
        <ele>180</ele>
        <time>2015-06-07T08:46:41Z</time>
      </trkpt>
      <trkpt lat="45.24405" lon="0.90121">
        <ele>182.75</ele>
        <time>2015-06-07T08:46:47Z</time>
      </trkpt>
      <trkpt lat="45.24395" lon="0.90123">
        <ele>184.25</ele>
        <time>2015-06-07T08:46:52Z</time>
      </trkpt>
      <trkpt lat="45.24385" lon="0.90125">
        <ele>187.25</ele>
        <time>2015-06-07T08:46:58Z</time>
      </trkpt>
      <trkpt lat="45.24375" lon="0.90127">
        <ele>189.5</ele>
        <time>2015-06-07T08:47:04Z</time>
      </trkpt>
      <trkpt lat="45.24365" lon="0.90129">
        <ele>190.5</ele>
        <time>2015-06-07T08:47:10Z</time>
      </trkpt>
      <trkpt lat="45.24355" lon="0.90129">
        <ele>192.25</ele>
        <time>2015-06-07T08:47:16Z</time>
      </trkpt>
      <trkpt lat="45.24344" lon="0.90129">
        <ele>194.25</ele>
        <time>2015-06-07T08:47:22Z</time>
      </trkpt>
      <trkpt lat="45.24335" lon="0.90129">
        <ele>195.5</ele>
        <time>2015-06-07T08:47:27Z</time>
      </trkpt>
      <trkpt lat="45.24324" lon="0.90131">
        <ele>196.25</ele>
        <time>2015-06-07T08:47:34Z</time>
      </trkpt>
      <trkpt lat="45.24314" lon="0.90133">
        <ele>198</ele>
        <time>2015-06-07T08:47:41Z</time>
      </trkpt>
      <trkpt lat="45.24304" lon="0.90135">
        <ele>200.25</ele>
        <time>2015-06-07T08:47:48Z</time>
      </trkpt>
      <trkpt lat="45.24295" lon="0.9014">
        <ele>202</ele>
        <time>2015-06-07T08:47:54Z</time>
      </trkpt>
      <trkpt lat="45.24285" lon="0.90146">
        <ele>204.25</ele>
        <time>2015-06-07T08:48:01Z</time>
      </trkpt>
      <trkpt lat="45.24277" lon="0.90154">
        <ele>207</ele>
        <time>2015-06-07T08:48:08Z</time>
      </trkpt>
      <trkpt lat="45.24269" lon="0.90163">
        <ele>208.5</ele>
        <time>2015-06-07T08:48:18Z</time>
      </trkpt>
      <trkpt lat="45.24261" lon="0.90171">
        <ele>209</ele>
        <time>2015-06-07T08:48:24Z</time>
      </trkpt>
      <trkpt lat="45.24253" lon="0.90178">
        <ele>209.25</ele>
        <time>2015-06-07T08:48:29Z</time>
      </trkpt>
      <trkpt lat="45.24245" lon="0.90185">
        <ele>211</ele>
        <time>2015-06-07T08:48:34Z</time>
      </trkpt>
      <trkpt lat="45.24235" lon="0.90193">
        <ele>211.75</ele>
        <time>2015-06-07T08:48:41Z</time>
      </trkpt>
      <trkpt lat="45.24226" lon="0.90201">
        <ele>212</ele>
        <time>2015-06-07T08:48:47Z</time>
      </trkpt>
      <trkpt lat="45.24218" lon="0.90208">
        <ele>210.75</ele>
        <time>2015-06-07T08:48:52Z</time>
      </trkpt>
      <trkpt lat="45.2421" lon="0.90214">
        <ele>210</ele>
        <time>2015-06-07T08:48:57Z</time>
      </trkpt>
      <trkpt lat="45.24202" lon="0.90219">
        <ele>210</ele>
        <time>2015-06-07T08:49:02Z</time>
      </trkpt>
      <trkpt lat="45.24192" lon="0.90224">
        <ele>210</ele>
        <time>2015-06-07T08:49:09Z</time>
      </trkpt>
      <trkpt lat="45.24184" lon="0.90229">
        <ele>210.75</ele>
        <time>2015-06-07T08:49:15Z</time>
      </trkpt>
      <trkpt lat="45.24175" lon="0.90233">
        <ele>211.5</ele>
        <time>2015-06-07T08:49:21Z</time>
      </trkpt>
      <trkpt lat="45.24166" lon="0.90237">
        <ele>212.75</ele>
        <time>2015-06-07T08:49:27Z</time>
      </trkpt>
      <trkpt lat="45.24156" lon="0.9024">
        <ele>215.25</ele>
        <time>2015-06-07T08:49:33Z</time>
      </trkpt>
      <trkpt lat="45.24147" lon="0.90244">
        <ele>217.5</ele>
        <time>2015-06-07T08:49:39Z</time>
      </trkpt>
      <trkpt lat="45.24137" lon="0.90247">
        <ele>219</ele>
        <time>2015-06-07T08:49:45Z</time>
      </trkpt>
      <trkpt lat="45.24127" lon="0.90251">
        <ele>217.75</ele>
        <time>2015-06-07T08:49:50Z</time>
      </trkpt>
      <trkpt lat="45.24117" lon="0.90256">
        <ele>217</ele>
        <time>2015-06-07T08:49:56Z</time>
      </trkpt>
      <trkpt lat="45.24108" lon="0.9026">
        <ele>218.5</ele>
        <time>2015-06-07T08:50:01Z</time>
      </trkpt>
      <trkpt lat="45.24099" lon="0.90264">
        <ele>219.5</ele>
        <time>2015-06-07T08:50:05Z</time>
      </trkpt>
      <trkpt lat="45.2409" lon="0.90269">
        <ele>220</ele>
        <time>2015-06-07T08:50:11Z</time>
      </trkpt>
      <trkpt lat="45.24081" lon="0.90274">
        <ele>219</ele>
        <time>2015-06-07T08:50:17Z</time>
      </trkpt>
      <trkpt lat="45.24071" lon="0.9028">
        <ele>218.5</ele>
        <time>2015-06-07T08:50:24Z</time>
      </trkpt>
      <trkpt lat="45.24062" lon="0.90285">
        <ele>219</ele>
        <time>2015-06-07T08:50:29Z</time>
      </trkpt>
      <trkpt lat="45.24052" lon="0.90291">
        <ele>220.25</ele>
        <time>2015-06-07T08:50:34Z</time>
      </trkpt>
      <trkpt lat="45.24043" lon="0.90295">
        <ele>222.25</ele>
        <time>2015-06-07T08:50:39Z</time>
      </trkpt>
      <trkpt lat="45.24034" lon="0.90299">
        <ele>224.75</ele>
        <time>2015-06-07T08:50:44Z</time>
      </trkpt>
      <trkpt lat="45.24025" lon="0.90303">
        <ele>226.25</ele>
        <time>2015-06-07T08:50:49Z</time>
      </trkpt>
      <trkpt lat="45.24016" lon="0.90308">
        <ele>229</ele>
        <time>2015-06-07T08:50:55Z</time>
      </trkpt>
      <trkpt lat="45.24008" lon="0.90313">
        <ele>230.75</ele>
        <time>2015-06-07T08:51:02Z</time>
      </trkpt>
      <trkpt lat="45.23999" lon="0.90319">
        <ele>232.25</ele>
        <time>2015-06-07T08:51:08Z</time>
      </trkpt>
      <trkpt lat="45.2399" lon="0.90325">
        <ele>234</ele>
        <time>2015-06-07T08:51:14Z</time>
      </trkpt>
      <trkpt lat="45.23982" lon="0.90332">
        <ele>235.75</ele>
        <time>2015-06-07T08:51:20Z</time>
      </trkpt>
      <trkpt lat="45.23974" lon="0.90338">
        <ele>236.5</ele>
        <time>2015-06-07T08:51:26Z</time>
      </trkpt>
      <trkpt lat="45.23966" lon="0.90344">
        <ele>236.5</ele>
        <time>2015-06-07T08:51:31Z</time>
      </trkpt>
      <trkpt lat="45.23956" lon="0.90352">
        <ele>236.5</ele>
        <time>2015-06-07T08:51:36Z</time>
      </trkpt>
      <trkpt lat="45.23947" lon="0.90359">
        <ele>237</ele>
        <time>2015-06-07T08:51:40Z</time>
      </trkpt>
      <trkpt lat="45.23938" lon="0.90365">
        <ele>237</ele>
        <time>2015-06-07T08:51:44Z</time>
      </trkpt>
      <trkpt lat="45.23929" lon="0.9037">
        <ele>237.75</ele>
        <time>2015-06-07T08:51:49Z</time>
      </trkpt>
      <trkpt lat="45.23921" lon="0.90379">
        <ele>237.25</ele>
        <time>2015-06-07T08:51:55Z</time>
      </trkpt>
      <trkpt lat="45.23914" lon="0.90386">
        <ele>237.75</ele>
        <time>2015-06-07T08:51:59Z</time>
      </trkpt>
      <trkpt lat="45.23905" lon="0.90393">
        <ele>239</ele>
        <time>2015-06-07T08:52:04Z</time>
      </trkpt>
      <trkpt lat="45.23896" lon="0.90398">
        <ele>240</ele>
        <time>2015-06-07T08:52:09Z</time>
      </trkpt>
      <trkpt lat="45.23887" lon="0.90404">
        <ele>238</ele>
        <time>2015-06-07T08:52:16Z</time>
      </trkpt>
      <trkpt lat="45.23879" lon="0.9041">
        <ele>238</ele>
        <time>2015-06-07T08:52:21Z</time>
      </trkpt>
      <trkpt lat="45.2387" lon="0.90416">
        <ele>238</ele>
        <time>2015-06-07T08:52:26Z</time>
      </trkpt>
      <trkpt lat="45.23861" lon="0.90423">
        <ele>239.25</ele>
        <time>2015-06-07T08:52:32Z</time>
      </trkpt>
      <trkpt lat="45.23853" lon="0.90431">
        <ele>241</ele>
        <time>2015-06-07T08:52:37Z</time>
      </trkpt>
      <trkpt lat="45.23844" lon="0.90438">
        <ele>241.25</ele>
        <time>2015-06-07T08:52:44Z</time>
      </trkpt>
      <trkpt lat="45.23839" lon="0.90451">
        <ele>241</ele>
        <time>2015-06-07T08:52:51Z</time>
      </trkpt>
      <trkpt lat="45.23836" lon="0.90463">
        <ele>241.25</ele>
        <time>2015-06-07T08:52:57Z</time>
      </trkpt>
      <trkpt lat="45.23833" lon="0.90479">
        <ele>241</ele>
        <time>2015-06-07T08:53:02Z</time>
      </trkpt>
      <trkpt lat="45.23832" lon="0.90493">
        <ele>241.5</ele>
        <time>2015-06-07T08:53:06Z</time>
      </trkpt>
      <trkpt lat="45.23831" lon="0.90508">
        <ele>242</ele>
        <time>2015-06-07T08:53:09Z</time>
      </trkpt>
      <trkpt lat="45.2383" lon="0.90524">
        <ele>241.25</ele>
        <time>2015-06-07T08:53:12Z</time>
      </trkpt>
      <trkpt lat="45.23829" lon="0.90539">
        <ele>241</ele>
        <time>2015-06-07T08:53:15Z</time>
      </trkpt>
      <trkpt lat="45.23827" lon="0.90553">
        <ele>241</ele>
        <time>2015-06-07T08:53:18Z</time>
      </trkpt>
      <trkpt lat="45.23827" lon="0.90567">
        <ele>241</ele>
        <time>2015-06-07T08:53:21Z</time>
      </trkpt>
      <trkpt lat="45.23825" lon="0.90582">
        <ele>242</ele>
        <time>2015-06-07T08:53:25Z</time>
      </trkpt>
      <trkpt lat="45.23824" lon="0.90596">
        <ele>243.25</ele>
        <time>2015-06-07T08:53:29Z</time>
      </trkpt>
      <trkpt lat="45.23824" lon="0.90609">
        <ele>244</ele>
        <time>2015-06-07T08:53:33Z</time>
      </trkpt>
      <trkpt lat="45.23823" lon="0.90623">
        <ele>244.5</ele>
        <time>2015-06-07T08:53:37Z</time>
      </trkpt>
      <trkpt lat="45.23824" lon="0.90637">
        <ele>244.25</ele>
        <time>2015-06-07T08:53:40Z</time>
      </trkpt>
      <trkpt lat="45.23824" lon="0.90653">
        <ele>244</ele>
        <time>2015-06-07T08:53:44Z</time>
      </trkpt>
      <trkpt lat="45.23822" lon="0.90669">
        <ele>245.25</ele>
        <time>2015-06-07T08:53:48Z</time>
      </trkpt>
      <trkpt lat="45.23819" lon="0.90685">
        <ele>246.5</ele>
        <time>2015-06-07T08:53:52Z</time>
      </trkpt>
      <trkpt lat="45.23817" lon="0.90699">
        <ele>248</ele>
        <time>2015-06-07T08:53:56Z</time>
      </trkpt>
      <trkpt lat="45.23816" lon="0.90713">
        <ele>248.5</ele>
        <time>2015-06-07T08:54:00Z</time>
      </trkpt>
      <trkpt lat="45.23814" lon="0.90728">
        <ele>248.5</ele>
        <time>2015-06-07T08:54:04Z</time>
      </trkpt>
      <trkpt lat="45.23812" lon="0.90741">
        <ele>249.5</ele>
        <time>2015-06-07T08:54:08Z</time>
      </trkpt>
      <trkpt lat="45.2381" lon="0.90756">
        <ele>250</ele>
        <time>2015-06-07T08:54:12Z</time>
      </trkpt>
      <trkpt lat="45.23807" lon="0.90768">
        <ele>250.75</ele>
        <time>2015-06-07T08:54:16Z</time>
      </trkpt>
      <trkpt lat="45.23801" lon="0.9078">
        <ele>251</ele>
        <time>2015-06-07T08:54:20Z</time>
      </trkpt>
      <trkpt lat="45.23792" lon="0.9079">
        <ele>251</ele>
        <time>2015-06-07T08:54:24Z</time>
      </trkpt>
      <trkpt lat="45.23782" lon="0.90799">
        <ele>252.25</ele>
        <time>2015-06-07T08:54:28Z</time>
      </trkpt>
      <trkpt lat="45.23774" lon="0.90807">
        <ele>253.5</ele>
        <time>2015-06-07T08:54:32Z</time>
      </trkpt>
      <trkpt lat="45.23763" lon="0.90815">
        <ele>254</ele>
        <time>2015-06-07T08:54:37Z</time>
      </trkpt>
      <trkpt lat="45.23754" lon="0.90822">
        <ele>254.25</ele>
        <time>2015-06-07T08:54:41Z</time>
      </trkpt>
      <trkpt lat="45.23746" lon="0.90829">
        <ele>255</ele>
        <time>2015-06-07T08:54:45Z</time>
      </trkpt>
      <trkpt lat="45.23737" lon="0.90835">
        <ele>255</ele>
        <time>2015-06-07T08:54:49Z</time>
      </trkpt>
      <trkpt lat="45.23729" lon="0.90842">
        <ele>255</ele>
        <time>2015-06-07T08:54:53Z</time>
      </trkpt>
      <trkpt lat="45.23721" lon="0.90852">
        <ele>255.5</ele>
        <time>2015-06-07T08:54:57Z</time>
      </trkpt>
      <trkpt lat="45.23714" lon="0.90865">
        <ele>256.5</ele>
        <time>2015-06-07T08:55:01Z</time>
      </trkpt>
      <trkpt lat="45.23707" lon="0.90875">
        <ele>257</ele>
        <time>2015-06-07T08:55:04Z</time>
      </trkpt>
      <trkpt lat="45.237" lon="0.90884">
        <ele>257.5</ele>
        <time>2015-06-07T08:55:07Z</time>
      </trkpt>
      <trkpt lat="45.23692" lon="0.90893">
        <ele>258</ele>
        <time>2015-06-07T08:55:11Z</time>
      </trkpt>
      <trkpt lat="45.23682" lon="0.90901">
        <ele>258.5</ele>
        <time>2015-06-07T08:55:15Z</time>
      </trkpt>
      <trkpt lat="45.23673" lon="0.90906">
        <ele>258.5</ele>
        <time>2015-06-07T08:55:18Z</time>
      </trkpt>
      <trkpt lat="45.23664" lon="0.90912">
        <ele>259</ele>
        <time>2015-06-07T08:55:21Z</time>
      </trkpt>
      <trkpt lat="45.23655" lon="0.90921">
        <ele>260</ele>
        <time>2015-06-07T08:55:24Z</time>
      </trkpt>
      <trkpt lat="45.23646" lon="0.90932">
        <ele>261</ele>
        <time>2015-06-07T08:55:27Z</time>
      </trkpt>
      <trkpt lat="45.23637" lon="0.90943">
        <ele>261</ele>
        <time>2015-06-07T08:55:30Z</time>
      </trkpt>
      <trkpt lat="45.23627" lon="0.90954">
        <ele>261.75</ele>
        <time>2015-06-07T08:55:33Z</time>
      </trkpt>
      <trkpt lat="45.23619" lon="0.90964">
        <ele>262</ele>
        <time>2015-06-07T08:55:36Z</time>
      </trkpt>
      <trkpt lat="45.23611" lon="0.90975">
        <ele>262</ele>
        <time>2015-06-07T08:55:39Z</time>
      </trkpt>
      <trkpt lat="45.23604" lon="0.90983">
        <ele>262</ele>
        <time>2015-06-07T08:55:41Z</time>
      </trkpt>
      <trkpt lat="45.23597" lon="0.90992">
        <ele>262</ele>
        <time>2015-06-07T08:55:43Z</time>
      </trkpt>
      <trkpt lat="45.23589" lon="0.91001">
        <ele>262.25</ele>
        <time>2015-06-07T08:55:45Z</time>
      </trkpt>
      <trkpt lat="45.23582" lon="0.91011">
        <ele>262.75</ele>
        <time>2015-06-07T08:55:48Z</time>
      </trkpt>
      <trkpt lat="45.23572" lon="0.91022">
        <ele>263</ele>
        <time>2015-06-07T08:55:51Z</time>
      </trkpt>
      <trkpt lat="45.23562" lon="0.91035">
        <ele>263</ele>
        <time>2015-06-07T08:55:54Z</time>
      </trkpt>
      <trkpt lat="45.23556" lon="0.91044">
        <ele>262.75</ele>
        <time>2015-06-07T08:55:56Z</time>
      </trkpt>
      <trkpt lat="45.23548" lon="0.91052">
        <ele>262.25</ele>
        <time>2015-06-07T08:55:58Z</time>
      </trkpt>
      <trkpt lat="45.23541" lon="0.9106">
        <ele>262</ele>
        <time>2015-06-07T08:56:00Z</time>
      </trkpt>
      <trkpt lat="45.23531" lon="0.91072">
        <ele>262.25</ele>
        <time>2015-06-07T08:56:05Z</time>
      </trkpt>
      <trkpt lat="45.23519" lon="0.91087">
        <ele>262.75</ele>
        <time>2015-06-07T08:56:07Z</time>
      </trkpt>
      <trkpt lat="45.2351" lon="0.91099">
        <ele>263</ele>
        <time>2015-06-07T08:56:09Z</time>
      </trkpt>
      <trkpt lat="45.23501" lon="0.91109">
        <ele>263</ele>
        <time>2015-06-07T08:56:12Z</time>
      </trkpt>
      <trkpt lat="45.23491" lon="0.91119">
        <ele>264</ele>
        <time>2015-06-07T08:56:15Z</time>
      </trkpt>
      <trkpt lat="45.23481" lon="0.91128">
        <ele>265</ele>
        <time>2015-06-07T08:56:18Z</time>
      </trkpt>
      <trkpt lat="45.23472" lon="0.91137">
        <ele>265.5</ele>
        <time>2015-06-07T08:56:21Z</time>
      </trkpt>
      <trkpt lat="45.23464" lon="0.91146">
        <ele>266.75</ele>
        <time>2015-06-07T08:56:24Z</time>
      </trkpt>
      <trkpt lat="45.23454" lon="0.91155">
        <ele>267</ele>
        <time>2015-06-07T08:56:27Z</time>
      </trkpt>
      <trkpt lat="45.23445" lon="0.91164">
        <ele>266.5</ele>
        <time>2015-06-07T08:56:29Z</time>
      </trkpt>
      <trkpt lat="45.23438" lon="0.91172">
        <ele>266</ele>
        <time>2015-06-07T08:56:31Z</time>
      </trkpt>
      <trkpt lat="45.23428" lon="0.91183">
        <ele>266.25</ele>
        <time>2015-06-07T08:56:34Z</time>
      </trkpt>
      <trkpt lat="45.23421" lon="0.91192">
        <ele>266.75</ele>
        <time>2015-06-07T08:56:37Z</time>
      </trkpt>
      <trkpt lat="45.23411" lon="0.91202">
        <ele>267</ele>
        <time>2015-06-07T08:56:40Z</time>
      </trkpt>
      <trkpt lat="45.23403" lon="0.91211">
        <ele>267</ele>
        <time>2015-06-07T08:56:43Z</time>
      </trkpt>
      <trkpt lat="45.23395" lon="0.9122">
        <ele>267.5</ele>
        <time>2015-06-07T08:56:46Z</time>
      </trkpt>
      <trkpt lat="45.23387" lon="0.91231">
        <ele>268</ele>
        <time>2015-06-07T08:56:49Z</time>
      </trkpt>
      <trkpt lat="45.23379" lon="0.91243">
        <ele>267.25</ele>
        <time>2015-06-07T08:56:53Z</time>
      </trkpt>
      <trkpt lat="45.23372" lon="0.91251">
        <ele>266.5</ele>
        <time>2015-06-07T08:56:56Z</time>
      </trkpt>
      <trkpt lat="45.23363" lon="0.9126">
        <ele>266</ele>
        <time>2015-06-07T08:56:59Z</time>
      </trkpt>
      <trkpt lat="45.23353" lon="0.91271">
        <ele>266</ele>
        <time>2015-06-07T08:57:02Z</time>
      </trkpt>
      <trkpt lat="45.23343" lon="0.91281">
        <ele>266.75</ele>
        <time>2015-06-07T08:57:05Z</time>
      </trkpt>
      <trkpt lat="45.23334" lon="0.91288">
        <ele>267</ele>
        <time>2015-06-07T08:57:07Z</time>
      </trkpt>
      <trkpt lat="45.23324" lon="0.91293">
        <ele>266.75</ele>
        <time>2015-06-07T08:57:09Z</time>
      </trkpt>
      <trkpt lat="45.23315" lon="0.91298">
        <ele>266.25</ele>
        <time>2015-06-07T08:57:12Z</time>
      </trkpt>
      <trkpt lat="45.23303" lon="0.91304">
        <ele>266</ele>
        <time>2015-06-07T08:57:15Z</time>
      </trkpt>
      <trkpt lat="45.23293" lon="0.9131">
        <ele>266</ele>
        <time>2015-06-07T08:57:18Z</time>
      </trkpt>
      <trkpt lat="45.23284" lon="0.91319">
        <ele>266.5</ele>
        <time>2015-06-07T08:57:21Z</time>
      </trkpt>
      <trkpt lat="45.23277" lon="0.9133">
        <ele>267</ele>
        <time>2015-06-07T08:57:24Z</time>
      </trkpt>
      <trkpt lat="45.23273" lon="0.91346">
        <ele>266.25</ele>
        <time>2015-06-07T08:57:28Z</time>
      </trkpt>
      <trkpt lat="45.23275" lon="0.91359">
        <ele>266</ele>
        <time>2015-06-07T08:57:31Z</time>
      </trkpt>
      <trkpt lat="45.23278" lon="0.91372">
        <ele>266</ele>
        <time>2015-06-07T08:57:34Z</time>
      </trkpt>
      <trkpt lat="45.23281" lon="0.91384">
        <ele>265.75</ele>
        <time>2015-06-07T08:57:37Z</time>
      </trkpt>
      <trkpt lat="45.23286" lon="0.91396">
        <ele>265</ele>
        <time>2015-06-07T08:57:40Z</time>
      </trkpt>
      <trkpt lat="45.2329" lon="0.91408">
        <ele>265</ele>
        <time>2015-06-07T08:57:42Z</time>
      </trkpt>
      <trkpt lat="45.23296" lon="0.91422">
        <ele>264.75</ele>
        <time>2015-06-07T08:57:44Z</time>
      </trkpt>
      <trkpt lat="45.23302" lon="0.91435">
        <ele>264.25</ele>
        <time>2015-06-07T08:57:47Z</time>
      </trkpt>
      <trkpt lat="45.23307" lon="0.91447">
        <ele>264</ele>
        <time>2015-06-07T08:57:49Z</time>
      </trkpt>
      <trkpt lat="45.23313" lon="0.9146">
        <ele>263.75</ele>
        <time>2015-06-07T08:57:51Z</time>
      </trkpt>
      <trkpt lat="45.23319" lon="0.91474">
        <ele>263.25</ele>
        <time>2015-06-07T08:57:53Z</time>
      </trkpt>
      <trkpt lat="45.23324" lon="0.9149">
        <ele>262.5</ele>
        <time>2015-06-07T08:57:55Z</time>
      </trkpt>
      <trkpt lat="45.23327" lon="0.91504">
        <ele>262</ele>
        <time>2015-06-07T08:57:57Z</time>
      </trkpt>
      <trkpt lat="45.23331" lon="0.91519">
        <ele>262</ele>
        <time>2015-06-07T08:57:59Z</time>
      </trkpt>
      <trkpt lat="45.23334" lon="0.91533">
        <ele>261.75</ele>
        <time>2015-06-07T08:58:01Z</time>
      </trkpt>
      <trkpt lat="45.23337" lon="0.91548">
        <ele>261.25</ele>
        <time>2015-06-07T08:58:03Z</time>
      </trkpt>
      <trkpt lat="45.23341" lon="0.91562">
        <ele>261</ele>
        <time>2015-06-07T08:58:05Z</time>
      </trkpt>
      <trkpt lat="45.23344" lon="0.91576">
        <ele>261</ele>
        <time>2015-06-07T08:58:07Z</time>
      </trkpt>
      <trkpt lat="45.23347" lon="0.9159">
        <ele>261</ele>
        <time>2015-06-07T08:58:09Z</time>
      </trkpt>
      <trkpt lat="45.23351" lon="0.91606">
        <ele>261</ele>
        <time>2015-06-07T08:58:11Z</time>
      </trkpt>
      <trkpt lat="45.23355" lon="0.91622">
        <ele>261</ele>
        <time>2015-06-07T08:58:13Z</time>
      </trkpt>
      <trkpt lat="45.23357" lon="0.91638">
        <ele>261</ele>
        <time>2015-06-07T08:58:15Z</time>
      </trkpt>
      <trkpt lat="45.23359" lon="0.91653">
        <ele>260.75</ele>
        <time>2015-06-07T08:58:18Z</time>
      </trkpt>
      <trkpt lat="45.23362" lon="0.91667">
        <ele>260.25</ele>
        <time>2015-06-07T08:58:20Z</time>
      </trkpt>
      <trkpt lat="45.23364" lon="0.91683">
        <ele>260</ele>
        <time>2015-06-07T08:58:22Z</time>
      </trkpt>
      <trkpt lat="45.23366" lon="0.91698">
        <ele>260</ele>
        <time>2015-06-07T08:58:24Z</time>
      </trkpt>
      <trkpt lat="45.23367" lon="0.91712">
        <ele>260</ele>
        <time>2015-06-07T08:58:26Z</time>
      </trkpt>
      <trkpt lat="45.23369" lon="0.91728">
        <ele>260</ele>
        <time>2015-06-07T08:58:28Z</time>
      </trkpt>
      <trkpt lat="45.23372" lon="0.91743">
        <ele>260</ele>
        <time>2015-06-07T08:58:30Z</time>
      </trkpt>
      <trkpt lat="45.23373" lon="0.91758">
        <ele>260</ele>
        <time>2015-06-07T08:58:32Z</time>
      </trkpt>
      <trkpt lat="45.23374" lon="0.91773">
        <ele>260</ele>
        <time>2015-06-07T08:58:34Z</time>
      </trkpt>
      <trkpt lat="45.23374" lon="0.91788">
        <ele>260</ele>
        <time>2015-06-07T08:58:36Z</time>
      </trkpt>
      <trkpt lat="45.23374" lon="0.91803">
        <ele>260</ele>
        <time>2015-06-07T08:58:38Z</time>
      </trkpt>
      <trkpt lat="45.23373" lon="0.91817">
        <ele>260</ele>
        <time>2015-06-07T08:58:40Z</time>
      </trkpt>
      <trkpt lat="45.23373" lon="0.91831">
        <ele>260.25</ele>
        <time>2015-06-07T08:58:42Z</time>
      </trkpt>
      <trkpt lat="45.23372" lon="0.91844">
        <ele>260.75</ele>
        <time>2015-06-07T08:58:44Z</time>
      </trkpt>
      <trkpt lat="45.23372" lon="0.91858">
        <ele>261</ele>
        <time>2015-06-07T08:58:46Z</time>
      </trkpt>
      <trkpt lat="45.23372" lon="0.91872">
        <ele>261</ele>
        <time>2015-06-07T08:58:48Z</time>
      </trkpt>
      <trkpt lat="45.23375" lon="0.91888">
        <ele>261</ele>
        <time>2015-06-07T08:58:51Z</time>
      </trkpt>
      <trkpt lat="45.23382" lon="0.91895">
        <ele>260.5</ele>
        <time>2015-06-07T08:58:57Z</time>
      </trkpt>
      <trkpt lat="45.23393" lon="0.91906">
        <ele>259.25</ele>
        <time>2015-06-07T08:59:05Z</time>
      </trkpt>
      <trkpt lat="45.23401" lon="0.91914">
        <ele>259.5</ele>
        <time>2015-06-07T08:59:07Z</time>
      </trkpt>
      <trkpt lat="45.23409" lon="0.91922">
        <ele>259.25</ele>
        <time>2015-06-07T08:59:10Z</time>
      </trkpt>
      <trkpt lat="45.2342" lon="0.91934">
        <ele>258</ele>
        <time>2015-06-07T08:59:13Z</time>
      </trkpt>
      <trkpt lat="45.2343" lon="0.91945">
        <ele>257</ele>
        <time>2015-06-07T08:59:15Z</time>
      </trkpt>
      <trkpt lat="45.23443" lon="0.91957">
        <ele>256</ele>
        <time>2015-06-07T08:59:17Z</time>
      </trkpt>
      <trkpt lat="45.23458" lon="0.9197">
        <ele>255</ele>
        <time>2015-06-07T08:59:19Z</time>
      </trkpt>
      <trkpt lat="45.23473" lon="0.91982">
        <ele>254</ele>
        <time>2015-06-07T08:59:21Z</time>
      </trkpt>
      <trkpt lat="45.23489" lon="0.91994">
        <ele>253.25</ele>
        <time>2015-06-07T08:59:23Z</time>
      </trkpt>
      <trkpt lat="45.23504" lon="0.92006">
        <ele>252.5</ele>
        <time>2015-06-07T08:59:25Z</time>
      </trkpt>
      <trkpt lat="45.23518" lon="0.92016">
        <ele>251.5</ele>
        <time>2015-06-07T08:59:27Z</time>
      </trkpt>
      <trkpt lat="45.23532" lon="0.92026">
        <ele>251</ele>
        <time>2015-06-07T08:59:29Z</time>
      </trkpt>
      <trkpt lat="45.23546" lon="0.92035">
        <ele>251.25</ele>
        <time>2015-06-07T08:59:31Z</time>
      </trkpt>
      <trkpt lat="45.2356" lon="0.92042">
        <ele>251.75</ele>
        <time>2015-06-07T08:59:33Z</time>
      </trkpt>
      <trkpt lat="45.23573" lon="0.92052">
        <ele>252</ele>
        <time>2015-06-07T08:59:36Z</time>
      </trkpt>
      <trkpt lat="45.23586" lon="0.92063">
        <ele>252</ele>
        <time>2015-06-07T08:59:38Z</time>
      </trkpt>
      <trkpt lat="45.23598" lon="0.92074">
        <ele>252</ele>
        <time>2015-06-07T08:59:40Z</time>
      </trkpt>
      <trkpt lat="45.23609" lon="0.92086">
        <ele>252</ele>
        <time>2015-06-07T08:59:42Z</time>
      </trkpt>
      <trkpt lat="45.23618" lon="0.92095">
        <ele>252.5</ele>
        <time>2015-06-07T08:59:44Z</time>
      </trkpt>
      <trkpt lat="45.23625" lon="0.92104">
        <ele>253</ele>
        <time>2015-06-07T08:59:46Z</time>
      </trkpt>
      <trkpt lat="45.23631" lon="0.92113">
        <ele>253</ele>
        <time>2015-06-07T08:59:48Z</time>
      </trkpt>
      <trkpt lat="45.23638" lon="0.92122">
        <ele>253</ele>
        <time>2015-06-07T08:59:50Z</time>
      </trkpt>
      <trkpt lat="45.23646" lon="0.92136">
        <ele>253.75</ele>
        <time>2015-06-07T08:59:53Z</time>
      </trkpt>
      <trkpt lat="45.23653" lon="0.92148">
        <ele>254</ele>
        <time>2015-06-07T08:59:56Z</time>
      </trkpt>
      <trkpt lat="45.2366" lon="0.92161">
        <ele>254.5</ele>
        <time>2015-06-07T08:59:59Z</time>
      </trkpt>
      <trkpt lat="45.23667" lon="0.92171">
        <ele>255.75</ele>
        <time>2015-06-07T09:00:02Z</time>
      </trkpt>
      <trkpt lat="45.23673" lon="0.9218">
        <ele>257.5</ele>
        <time>2015-06-07T09:00:05Z</time>
      </trkpt>
      <trkpt lat="45.23684" lon="0.92192">
        <ele>259.25</ele>
        <time>2015-06-07T09:00:09Z</time>
      </trkpt>
      <trkpt lat="45.23692" lon="0.92201">
        <ele>260</ele>
        <time>2015-06-07T09:00:12Z</time>
      </trkpt>
      <trkpt lat="45.237" lon="0.9221">
        <ele>260.75</ele>
        <time>2015-06-07T09:00:15Z</time>
      </trkpt>
      <trkpt lat="45.23709" lon="0.92224">
        <ele>261</ele>
        <time>2015-06-07T09:00:18Z</time>
      </trkpt>
      <trkpt lat="45.23715" lon="0.92235">
        <ele>261.25</ele>
        <time>2015-06-07T09:00:20Z</time>
      </trkpt>
      <trkpt lat="45.2372" lon="0.92249">
        <ele>261.25</ele>
        <time>2015-06-07T09:00:22Z</time>
      </trkpt>
      <trkpt lat="45.23727" lon="0.92267">
        <ele>261</ele>
        <time>2015-06-07T09:00:24Z</time>
      </trkpt>
      <trkpt lat="45.23731" lon="0.92285">
        <ele>261</ele>
        <time>2015-06-07T09:00:26Z</time>
      </trkpt>
      <trkpt lat="45.23733" lon="0.92299">
        <ele>260.5</ele>
        <time>2015-06-07T09:00:28Z</time>
      </trkpt>
      <trkpt lat="45.2373" lon="0.92313">
        <ele>259.5</ele>
        <time>2015-06-07T09:00:30Z</time>
      </trkpt>
      <trkpt lat="45.23726" lon="0.92328">
        <ele>258.5</ele>
        <time>2015-06-07T09:00:32Z</time>
      </trkpt>
      <trkpt lat="45.23722" lon="0.92342">
        <ele>258</ele>
        <time>2015-06-07T09:00:34Z</time>
      </trkpt>
      <trkpt lat="45.2372" lon="0.92357">
        <ele>258.5</ele>
        <time>2015-06-07T09:00:38Z</time>
      </trkpt>
      <trkpt lat="45.23719" lon="0.92371">
        <ele>259.75</ele>
        <time>2015-06-07T09:00:41Z</time>
      </trkpt>
      <trkpt lat="45.23722" lon="0.92384">
        <ele>260.25</ele>
        <time>2015-06-07T09:00:45Z</time>
      </trkpt>
      <trkpt lat="45.23727" lon="0.92395">
        <ele>261</ele>
        <time>2015-06-07T09:00:49Z</time>
      </trkpt>
      <trkpt lat="45.23721" lon="0.92406">
        <ele>261</ele>
        <time>2015-06-07T09:00:56Z</time>
      </trkpt>
      <trkpt lat="45.23712" lon="0.92412">
        <ele>262</ele>
        <time>2015-06-07T09:01:01Z</time>
      </trkpt>
      <trkpt lat="45.23702" lon="0.92416">
        <ele>262</ele>
        <time>2015-06-07T09:01:05Z</time>
      </trkpt>
      <trkpt lat="45.23693" lon="0.92419">
        <ele>263</ele>
        <time>2015-06-07T09:01:11Z</time>
      </trkpt>
      <trkpt lat="45.23684" lon="0.92413">
        <ele>264</ele>
        <time>2015-06-07T09:01:16Z</time>
      </trkpt>
      <trkpt lat="45.23675" lon="0.92405">
        <ele>266.25</ele>
        <time>2015-06-07T09:01:23Z</time>
      </trkpt>
      <trkpt lat="45.23666" lon="0.92402">
        <ele>267.75</ele>
        <time>2015-06-07T09:01:29Z</time>
      </trkpt>
      <trkpt lat="45.23657" lon="0.92396">
        <ele>268.5</ele>
        <time>2015-06-07T09:01:35Z</time>
      </trkpt>
      <trkpt lat="45.23648" lon="0.92391">
        <ele>270.75</ele>
        <time>2015-06-07T09:01:43Z</time>
      </trkpt>
      <trkpt lat="45.23639" lon="0.92388">
        <ele>273</ele>
        <time>2015-06-07T09:01:50Z</time>
      </trkpt>
      <trkpt lat="45.2363" lon="0.92385">
        <ele>273.25</ele>
        <time>2015-06-07T09:01:56Z</time>
      </trkpt>
      <trkpt lat="45.23621" lon="0.92381">
        <ele>274.75</ele>
        <time>2015-06-07T09:02:03Z</time>
      </trkpt>
      <trkpt lat="45.23611" lon="0.92378">
        <ele>276</ele>
        <time>2015-06-07T09:02:09Z</time>
      </trkpt>
      <trkpt lat="45.23602" lon="0.92378">
        <ele>277</ele>
        <time>2015-06-07T09:02:13Z</time>
      </trkpt>
      <trkpt lat="45.23592" lon="0.9238">
        <ele>277</ele>
        <time>2015-06-07T09:02:19Z</time>
      </trkpt>
      <trkpt lat="45.23582" lon="0.92382">
        <ele>278.25</ele>
        <time>2015-06-07T09:02:25Z</time>
      </trkpt>
      <trkpt lat="45.23575" lon="0.92389">
        <ele>279.5</ele>
        <time>2015-06-07T09:02:31Z</time>
      </trkpt>
      <trkpt lat="45.23566" lon="0.92398">
        <ele>280.25</ele>
        <time>2015-06-07T09:02:38Z</time>
      </trkpt>
      <trkpt lat="45.23559" lon="0.92407">
        <ele>281.25</ele>
        <time>2015-06-07T09:02:43Z</time>
      </trkpt>
      <trkpt lat="45.23552" lon="0.92416">
        <ele>282.75</ele>
        <time>2015-06-07T09:02:48Z</time>
      </trkpt>
      <trkpt lat="45.23551" lon="0.92431">
        <ele>285</ele>
        <time>2015-06-07T09:02:57Z</time>
      </trkpt>
      <trkpt lat="45.23552" lon="0.92445">
        <ele>284.75</ele>
        <time>2015-06-07T09:03:02Z</time>
      </trkpt>
      <trkpt lat="45.23552" lon="0.92458">
        <ele>284</ele>
        <time>2015-06-07T09:03:05Z</time>
      </trkpt>
      <trkpt lat="45.23547" lon="0.9247">
        <ele>285.25</ele>
        <time>2015-06-07T09:03:09Z</time>
      </trkpt>
      <trkpt lat="45.23537" lon="0.92477">
        <ele>287</ele>
        <time>2015-06-07T09:03:14Z</time>
      </trkpt>
      <trkpt lat="45.23526" lon="0.92481">
        <ele>287</ele>
        <time>2015-06-07T09:03:18Z</time>
      </trkpt>
      <trkpt lat="45.23514" lon="0.92484">
        <ele>287</ele>
        <time>2015-06-07T09:03:22Z</time>
      </trkpt>
      <trkpt lat="45.23503" lon="0.92486">
        <ele>287</ele>
        <time>2015-06-07T09:03:25Z</time>
      </trkpt>
      <trkpt lat="45.23491" lon="0.9249">
        <ele>286.5</ele>
        <time>2015-06-07T09:03:28Z</time>
      </trkpt>
      <trkpt lat="45.2348" lon="0.92496">
        <ele>285.5</ele>
        <time>2015-06-07T09:03:31Z</time>
      </trkpt>
      <trkpt lat="45.23479" lon="0.92509">
        <ele>281</ele>
        <time>2015-06-07T09:03:37Z</time>
      </trkpt>
      <trkpt lat="45.23488" lon="0.92522">
        <ele>279.5</ele>
        <time>2015-06-07T09:03:41Z</time>
      </trkpt>
      <trkpt lat="45.23494" lon="0.92534">
        <ele>278.25</ele>
        <time>2015-06-07T09:03:45Z</time>
      </trkpt>
      <trkpt lat="45.23501" lon="0.92543">
        <ele>278</ele>
        <time>2015-06-07T09:03:48Z</time>
      </trkpt>
      <trkpt lat="45.23508" lon="0.92551">
        <ele>278</ele>
        <time>2015-06-07T09:03:51Z</time>
      </trkpt>
      <trkpt lat="45.23517" lon="0.92562">
        <ele>278</ele>
        <time>2015-06-07T09:03:55Z</time>
      </trkpt>
      <trkpt lat="45.23524" lon="0.92571">
        <ele>278.25</ele>
        <time>2015-06-07T09:03:59Z</time>
      </trkpt>
      <trkpt lat="45.23517" lon="0.9258">
        <ele>275</ele>
        <time>2015-06-07T09:04:45Z</time>
      </trkpt>
      <trkpt lat="45.23508" lon="0.92574">
        <ele>275.75</ele>
        <time>2015-06-07T09:04:49Z</time>
      </trkpt>
      <trkpt lat="45.23498" lon="0.92566">
        <ele>277</ele>
        <time>2015-06-07T09:04:53Z</time>
      </trkpt>
      <trkpt lat="45.23489" lon="0.92557">
        <ele>278.25</ele>
        <time>2015-06-07T09:04:56Z</time>
      </trkpt>
      <trkpt lat="45.2348" lon="0.92545">
        <ele>278.5</ele>
        <time>2015-06-07T09:05:00Z</time>
      </trkpt>
      <trkpt lat="45.23473" lon="0.92533">
        <ele>278.5</ele>
        <time>2015-06-07T09:05:03Z</time>
      </trkpt>
      <trkpt lat="45.23465" lon="0.92521">
        <ele>279</ele>
        <time>2015-06-07T09:05:07Z</time>
      </trkpt>
      <trkpt lat="45.23467" lon="0.92508">
        <ele>279</ele>
        <time>2015-06-07T09:05:12Z</time>
      </trkpt>
      <trkpt lat="45.23474" lon="0.92498">
        <ele>279</ele>
        <time>2015-06-07T09:05:16Z</time>
      </trkpt>
      <trkpt lat="45.23482" lon="0.92489">
        <ele>280</ele>
        <time>2015-06-07T09:05:21Z</time>
      </trkpt>
      <trkpt lat="45.2349" lon="0.92482">
        <ele>280</ele>
        <time>2015-06-07T09:05:26Z</time>
      </trkpt>
      <trkpt lat="45.23499" lon="0.92475">
        <ele>281</ele>
        <time>2015-06-07T09:05:32Z</time>
      </trkpt>
      <trkpt lat="45.23509" lon="0.92471">
        <ele>281</ele>
        <time>2015-06-07T09:05:37Z</time>
      </trkpt>
      <trkpt lat="45.23518" lon="0.92466">
        <ele>281.5</ele>
        <time>2015-06-07T09:05:41Z</time>
      </trkpt>
      <trkpt lat="45.23527" lon="0.92463">
        <ele>281.75</ele>
        <time>2015-06-07T09:05:45Z</time>
      </trkpt>
      <trkpt lat="45.23534" lon="0.92453">
        <ele>284.25</ele>
        <time>2015-06-07T09:05:54Z</time>
      </trkpt>
      <trkpt lat="45.23533" lon="0.9244">
        <ele>286.5</ele>
        <time>2015-06-07T09:06:01Z</time>
      </trkpt>
      <trkpt lat="45.23523" lon="0.92429">
        <ele>287</ele>
        <time>2015-06-07T09:06:05Z</time>
      </trkpt>
      <trkpt lat="45.23515" lon="0.92419">
        <ele>288</ele>
        <time>2015-06-07T09:06:10Z</time>
      </trkpt>
      <trkpt lat="45.23505" lon="0.92409">
        <ele>289</ele>
        <time>2015-06-07T09:06:14Z</time>
      </trkpt>
      <trkpt lat="45.23497" lon="0.92399">
        <ele>289.75</ele>
        <time>2015-06-07T09:06:17Z</time>
      </trkpt>
      <trkpt lat="45.23489" lon="0.92388">
        <ele>290.75</ele>
        <time>2015-06-07T09:06:20Z</time>
      </trkpt>
      <trkpt lat="45.23479" lon="0.92377">
        <ele>291.75</ele>
        <time>2015-06-07T09:06:23Z</time>
      </trkpt>
      <trkpt lat="45.2347" lon="0.92367">
        <ele>292</ele>
        <time>2015-06-07T09:06:25Z</time>
      </trkpt>
      <trkpt lat="45.23463" lon="0.92359">
        <ele>291.5</ele>
        <time>2015-06-07T09:06:27Z</time>
      </trkpt>
      <trkpt lat="45.23455" lon="0.92351">
        <ele>291</ele>
        <time>2015-06-07T09:06:32Z</time>
      </trkpt>
      <trkpt lat="45.23449" lon="0.92342">
        <ele>289.25</ele>
        <time>2015-06-07T09:06:52Z</time>
      </trkpt>
      <trkpt lat="45.23449" lon="0.92329">
        <ele>290</ele>
        <time>2015-06-07T09:06:57Z</time>
      </trkpt>
      <trkpt lat="45.2345" lon="0.92316">
        <ele>290</ele>
        <time>2015-06-07T09:07:02Z</time>
      </trkpt>
      <trkpt lat="45.23454" lon="0.92304">
        <ele>289.75</ele>
        <time>2015-06-07T09:07:06Z</time>
      </trkpt>
      <trkpt lat="45.2346" lon="0.92291">
        <ele>288.5</ele>
        <time>2015-06-07T09:07:10Z</time>
      </trkpt>
      <trkpt lat="45.23464" lon="0.92279">
        <ele>288.5</ele>
        <time>2015-06-07T09:07:13Z</time>
      </trkpt>
      <trkpt lat="45.2347" lon="0.92264">
        <ele>288</ele>
        <time>2015-06-07T09:07:18Z</time>
      </trkpt>
      <trkpt lat="45.23475" lon="0.92253">
        <ele>286.75</ele>
        <time>2015-06-07T09:07:21Z</time>
      </trkpt>
      <trkpt lat="45.23482" lon="0.92236">
        <ele>285.25</ele>
        <time>2015-06-07T09:07:24Z</time>
      </trkpt>
      <trkpt lat="45.23487" lon="0.92222">
        <ele>284.5</ele>
        <time>2015-06-07T09:07:26Z</time>
      </trkpt>
      <trkpt lat="45.23491" lon="0.92207">
        <ele>283.5</ele>
        <time>2015-06-07T09:07:28Z</time>
      </trkpt>
      <trkpt lat="45.23492" lon="0.92192">
        <ele>282.5</ele>
        <time>2015-06-07T09:07:30Z</time>
      </trkpt>
      <trkpt lat="45.23493" lon="0.92176">
        <ele>281.25</ele>
        <time>2015-06-07T09:07:32Z</time>
      </trkpt>
      <trkpt lat="45.23493" lon="0.92157">
        <ele>280.25</ele>
        <time>2015-06-07T09:07:34Z</time>
      </trkpt>
      <trkpt lat="45.23491" lon="0.9214">
        <ele>279.5</ele>
        <time>2015-06-07T09:07:36Z</time>
      </trkpt>
      <trkpt lat="45.23492" lon="0.92123">
        <ele>278.75</ele>
        <time>2015-06-07T09:07:38Z</time>
      </trkpt>
      <trkpt lat="45.23495" lon="0.92105">
        <ele>278.5</ele>
        <time>2015-06-07T09:07:40Z</time>
      </trkpt>
      <trkpt lat="45.23499" lon="0.92085">
        <ele>278.25</ele>
        <time>2015-06-07T09:07:42Z</time>
      </trkpt>
      <trkpt lat="45.23507" lon="0.92063">
        <ele>277.25</ele>
        <time>2015-06-07T09:07:44Z</time>
      </trkpt>
      <trkpt lat="45.23518" lon="0.92041">
        <ele>276</ele>
        <time>2015-06-07T09:07:46Z</time>
      </trkpt>
      <trkpt lat="45.23525" lon="0.92029">
        <ele>275.25</ele>
        <time>2015-06-07T09:07:47Z</time>
      </trkpt>
      <trkpt lat="45.23538" lon="0.92016">
        <ele>273.5</ele>
        <time>2015-06-07T09:07:50Z</time>
      </trkpt>
      <trkpt lat="45.2355" lon="0.92014">
        <ele>271.75</ele>
        <time>2015-06-07T09:07:53Z</time>
      </trkpt>
      <trkpt lat="45.2356" lon="0.92024">
        <ele>270.25</ele>
        <time>2015-06-07T09:07:56Z</time>
      </trkpt>
      <trkpt lat="45.23567" lon="0.92032">
        <ele>269.5</ele>
        <time>2015-06-07T09:07:58Z</time>
      </trkpt>
      <trkpt lat="45.23575" lon="0.92039">
        <ele>268.75</ele>
        <time>2015-06-07T09:08:00Z</time>
      </trkpt>
      <trkpt lat="45.23585" lon="0.9205">
        <ele>267.5</ele>
        <time>2015-06-07T09:08:03Z</time>
      </trkpt>
      <trkpt lat="45.23595" lon="0.9206">
        <ele>267</ele>
        <time>2015-06-07T09:08:06Z</time>
      </trkpt>
      <trkpt lat="45.23603" lon="0.9207">
        <ele>266.75</ele>
        <time>2015-06-07T09:08:09Z</time>
      </trkpt>
      <trkpt lat="45.23611" lon="0.92079">
        <ele>266</ele>
        <time>2015-06-07T09:08:12Z</time>
      </trkpt>
      <trkpt lat="45.23619" lon="0.92089">
        <ele>265.5</ele>
        <time>2015-06-07T09:08:16Z</time>
      </trkpt>
      <trkpt lat="45.23626" lon="0.92099">
        <ele>265</ele>
        <time>2015-06-07T09:08:21Z</time>
      </trkpt>
      <trkpt lat="45.23633" lon="0.92109">
        <ele>266</ele>
        <time>2015-06-07T09:08:28Z</time>
      </trkpt>
      <trkpt lat="45.23639" lon="0.92122">
        <ele>266.25</ele>
        <time>2015-06-07T09:08:33Z</time>
      </trkpt>
      <trkpt lat="45.23646" lon="0.92131">
        <ele>266.5</ele>
        <time>2015-06-07T09:08:37Z</time>
      </trkpt>
      <trkpt lat="45.23654" lon="0.92141">
        <ele>267.75</ele>
        <time>2015-06-07T09:08:42Z</time>
      </trkpt>
      <trkpt lat="45.23661" lon="0.92151">
        <ele>269</ele>
        <time>2015-06-07T09:08:47Z</time>
      </trkpt>
      <trkpt lat="45.23668" lon="0.9216">
        <ele>270.75</ele>
        <time>2015-06-07T09:08:51Z</time>
      </trkpt>
      <trkpt lat="45.23676" lon="0.92171">
        <ele>271.5</ele>
        <time>2015-06-07T09:08:54Z</time>
      </trkpt>
      <trkpt lat="45.23685" lon="0.92182">
        <ele>271.25</ele>
        <time>2015-06-07T09:08:57Z</time>
      </trkpt>
      <trkpt lat="45.23694" lon="0.92195">
        <ele>271.25</ele>
        <time>2015-06-07T09:08:59Z</time>
      </trkpt>
      <trkpt lat="45.23702" lon="0.92211">
        <ele>271.25</ele>
        <time>2015-06-07T09:09:01Z</time>
      </trkpt>
      <trkpt lat="45.23711" lon="0.9223">
        <ele>271</ele>
        <time>2015-06-07T09:09:03Z</time>
      </trkpt>
      <trkpt lat="45.23716" lon="0.92241">
        <ele>271.25</ele>
        <time>2015-06-07T09:09:04Z</time>
      </trkpt>
      <trkpt lat="45.23723" lon="0.92254">
        <ele>271.25</ele>
        <time>2015-06-07T09:09:05Z</time>
      </trkpt>
      <trkpt lat="45.2373" lon="0.92269">
        <ele>270.75</ele>
        <time>2015-06-07T09:09:06Z</time>
      </trkpt>
      <trkpt lat="45.23736" lon="0.92282">
        <ele>270.25</ele>
        <time>2015-06-07T09:09:07Z</time>
      </trkpt>
      <trkpt lat="45.2374" lon="0.92295">
        <ele>269.25</ele>
        <time>2015-06-07T09:09:08Z</time>
      </trkpt>
      <trkpt lat="45.23738" lon="0.92312">
        <ele>268.25</ele>
        <time>2015-06-07T09:09:10Z</time>
      </trkpt>
      <trkpt lat="45.23732" lon="0.92328">
        <ele>267.75</ele>
        <time>2015-06-07T09:09:13Z</time>
      </trkpt>
      <trkpt lat="45.23727" lon="0.9234">
        <ele>267</ele>
        <time>2015-06-07T09:09:16Z</time>
      </trkpt>
      <trkpt lat="45.23726" lon="0.92353">
        <ele>268</ele>
        <time>2015-06-07T09:09:20Z</time>
      </trkpt>
      <trkpt lat="45.23727" lon="0.92367">
        <ele>270.5</ele>
        <time>2015-06-07T09:09:25Z</time>
      </trkpt>
      <trkpt lat="45.23729" lon="0.9238">
        <ele>271.75</ele>
        <time>2015-06-07T09:09:33Z</time>
      </trkpt>
      <trkpt lat="45.23728" lon="0.92393">
        <ele>271.5</ele>
        <time>2015-06-07T09:09:39Z</time>
      </trkpt>
      <trkpt lat="45.23722" lon="0.92404">
        <ele>269.5</ele>
        <time>2015-06-07T09:09:44Z</time>
      </trkpt>
      <trkpt lat="45.23713" lon="0.92412">
        <ele>266.75</ele>
        <time>2015-06-07T09:09:49Z</time>
      </trkpt>
      <trkpt lat="45.23703" lon="0.92416">
        <ele>265.25</ele>
        <time>2015-06-07T09:09:54Z</time>
      </trkpt>
      <trkpt lat="45.23692" lon="0.92414">
        <ele>266.5</ele>
        <time>2015-06-07T09:09:59Z</time>
      </trkpt>
      <trkpt lat="45.23682" lon="0.92411">
        <ele>268.5</ele>
        <time>2015-06-07T09:10:03Z</time>
      </trkpt>
      <trkpt lat="45.23673" lon="0.92408">
        <ele>270</ele>
        <time>2015-06-07T09:10:09Z</time>
      </trkpt>
      <trkpt lat="45.23664" lon="0.92405">
        <ele>270.25</ele>
        <time>2015-06-07T09:10:14Z</time>
      </trkpt>
      <trkpt lat="45.23655" lon="0.92399">
        <ele>270.5</ele>
        <time>2015-06-07T09:10:20Z</time>
      </trkpt>
      <trkpt lat="45.23646" lon="0.92394">
        <ele>273</ele>
        <time>2015-06-07T09:10:28Z</time>
      </trkpt>
      <trkpt lat="45.23635" lon="0.92393">
        <ele>273.5</ele>
        <time>2015-06-07T09:10:34Z</time>
      </trkpt>
      <trkpt lat="45.23625" lon="0.92391">
        <ele>276</ele>
        <time>2015-06-07T09:10:41Z</time>
      </trkpt>
      <trkpt lat="45.23615" lon="0.9239">
        <ele>277</ele>
        <time>2015-06-07T09:10:48Z</time>
      </trkpt>
      <trkpt lat="45.23605" lon="0.92389">
        <ele>277.5</ele>
        <time>2015-06-07T09:10:53Z</time>
      </trkpt>
      <trkpt lat="45.23594" lon="0.9239">
        <ele>277</ele>
        <time>2015-06-07T09:11:00Z</time>
      </trkpt>
      <trkpt lat="45.23584" lon="0.92391">
        <ele>278.5</ele>
        <time>2015-06-07T09:11:06Z</time>
      </trkpt>
      <trkpt lat="45.23575" lon="0.92396">
        <ele>279.5</ele>
        <time>2015-06-07T09:11:13Z</time>
      </trkpt>
      <trkpt lat="45.23568" lon="0.92405">
        <ele>280</ele>
        <time>2015-06-07T09:11:22Z</time>
      </trkpt>
      <trkpt lat="45.23561" lon="0.92414">
        <ele>281</ele>
        <time>2015-06-07T09:11:28Z</time>
      </trkpt>
      <trkpt lat="45.2355" lon="0.92418">
        <ele>280.75</ele>
        <time>2015-06-07T09:11:33Z</time>
      </trkpt>
      <trkpt lat="45.23539" lon="0.92419">
        <ele>281.5</ele>
        <time>2015-06-07T09:11:36Z</time>
      </trkpt>
      <trkpt lat="45.23527" lon="0.92416">
        <ele>282.75</ele>
        <time>2015-06-07T09:11:39Z</time>
      </trkpt>
      <trkpt lat="45.23517" lon="0.92411">
        <ele>283.75</ele>
        <time>2015-06-07T09:11:42Z</time>
      </trkpt>
      <trkpt lat="45.23507" lon="0.92403">
        <ele>284</ele>
        <time>2015-06-07T09:11:45Z</time>
      </trkpt>
      <trkpt lat="45.23499" lon="0.92396">
        <ele>284.5</ele>
        <time>2015-06-07T09:11:47Z</time>
      </trkpt>
      <trkpt lat="45.23489" lon="0.92388">
        <ele>285</ele>
        <time>2015-06-07T09:11:49Z</time>
      </trkpt>
      <trkpt lat="45.2348" lon="0.9238">
        <ele>285</ele>
        <time>2015-06-07T09:11:52Z</time>
      </trkpt>
      <trkpt lat="45.23471" lon="0.92371">
        <ele>285.25</ele>
        <time>2015-06-07T09:11:54Z</time>
      </trkpt>
      <trkpt lat="45.23463" lon="0.92362">
        <ele>285.75</ele>
        <time>2015-06-07T09:11:56Z</time>
      </trkpt>
      <trkpt lat="45.23456" lon="0.92354">
        <ele>286</ele>
        <time>2015-06-07T09:11:58Z</time>
      </trkpt>
      <trkpt lat="45.23448" lon="0.92346">
        <ele>285.75</ele>
        <time>2015-06-07T09:12:01Z</time>
      </trkpt>
      <trkpt lat="45.23439" lon="0.92345">
        <ele>285</ele>
        <time>2015-06-07T09:12:18Z</time>
      </trkpt>
      <trkpt lat="45.23432" lon="0.92353">
        <ele>285.5</ele>
        <time>2015-06-07T09:12:25Z</time>
      </trkpt>
      <trkpt lat="45.23425" lon="0.92363">
        <ele>286.25</ele>
        <time>2015-06-07T09:12:30Z</time>
      </trkpt>
      <trkpt lat="45.23418" lon="0.92371">
        <ele>287</ele>
        <time>2015-06-07T09:12:35Z</time>
      </trkpt>
      <trkpt lat="45.23409" lon="0.9238">
        <ele>286.25</ele>
        <time>2015-06-07T09:12:39Z</time>
      </trkpt>
      <trkpt lat="45.23398" lon="0.92388">
        <ele>286</ele>
        <time>2015-06-07T09:12:42Z</time>
      </trkpt>
      <trkpt lat="45.2339" lon="0.92395">
        <ele>287.5</ele>
        <time>2015-06-07T09:12:46Z</time>
      </trkpt>
      <trkpt lat="45.23387" lon="0.9241">
        <ele>289.25</ele>
        <time>2015-06-07T09:12:56Z</time>
      </trkpt>
      <trkpt lat="45.23379" lon="0.9242">
        <ele>288.5</ele>
        <time>2015-06-07T09:13:00Z</time>
      </trkpt>
      <trkpt lat="45.23371" lon="0.92428">
        <ele>287.5</ele>
        <time>2015-06-07T09:13:03Z</time>
      </trkpt>
      <trkpt lat="45.23363" lon="0.92438">
        <ele>285.5</ele>
        <time>2015-06-07T09:13:07Z</time>
      </trkpt>
      <trkpt lat="45.23357" lon="0.92447">
        <ele>284.25</ele>
        <time>2015-06-07T09:13:10Z</time>
      </trkpt>
      <trkpt lat="45.23348" lon="0.92458">
        <ele>283</ele>
        <time>2015-06-07T09:13:14Z</time>
      </trkpt>
      <trkpt lat="45.23338" lon="0.92467">
        <ele>281.5</ele>
        <time>2015-06-07T09:13:18Z</time>
      </trkpt>
      <trkpt lat="45.23329" lon="0.92477">
        <ele>281</ele>
        <time>2015-06-07T09:13:21Z</time>
      </trkpt>
      <trkpt lat="45.23321" lon="0.92488">
        <ele>280.5</ele>
        <time>2015-06-07T09:13:25Z</time>
      </trkpt>
      <trkpt lat="45.23314" lon="0.92497">
        <ele>280</ele>
        <time>2015-06-07T09:13:28Z</time>
      </trkpt>
      <trkpt lat="45.23305" lon="0.92505">
        <ele>279.5</ele>
        <time>2015-06-07T09:13:31Z</time>
      </trkpt>
      <trkpt lat="45.23297" lon="0.92515">
        <ele>277.75</ele>
        <time>2015-06-07T09:13:35Z</time>
      </trkpt>
      <trkpt lat="45.23286" lon="0.92522">
        <ele>277.75</ele>
        <time>2015-06-07T09:13:39Z</time>
      </trkpt>
      <trkpt lat="45.23278" lon="0.92528">
        <ele>278</ele>
        <time>2015-06-07T09:13:43Z</time>
      </trkpt>
      <trkpt lat="45.2327" lon="0.92533">
        <ele>278.75</ele>
        <time>2015-06-07T09:13:47Z</time>
      </trkpt>
      <trkpt lat="45.2326" lon="0.92537">
        <ele>279</ele>
        <time>2015-06-07T09:13:50Z</time>
      </trkpt>
      <trkpt lat="45.2325" lon="0.92542">
        <ele>278</ele>
        <time>2015-06-07T09:13:54Z</time>
      </trkpt>
      <trkpt lat="45.23242" lon="0.92549">
        <ele>276.5</ele>
        <time>2015-06-07T09:13:59Z</time>
      </trkpt>
      <trkpt lat="45.23234" lon="0.92558">
        <ele>275.25</ele>
        <time>2015-06-07T09:14:03Z</time>
      </trkpt>
      <trkpt lat="45.23223" lon="0.92567">
        <ele>275.25</ele>
        <time>2015-06-07T09:14:07Z</time>
      </trkpt>
      <trkpt lat="45.23212" lon="0.92571">
        <ele>275.25</ele>
        <time>2015-06-07T09:14:10Z</time>
      </trkpt>
      <trkpt lat="45.232" lon="0.92574">
        <ele>274.75</ele>
        <time>2015-06-07T09:14:13Z</time>
      </trkpt>
      <trkpt lat="45.23191" lon="0.92579">
        <ele>274</ele>
        <time>2015-06-07T09:14:17Z</time>
      </trkpt>
      <trkpt lat="45.23181" lon="0.92583">
        <ele>272.5</ele>
        <time>2015-06-07T09:14:25Z</time>
      </trkpt>
      <trkpt lat="45.23172" lon="0.92587">
        <ele>270.75</ele>
        <time>2015-06-07T09:14:35Z</time>
      </trkpt>
      <trkpt lat="45.23162" lon="0.92592">
        <ele>269</ele>
        <time>2015-06-07T09:14:43Z</time>
      </trkpt>
      <trkpt lat="45.23153" lon="0.92599">
        <ele>269</ele>
        <time>2015-06-07T09:14:47Z</time>
      </trkpt>
      <trkpt lat="45.23141" lon="0.92605">
        <ele>269</ele>
        <time>2015-06-07T09:14:50Z</time>
      </trkpt>
      <trkpt lat="45.2313" lon="0.9261">
        <ele>268.5</ele>
        <time>2015-06-07T09:14:53Z</time>
      </trkpt>
      <trkpt lat="45.23121" lon="0.92615">
        <ele>267.75</ele>
        <time>2015-06-07T09:14:56Z</time>
      </trkpt>
      <trkpt lat="45.2311" lon="0.92621">
        <ele>267</ele>
        <time>2015-06-07T09:15:04Z</time>
      </trkpt>
      <trkpt lat="45.23103" lon="0.92631">
        <ele>266.25</ele>
        <time>2015-06-07T09:15:08Z</time>
      </trkpt>
      <trkpt lat="45.23095" lon="0.9264">
        <ele>266</ele>
        <time>2015-06-07T09:15:12Z</time>
      </trkpt>
      <trkpt lat="45.23088" lon="0.92648">
        <ele>265.25</ele>
        <time>2015-06-07T09:15:15Z</time>
      </trkpt>
      <trkpt lat="45.23082" lon="0.92658">
        <ele>264</ele>
        <time>2015-06-07T09:15:19Z</time>
      </trkpt>
      <trkpt lat="45.23074" lon="0.92672">
        <ele>263.25</ele>
        <time>2015-06-07T09:15:23Z</time>
      </trkpt>
      <trkpt lat="45.23067" lon="0.92685">
        <ele>262.25</ele>
        <time>2015-06-07T09:15:28Z</time>
      </trkpt>
      <trkpt lat="45.23061" lon="0.92699">
        <ele>261.25</ele>
        <time>2015-06-07T09:15:32Z</time>
      </trkpt>
      <trkpt lat="45.23056" lon="0.92712">
        <ele>260</ele>
        <time>2015-06-07T09:15:36Z</time>
      </trkpt>
      <trkpt lat="45.23049" lon="0.92724">
        <ele>259.75</ele>
        <time>2015-06-07T09:15:40Z</time>
      </trkpt>
      <trkpt lat="45.23042" lon="0.92734">
        <ele>257.75</ele>
        <time>2015-06-07T09:15:44Z</time>
      </trkpt>
      <trkpt lat="45.23034" lon="0.92744">
        <ele>254.5</ele>
        <time>2015-06-07T09:15:48Z</time>
      </trkpt>
      <trkpt lat="45.23026" lon="0.92756">
        <ele>251.75</ele>
        <time>2015-06-07T09:15:51Z</time>
      </trkpt>
      <trkpt lat="45.23019" lon="0.92767">
        <ele>249</ele>
        <time>2015-06-07T09:15:55Z</time>
      </trkpt>
      <trkpt lat="45.23013" lon="0.92776">
        <ele>246</ele>
        <time>2015-06-07T09:15:59Z</time>
      </trkpt>
      <trkpt lat="45.23005" lon="0.92786">
        <ele>244.5</ele>
        <time>2015-06-07T09:16:03Z</time>
      </trkpt>
      <trkpt lat="45.22997" lon="0.92795">
        <ele>242.5</ele>
        <time>2015-06-07T09:16:06Z</time>
      </trkpt>
      <trkpt lat="45.2299" lon="0.92807">
        <ele>240.5</ele>
        <time>2015-06-07T09:16:10Z</time>
      </trkpt>
      <trkpt lat="45.22983" lon="0.92821">
        <ele>240</ele>
        <time>2015-06-07T09:16:14Z</time>
      </trkpt>
      <trkpt lat="45.22977" lon="0.92835">
        <ele>241.5</ele>
        <time>2015-06-07T09:16:17Z</time>
      </trkpt>
      <trkpt lat="45.22971" lon="0.92848">
        <ele>243</ele>
        <time>2015-06-07T09:16:19Z</time>
      </trkpt>
      <trkpt lat="45.22965" lon="0.9286">
        <ele>244</ele>
        <time>2015-06-07T09:16:21Z</time>
      </trkpt>
      <trkpt lat="45.2296" lon="0.92871">
        <ele>245.75</ele>
        <time>2015-06-07T09:16:24Z</time>
      </trkpt>
      <trkpt lat="45.22954" lon="0.92882">
        <ele>247</ele>
        <time>2015-06-07T09:16:29Z</time>
      </trkpt>
      <trkpt lat="45.22947" lon="0.9289">
        <ele>250</ele>
        <time>2015-06-07T09:16:47Z</time>
      </trkpt>
      <trkpt lat="45.2294" lon="0.92898">
        <ele>249</ele>
        <time>2015-06-07T09:17:16Z</time>
      </trkpt>
      <trkpt lat="45.2295" lon="0.92892">
        <ele>239</ele>
        <time>2015-06-07T09:17:32Z</time>
      </trkpt>
      <trkpt lat="45.2296" lon="0.92889">
        <ele>238</ele>
        <time>2015-06-07T09:17:35Z</time>
      </trkpt>
      <trkpt lat="45.22971" lon="0.92885">
        <ele>238</ele>
        <time>2015-06-07T09:17:38Z</time>
      </trkpt>
      <trkpt lat="45.22982" lon="0.92883">
        <ele>238</ele>
        <time>2015-06-07T09:17:41Z</time>
      </trkpt>
      <trkpt lat="45.22994" lon="0.92883">
        <ele>237.5</ele>
        <time>2015-06-07T09:17:44Z</time>
      </trkpt>
      <trkpt lat="45.23003" lon="0.92887">
        <ele>236.75</ele>
        <time>2015-06-07T09:17:47Z</time>
      </trkpt>
      <trkpt lat="45.23014" lon="0.92895">
        <ele>236</ele>
        <time>2015-06-07T09:17:50Z</time>
      </trkpt>
      <trkpt lat="45.23024" lon="0.92899">
        <ele>235.75</ele>
        <time>2015-06-07T09:17:52Z</time>
      </trkpt>
      <trkpt lat="45.23034" lon="0.92903">
        <ele>235.25</ele>
        <time>2015-06-07T09:17:54Z</time>
      </trkpt>
      <trkpt lat="45.23044" lon="0.92907">
        <ele>234.5</ele>
        <time>2015-06-07T09:17:56Z</time>
      </trkpt>
      <trkpt lat="45.23053" lon="0.9291">
        <ele>234</ele>
        <time>2015-06-07T09:17:58Z</time>
      </trkpt>
      <trkpt lat="45.23062" lon="0.9291">
        <ele>234.25</ele>
        <time>2015-06-07T09:18:00Z</time>
      </trkpt>
      <trkpt lat="45.23073" lon="0.9291">
        <ele>234.75</ele>
        <time>2015-06-07T09:18:03Z</time>
      </trkpt>
      <trkpt lat="45.23085" lon="0.9291">
        <ele>235</ele>
        <time>2015-06-07T09:18:06Z</time>
      </trkpt>
      <trkpt lat="45.23095" lon="0.92912">
        <ele>234</ele>
        <time>2015-06-07T09:18:09Z</time>
      </trkpt>
      <trkpt lat="45.23106" lon="0.92914">
        <ele>232.25</ele>
        <time>2015-06-07T09:18:13Z</time>
      </trkpt>
      <trkpt lat="45.23116" lon="0.92912">
        <ele>232</ele>
        <time>2015-06-07T09:18:16Z</time>
      </trkpt>
      <trkpt lat="45.23129" lon="0.9291">
        <ele>231.5</ele>
        <time>2015-06-07T09:18:19Z</time>
      </trkpt>
      <trkpt lat="45.23142" lon="0.92907">
        <ele>231</ele>
        <time>2015-06-07T09:18:22Z</time>
      </trkpt>
      <trkpt lat="45.23151" lon="0.92906">
        <ele>231</ele>
        <time>2015-06-07T09:18:24Z</time>
      </trkpt>
      <trkpt lat="45.23164" lon="0.92904">
        <ele>231</ele>
        <time>2015-06-07T09:18:27Z</time>
      </trkpt>
      <trkpt lat="45.23173" lon="0.92902">
        <ele>231.5</ele>
        <time>2015-06-07T09:18:29Z</time>
      </trkpt>
      <trkpt lat="45.23183" lon="0.92899">
        <ele>232</ele>
        <time>2015-06-07T09:18:31Z</time>
      </trkpt>
      <trkpt lat="45.23196" lon="0.92894">
        <ele>232.25</ele>
        <time>2015-06-07T09:18:35Z</time>
      </trkpt>
      <trkpt lat="45.23208" lon="0.92891">
        <ele>232</ele>
        <time>2015-06-07T09:18:38Z</time>
      </trkpt>
      <trkpt lat="45.23218" lon="0.92898">
        <ele>232.75</ele>
        <time>2015-06-07T09:18:42Z</time>
      </trkpt>
      <trkpt lat="45.23223" lon="0.9291">
        <ele>233.75</ele>
        <time>2015-06-07T09:18:47Z</time>
      </trkpt>
      <trkpt lat="45.23228" lon="0.92921">
        <ele>236.5</ele>
        <time>2015-06-07T09:18:53Z</time>
      </trkpt>
      <trkpt lat="45.23234" lon="0.92934">
        <ele>239</ele>
        <time>2015-06-07T09:18:59Z</time>
      </trkpt>
      <trkpt lat="45.23241" lon="0.92944">
        <ele>240.75</ele>
        <time>2015-06-07T09:19:03Z</time>
      </trkpt>
      <trkpt lat="45.23249" lon="0.92956">
        <ele>242.75</ele>
        <time>2015-06-07T09:19:06Z</time>
      </trkpt>
      <trkpt lat="45.23258" lon="0.92967">
        <ele>244.75</ele>
        <time>2015-06-07T09:19:09Z</time>
      </trkpt>
      <trkpt lat="45.23265" lon="0.92976">
        <ele>247</ele>
        <time>2015-06-07T09:19:14Z</time>
      </trkpt>
      <trkpt lat="45.23272" lon="0.92984">
        <ele>248.75</ele>
        <time>2015-06-07T09:19:18Z</time>
      </trkpt>
      <trkpt lat="45.23282" lon="0.92993">
        <ele>249.75</ele>
        <time>2015-06-07T09:19:22Z</time>
      </trkpt>
      <trkpt lat="45.23292" lon="0.93">
        <ele>250</ele>
        <time>2015-06-07T09:19:25Z</time>
      </trkpt>
      <trkpt lat="45.23302" lon="0.93002">
        <ele>250</ele>
        <time>2015-06-07T09:19:28Z</time>
      </trkpt>
      <trkpt lat="45.23311" lon="0.93003">
        <ele>249</ele>
        <time>2015-06-07T09:19:31Z</time>
      </trkpt>
      <trkpt lat="45.23321" lon="0.93005">
        <ele>247</ele>
        <time>2015-06-07T09:19:37Z</time>
      </trkpt>
      <trkpt lat="45.23328" lon="0.93013">
        <ele>242.25</ele>
        <time>2015-06-07T09:19:50Z</time>
      </trkpt>
      <trkpt lat="45.23336" lon="0.93018">
        <ele>240</ele>
        <time>2015-06-07T09:20:01Z</time>
      </trkpt>
      <trkpt lat="45.23343" lon="0.93026">
        <ele>240</ele>
        <time>2015-06-07T09:20:06Z</time>
      </trkpt>
      <trkpt lat="45.23355" lon="0.93022">
        <ele>239.5</ele>
        <time>2015-06-07T09:21:01Z</time>
      </trkpt>
      <trkpt lat="45.23367" lon="0.93018">
        <ele>240</ele>
        <time>2015-06-07T09:21:03Z</time>
      </trkpt>
      <trkpt lat="45.23381" lon="0.93017">
        <ele>240</ele>
        <time>2015-06-07T09:21:05Z</time>
      </trkpt>
      <trkpt lat="45.23395" lon="0.93015">
        <ele>239.5</ele>
        <time>2015-06-07T09:21:07Z</time>
      </trkpt>
      <trkpt lat="45.23408" lon="0.93015">
        <ele>239</ele>
        <time>2015-06-07T09:21:09Z</time>
      </trkpt>
      <trkpt lat="45.23419" lon="0.93016">
        <ele>239</ele>
        <time>2015-06-07T09:21:11Z</time>
      </trkpt>
      <trkpt lat="45.23431" lon="0.93015">
        <ele>239</ele>
        <time>2015-06-07T09:21:14Z</time>
      </trkpt>
      <trkpt lat="45.23445" lon="0.93012">
        <ele>239</ele>
        <time>2015-06-07T09:21:17Z</time>
      </trkpt>
      <trkpt lat="45.23454" lon="0.93011">
        <ele>239</ele>
        <time>2015-06-07T09:21:19Z</time>
      </trkpt>
      <trkpt lat="45.23463" lon="0.93009">
        <ele>239</ele>
        <time>2015-06-07T09:21:21Z</time>
      </trkpt>
      <trkpt lat="45.23473" lon="0.93007">
        <ele>239</ele>
        <time>2015-06-07T09:21:23Z</time>
      </trkpt>
      <trkpt lat="45.23484" lon="0.93003">
        <ele>239</ele>
        <time>2015-06-07T09:21:25Z</time>
      </trkpt>
      <trkpt lat="45.23496" lon="0.92998">
        <ele>239</ele>
        <time>2015-06-07T09:21:27Z</time>
      </trkpt>
      <trkpt lat="45.23509" lon="0.92991">
        <ele>239</ele>
        <time>2015-06-07T09:21:29Z</time>
      </trkpt>
      <trkpt lat="45.23522" lon="0.92983">
        <ele>239.5</ele>
        <time>2015-06-07T09:21:32Z</time>
      </trkpt>
      <trkpt lat="45.23534" lon="0.92977">
        <ele>240</ele>
        <time>2015-06-07T09:21:34Z</time>
      </trkpt>
      <trkpt lat="45.23544" lon="0.92973">
        <ele>240</ele>
        <time>2015-06-07T09:21:36Z</time>
      </trkpt>
      <trkpt lat="45.23552" lon="0.92968">
        <ele>240</ele>
        <time>2015-06-07T09:21:38Z</time>
      </trkpt>
      <trkpt lat="45.23562" lon="0.92959">
        <ele>239.75</ele>
        <time>2015-06-07T09:21:41Z</time>
      </trkpt>
      <trkpt lat="45.23572" lon="0.9295">
        <ele>239.75</ele>
        <time>2015-06-07T09:21:44Z</time>
      </trkpt>
      <trkpt lat="45.2358" lon="0.92943">
        <ele>240</ele>
        <time>2015-06-07T09:21:47Z</time>
      </trkpt>
      <trkpt lat="45.23591" lon="0.92936">
        <ele>240.5</ele>
        <time>2015-06-07T09:21:51Z</time>
      </trkpt>
      <trkpt lat="45.23598" lon="0.9293">
        <ele>241</ele>
        <time>2015-06-07T09:21:54Z</time>
      </trkpt>
      <trkpt lat="45.23606" lon="0.92923">
        <ele>241</ele>
        <time>2015-06-07T09:21:57Z</time>
      </trkpt>
      <trkpt lat="45.23617" lon="0.92913">
        <ele>242</ele>
        <time>2015-06-07T09:22:03Z</time>
      </trkpt>
      <trkpt lat="45.23626" lon="0.92903">
        <ele>243</ele>
        <time>2015-06-07T09:22:06Z</time>
      </trkpt>
      <trkpt lat="45.23633" lon="0.92894">
        <ele>243</ele>
        <time>2015-06-07T09:22:11Z</time>
      </trkpt>
      <trkpt lat="45.23637" lon="0.92882">
        <ele>242.75</ele>
        <time>2015-06-07T09:22:15Z</time>
      </trkpt>
      <trkpt lat="45.23642" lon="0.92871">
        <ele>243</ele>
        <time>2015-06-07T09:22:18Z</time>
      </trkpt>
      <trkpt lat="45.23646" lon="0.92857">
        <ele>242.75</ele>
        <time>2015-06-07T09:22:24Z</time>
      </trkpt>
      <trkpt lat="45.2365" lon="0.92845">
        <ele>243</ele>
        <time>2015-06-07T09:22:29Z</time>
      </trkpt>
      <trkpt lat="45.23656" lon="0.92834">
        <ele>244.5</ele>
        <time>2015-06-07T09:22:34Z</time>
      </trkpt>
      <trkpt lat="45.23661" lon="0.92822">
        <ele>245</ele>
        <time>2015-06-07T09:22:39Z</time>
      </trkpt>
      <trkpt lat="45.23666" lon="0.9281">
        <ele>246</ele>
        <time>2015-06-07T09:22:45Z</time>
      </trkpt>
      <trkpt lat="45.23671" lon="0.92797">
        <ele>246.75</ele>
        <time>2015-06-07T09:22:50Z</time>
      </trkpt>
      <trkpt lat="45.23677" lon="0.92788">
        <ele>248.25</ele>
        <time>2015-06-07T09:22:54Z</time>
      </trkpt>
      <trkpt lat="45.23685" lon="0.92776">
        <ele>249.5</ele>
        <time>2015-06-07T09:22:59Z</time>
      </trkpt>
      <trkpt lat="45.23691" lon="0.92767">
        <ele>251.25</ele>
        <time>2015-06-07T09:23:04Z</time>
      </trkpt>
      <trkpt lat="45.23698" lon="0.92758">
        <ele>252.25</ele>
        <time>2015-06-07T09:23:08Z</time>
      </trkpt>
      <trkpt lat="45.23706" lon="0.92749">
        <ele>252.25</ele>
        <time>2015-06-07T09:23:12Z</time>
      </trkpt>
      <trkpt lat="45.23711" lon="0.92737">
        <ele>252.5</ele>
        <time>2015-06-07T09:23:17Z</time>
      </trkpt>
      <trkpt lat="45.23717" lon="0.92724">
        <ele>253</ele>
        <time>2015-06-07T09:23:21Z</time>
      </trkpt>
      <trkpt lat="45.23724" lon="0.92711">
        <ele>253.5</ele>
        <time>2015-06-07T09:23:24Z</time>
      </trkpt>
      <trkpt lat="45.23732" lon="0.92698">
        <ele>254.25</ele>
        <time>2015-06-07T09:23:28Z</time>
      </trkpt>
      <trkpt lat="45.23738" lon="0.92688">
        <ele>255</ele>
        <time>2015-06-07T09:23:32Z</time>
      </trkpt>
      <trkpt lat="45.23744" lon="0.92675">
        <ele>254.25</ele>
        <time>2015-06-07T09:23:37Z</time>
      </trkpt>
      <trkpt lat="45.23749" lon="0.92664">
        <ele>254.75</ele>
        <time>2015-06-07T09:23:40Z</time>
      </trkpt>
      <trkpt lat="45.23757" lon="0.92652">
        <ele>254.5</ele>
        <time>2015-06-07T09:23:43Z</time>
      </trkpt>
      <trkpt lat="45.23765" lon="0.92638">
        <ele>255</ele>
        <time>2015-06-07T09:23:46Z</time>
      </trkpt>
      <trkpt lat="45.23775" lon="0.92628">
        <ele>255.75</ele>
        <time>2015-06-07T09:23:48Z</time>
      </trkpt>
      <trkpt lat="45.23788" lon="0.92621">
        <ele>256.25</ele>
        <time>2015-06-07T09:23:50Z</time>
      </trkpt>
      <trkpt lat="45.238" lon="0.92619">
        <ele>256.75</ele>
        <time>2015-06-07T09:23:52Z</time>
      </trkpt>
      <trkpt lat="45.23811" lon="0.92618">
        <ele>257</ele>
        <time>2015-06-07T09:23:54Z</time>
      </trkpt>
      <trkpt lat="45.2382" lon="0.9262">
        <ele>257</ele>
        <time>2015-06-07T09:23:56Z</time>
      </trkpt>
      <trkpt lat="45.23831" lon="0.92632">
        <ele>256.25</ele>
        <time>2015-06-07T09:24:00Z</time>
      </trkpt>
      <trkpt lat="45.23839" lon="0.92641">
        <ele>256</ele>
        <time>2015-06-07T09:24:04Z</time>
      </trkpt>
      <trkpt lat="45.23848" lon="0.92648">
        <ele>256</ele>
        <time>2015-06-07T09:24:07Z</time>
      </trkpt>
      <trkpt lat="45.23859" lon="0.92652">
        <ele>256</ele>
        <time>2015-06-07T09:24:12Z</time>
      </trkpt>
      <trkpt lat="45.23868" lon="0.92653">
        <ele>257</ele>
        <time>2015-06-07T09:24:19Z</time>
      </trkpt>
      <trkpt lat="45.23869" lon="0.92639">
        <ele>256.75</ele>
        <time>2015-06-07T09:24:26Z</time>
      </trkpt>
      <trkpt lat="45.23869" lon="0.92624">
        <ele>256.75</ele>
        <time>2015-06-07T09:24:31Z</time>
      </trkpt>
      <trkpt lat="45.23866" lon="0.92607">
        <ele>257.75</ele>
        <time>2015-06-07T09:24:36Z</time>
      </trkpt>
      <trkpt lat="45.23863" lon="0.92592">
        <ele>257.25</ele>
        <time>2015-06-07T09:24:40Z</time>
      </trkpt>
      <trkpt lat="45.23866" lon="0.92578">
        <ele>257.25</ele>
        <time>2015-06-07T09:24:43Z</time>
      </trkpt>
      <trkpt lat="45.23869" lon="0.92565">
        <ele>258</ele>
        <time>2015-06-07T09:24:47Z</time>
      </trkpt>
      <trkpt lat="45.23864" lon="0.92554">
        <ele>260.25</ele>
        <time>2015-06-07T09:24:54Z</time>
      </trkpt>
      <trkpt lat="45.23858" lon="0.92541">
        <ele>262</ele>
        <time>2015-06-07T09:25:00Z</time>
      </trkpt>
      <trkpt lat="45.23856" lon="0.92528">
        <ele>262.5</ele>
        <time>2015-06-07T09:25:04Z</time>
      </trkpt>
      <trkpt lat="45.23853" lon="0.92515">
        <ele>263</ele>
        <time>2015-06-07T09:25:09Z</time>
      </trkpt>
      <trkpt lat="45.2385" lon="0.925">
        <ele>260.75</ele>
        <time>2015-06-07T09:25:13Z</time>
      </trkpt>
      <trkpt lat="45.2385" lon="0.92487">
        <ele>257.75</ele>
        <time>2015-06-07T09:25:23Z</time>
      </trkpt>
      <trkpt lat="45.23854" lon="0.92475">
        <ele>259</ele>
        <time>2015-06-07T09:25:33Z</time>
      </trkpt>
      <trkpt lat="45.23862" lon="0.92466">
        <ele>259</ele>
        <time>2015-06-07T09:25:41Z</time>
      </trkpt>
      <trkpt lat="45.23874" lon="0.92461">
        <ele>260</ele>
        <time>2015-06-07T09:25:45Z</time>
      </trkpt>
      <trkpt lat="45.23886" lon="0.92455">
        <ele>261.25</ele>
        <time>2015-06-07T09:25:49Z</time>
      </trkpt>
      <trkpt lat="45.23897" lon="0.92449">
        <ele>262</ele>
        <time>2015-06-07T09:25:52Z</time>
      </trkpt>
      <trkpt lat="45.23909" lon="0.92445">
        <ele>262</ele>
        <time>2015-06-07T09:25:55Z</time>
      </trkpt>
      <trkpt lat="45.23919" lon="0.92441">
        <ele>262</ele>
        <time>2015-06-07T09:25:57Z</time>
      </trkpt>
      <trkpt lat="45.23931" lon="0.92435">
        <ele>262.25</ele>
        <time>2015-06-07T09:25:59Z</time>
      </trkpt>
      <trkpt lat="45.23943" lon="0.92431">
        <ele>262.75</ele>
        <time>2015-06-07T09:26:01Z</time>
      </trkpt>
      <trkpt lat="45.23954" lon="0.92428">
        <ele>263</ele>
        <time>2015-06-07T09:26:03Z</time>
      </trkpt>
      <trkpt lat="45.23965" lon="0.92427">
        <ele>263</ele>
        <time>2015-06-07T09:26:05Z</time>
      </trkpt>
      <trkpt lat="45.23975" lon="0.92425">
        <ele>263</ele>
        <time>2015-06-07T09:26:07Z</time>
      </trkpt>
      <trkpt lat="45.23986" lon="0.92422">
        <ele>262.5</ele>
        <time>2015-06-07T09:26:09Z</time>
      </trkpt>
      <trkpt lat="45.23998" lon="0.92418">
        <ele>262</ele>
        <time>2015-06-07T09:26:11Z</time>
      </trkpt>
      <trkpt lat="45.2401" lon="0.92415">
        <ele>262</ele>
        <time>2015-06-07T09:26:13Z</time>
      </trkpt>
      <trkpt lat="45.24021" lon="0.92412">
        <ele>262</ele>
        <time>2015-06-07T09:26:15Z</time>
      </trkpt>
      <trkpt lat="45.24032" lon="0.92411">
        <ele>261.5</ele>
        <time>2015-06-07T09:26:17Z</time>
      </trkpt>
      <trkpt lat="45.24044" lon="0.9241">
        <ele>261</ele>
        <time>2015-06-07T09:26:19Z</time>
      </trkpt>
      <trkpt lat="45.24056" lon="0.92411">
        <ele>260.75</ele>
        <time>2015-06-07T09:26:21Z</time>
      </trkpt>
      <trkpt lat="45.2407" lon="0.92417">
        <ele>260.5</ele>
        <time>2015-06-07T09:26:23Z</time>
      </trkpt>
      <trkpt lat="45.24085" lon="0.92423">
        <ele>260.75</ele>
        <time>2015-06-07T09:26:26Z</time>
      </trkpt>
      <trkpt lat="45.24097" lon="0.92424">
        <ele>261.25</ele>
        <time>2015-06-07T09:26:28Z</time>
      </trkpt>
      <trkpt lat="45.24111" lon="0.92424">
        <ele>261.25</ele>
        <time>2015-06-07T09:26:30Z</time>
      </trkpt>
      <trkpt lat="45.24126" lon="0.92427">
        <ele>260.75</ele>
        <time>2015-06-07T09:26:32Z</time>
      </trkpt>
      <trkpt lat="45.24143" lon="0.9243">
        <ele>260</ele>
        <time>2015-06-07T09:26:34Z</time>
      </trkpt>
      <trkpt lat="45.24159" lon="0.92436">
        <ele>259</ele>
        <time>2015-06-07T09:26:36Z</time>
      </trkpt>
      <trkpt lat="45.24175" lon="0.92442">
        <ele>258</ele>
        <time>2015-06-07T09:26:38Z</time>
      </trkpt>
      <trkpt lat="45.24192" lon="0.92448">
        <ele>257</ele>
        <time>2015-06-07T09:26:40Z</time>
      </trkpt>
      <trkpt lat="45.24208" lon="0.92453">
        <ele>256.25</ele>
        <time>2015-06-07T09:26:42Z</time>
      </trkpt>
      <trkpt lat="45.24223" lon="0.92456">
        <ele>255.5</ele>
        <time>2015-06-07T09:26:44Z</time>
      </trkpt>
      <trkpt lat="45.24238" lon="0.92458">
        <ele>254.5</ele>
        <time>2015-06-07T09:26:46Z</time>
      </trkpt>
      <trkpt lat="45.24253" lon="0.92458">
        <ele>253.75</ele>
        <time>2015-06-07T09:26:48Z</time>
      </trkpt>
      <trkpt lat="45.24269" lon="0.92457">
        <ele>253.25</ele>
        <time>2015-06-07T09:26:50Z</time>
      </trkpt>
      <trkpt lat="45.24284" lon="0.92456">
        <ele>252.75</ele>
        <time>2015-06-07T09:26:52Z</time>
      </trkpt>
      <trkpt lat="45.24295" lon="0.92454">
        <ele>252.25</ele>
        <time>2015-06-07T09:26:54Z</time>
      </trkpt>
      <trkpt lat="45.24306" lon="0.92448">
        <ele>251.5</ele>
        <time>2015-06-07T09:26:57Z</time>
      </trkpt>
      <trkpt lat="45.24317" lon="0.92438">
        <ele>251</ele>
        <time>2015-06-07T09:27:00Z</time>
      </trkpt>
      <trkpt lat="45.24327" lon="0.92431">
        <ele>250.5</ele>
        <time>2015-06-07T09:27:03Z</time>
      </trkpt>
      <trkpt lat="45.24338" lon="0.92428">
        <ele>249.5</ele>
        <time>2015-06-07T09:27:05Z</time>
      </trkpt>
      <trkpt lat="45.24349" lon="0.92428">
        <ele>248.5</ele>
        <time>2015-06-07T09:27:07Z</time>
      </trkpt>
      <trkpt lat="45.24359" lon="0.9243">
        <ele>247.25</ele>
        <time>2015-06-07T09:27:09Z</time>
      </trkpt>
      <trkpt lat="45.2437" lon="0.92431">
        <ele>246.75</ele>
        <time>2015-06-07T09:27:11Z</time>
      </trkpt>
      <trkpt lat="45.24381" lon="0.92429">
        <ele>247</ele>
        <time>2015-06-07T09:27:13Z</time>
      </trkpt>
      <trkpt lat="45.24391" lon="0.92424">
        <ele>246.75</ele>
        <time>2015-06-07T09:27:15Z</time>
      </trkpt>
      <trkpt lat="45.244" lon="0.92418">
        <ele>246.25</ele>
        <time>2015-06-07T09:27:17Z</time>
      </trkpt>
      <trkpt lat="45.24409" lon="0.92409">
        <ele>245.5</ele>
        <time>2015-06-07T09:27:19Z</time>
      </trkpt>
      <trkpt lat="45.24417" lon="0.92398">
        <ele>245</ele>
        <time>2015-06-07T09:27:21Z</time>
      </trkpt>
      <trkpt lat="45.24425" lon="0.92386">
        <ele>244.75</ele>
        <time>2015-06-07T09:27:23Z</time>
      </trkpt>
      <trkpt lat="45.24432" lon="0.92374">
        <ele>244.25</ele>
        <time>2015-06-07T09:27:25Z</time>
      </trkpt>
      <trkpt lat="45.24438" lon="0.92363">
        <ele>244</ele>
        <time>2015-06-07T09:27:27Z</time>
      </trkpt>
      <trkpt lat="45.24445" lon="0.92352">
        <ele>244</ele>
        <time>2015-06-07T09:27:29Z</time>
      </trkpt>
      <trkpt lat="45.24458" lon="0.92342">
        <ele>244</ele>
        <time>2015-06-07T09:27:31Z</time>
      </trkpt>
      <trkpt lat="45.24472" lon="0.92336">
        <ele>243.5</ele>
        <time>2015-06-07T09:27:34Z</time>
      </trkpt>
      <trkpt lat="45.24482" lon="0.92335">
        <ele>242.75</ele>
        <time>2015-06-07T09:27:36Z</time>
      </trkpt>
      <trkpt lat="45.24492" lon="0.92333">
        <ele>242</ele>
        <time>2015-06-07T09:27:38Z</time>
      </trkpt>
      <trkpt lat="45.24505" lon="0.92332">
        <ele>241</ele>
        <time>2015-06-07T09:27:40Z</time>
      </trkpt>
      <trkpt lat="45.24518" lon="0.9233">
        <ele>240.25</ele>
        <time>2015-06-07T09:27:42Z</time>
      </trkpt>
      <trkpt lat="45.24531" lon="0.92329">
        <ele>240</ele>
        <time>2015-06-07T09:27:44Z</time>
      </trkpt>
      <trkpt lat="45.24541" lon="0.92326">
        <ele>239.25</ele>
        <time>2015-06-07T09:27:47Z</time>
      </trkpt>
      <trkpt lat="45.2455" lon="0.92322">
        <ele>232</ele>
        <time>2015-06-07T09:30:06Z</time>
      </trkpt>
      <trkpt lat="45.24555" lon="0.92338">
        <ele>232.5</ele>
        <time>2015-06-07T09:30:11Z</time>
      </trkpt>
      <trkpt lat="45.24553" lon="0.92353">
        <ele>233</ele>
        <time>2015-06-07T09:30:15Z</time>
      </trkpt>
      <trkpt lat="45.24552" lon="0.92367">
        <ele>233.25</ele>
        <time>2015-06-07T09:30:18Z</time>
      </trkpt>
      <trkpt lat="45.24549" lon="0.9238">
        <ele>233</ele>
        <time>2015-06-07T09:30:21Z</time>
      </trkpt>
      <trkpt lat="45.24548" lon="0.92394">
        <ele>233</ele>
        <time>2015-06-07T09:30:24Z</time>
      </trkpt>
      <trkpt lat="45.2455" lon="0.92407">
        <ele>232.75</ele>
        <time>2015-06-07T09:30:26Z</time>
      </trkpt>
      <trkpt lat="45.24552" lon="0.92421">
        <ele>232.25</ele>
        <time>2015-06-07T09:30:28Z</time>
      </trkpt>
      <trkpt lat="45.24549" lon="0.92436">
        <ele>232</ele>
        <time>2015-06-07T09:30:31Z</time>
      </trkpt>
      <trkpt lat="45.24542" lon="0.92445">
        <ele>233.75</ele>
        <time>2015-06-07T09:30:38Z</time>
      </trkpt>
      <trkpt lat="45.24537" lon="0.92457">
        <ele>236</ele>
        <time>2015-06-07T09:30:49Z</time>
      </trkpt>
      <trkpt lat="45.24526" lon="0.92464">
        <ele>236</ele>
        <time>2015-06-07T09:30:52Z</time>
      </trkpt>
      <trkpt lat="45.24515" lon="0.92474">
        <ele>235.5</ele>
        <time>2015-06-07T09:30:55Z</time>
      </trkpt>
      <trkpt lat="45.24509" lon="0.92484">
        <ele>235</ele>
        <time>2015-06-07T09:30:57Z</time>
      </trkpt>
      <trkpt lat="45.24503" lon="0.92498">
        <ele>235.25</ele>
        <time>2015-06-07T09:30:59Z</time>
      </trkpt>
      <trkpt lat="45.245" lon="0.92513">
        <ele>235.75</ele>
        <time>2015-06-07T09:31:01Z</time>
      </trkpt>
      <trkpt lat="45.24497" lon="0.92528">
        <ele>235.75</ele>
        <time>2015-06-07T09:31:03Z</time>
      </trkpt>
      <trkpt lat="45.24493" lon="0.92542">
        <ele>234.75</ele>
        <time>2015-06-07T09:31:05Z</time>
      </trkpt>
      <trkpt lat="45.24489" lon="0.92554">
        <ele>233.5</ele>
        <time>2015-06-07T09:31:07Z</time>
      </trkpt>
      <trkpt lat="45.24487" lon="0.92567">
        <ele>232.5</ele>
        <time>2015-06-07T09:31:09Z</time>
      </trkpt>
      <trkpt lat="45.24486" lon="0.9258">
        <ele>232</ele>
        <time>2015-06-07T09:31:11Z</time>
      </trkpt>
      <trkpt lat="45.24485" lon="0.92593">
        <ele>232</ele>
        <time>2015-06-07T09:31:13Z</time>
      </trkpt>
      <trkpt lat="45.24485" lon="0.92605">
        <ele>231.5</ele>
        <time>2015-06-07T09:31:15Z</time>
      </trkpt>
      <trkpt lat="45.24485" lon="0.92622">
        <ele>231</ele>
        <time>2015-06-07T09:31:18Z</time>
      </trkpt>
      <trkpt lat="45.24485" lon="0.9264">
        <ele>231</ele>
        <time>2015-06-07T09:31:21Z</time>
      </trkpt>
      <trkpt lat="45.24485" lon="0.92656">
        <ele>230.75</ele>
        <time>2015-06-07T09:31:23Z</time>
      </trkpt>
      <trkpt lat="45.24484" lon="0.92671">
        <ele>230.75</ele>
        <time>2015-06-07T09:31:26Z</time>
      </trkpt>
      <trkpt lat="45.24482" lon="0.92684">
        <ele>231</ele>
        <time>2015-06-07T09:31:28Z</time>
      </trkpt>
      <trkpt lat="45.24477" lon="0.92698">
        <ele>230.5</ele>
        <time>2015-06-07T09:31:30Z</time>
      </trkpt>
      <trkpt lat="45.24471" lon="0.92713">
        <ele>230.25</ele>
        <time>2015-06-07T09:31:32Z</time>
      </trkpt>
      <trkpt lat="45.24466" lon="0.92726">
        <ele>230.75</ele>
        <time>2015-06-07T09:31:34Z</time>
      </trkpt>
      <trkpt lat="45.2446" lon="0.92741">
        <ele>231.5</ele>
        <time>2015-06-07T09:31:37Z</time>
      </trkpt>
      <trkpt lat="45.24454" lon="0.92757">
        <ele>232</ele>
        <time>2015-06-07T09:31:40Z</time>
      </trkpt>
      <trkpt lat="45.24449" lon="0.9277">
        <ele>232</ele>
        <time>2015-06-07T09:31:42Z</time>
      </trkpt>
      <trkpt lat="45.24442" lon="0.92784">
        <ele>232</ele>
        <time>2015-06-07T09:31:44Z</time>
      </trkpt>
      <trkpt lat="45.24435" lon="0.928">
        <ele>232.5</ele>
        <time>2015-06-07T09:31:46Z</time>
      </trkpt>
      <trkpt lat="45.24428" lon="0.92817">
        <ele>233</ele>
        <time>2015-06-07T09:31:48Z</time>
      </trkpt>
      <trkpt lat="45.24419" lon="0.92835">
        <ele>233</ele>
        <time>2015-06-07T09:31:50Z</time>
      </trkpt>
      <trkpt lat="45.24408" lon="0.92854">
        <ele>233</ele>
        <time>2015-06-07T09:31:52Z</time>
      </trkpt>
      <trkpt lat="45.24398" lon="0.92872">
        <ele>233</ele>
        <time>2015-06-07T09:31:54Z</time>
      </trkpt>
      <trkpt lat="45.24387" lon="0.92894">
        <ele>233</ele>
        <time>2015-06-07T09:31:56Z</time>
      </trkpt>
      <trkpt lat="45.24376" lon="0.92914">
        <ele>233</ele>
        <time>2015-06-07T09:31:58Z</time>
      </trkpt>
      <trkpt lat="45.24371" lon="0.92926">
        <ele>233</ele>
        <time>2015-06-07T09:31:59Z</time>
      </trkpt>
      <trkpt lat="45.24362" lon="0.92946">
        <ele>233.25</ele>
        <time>2015-06-07T09:32:01Z</time>
      </trkpt>
      <trkpt lat="45.24353" lon="0.92962">
        <ele>233.25</ele>
        <time>2015-06-07T09:32:04Z</time>
      </trkpt>
      <trkpt lat="45.24344" lon="0.92977">
        <ele>232.5</ele>
        <time>2015-06-07T09:32:06Z</time>
      </trkpt>
      <trkpt lat="45.24337" lon="0.92988">
        <ele>231.75</ele>
        <time>2015-06-07T09:32:08Z</time>
      </trkpt>
      <trkpt lat="45.24331" lon="0.92998">
        <ele>231.25</ele>
        <time>2015-06-07T09:32:10Z</time>
      </trkpt>
      <trkpt lat="45.24324" lon="0.93012">
        <ele>230.75</ele>
        <time>2015-06-07T09:32:13Z</time>
      </trkpt>
      <trkpt lat="45.24316" lon="0.93023">
        <ele>228.5</ele>
        <time>2015-06-07T09:32:17Z</time>
      </trkpt>
      <trkpt lat="45.24324" lon="0.93016">
        <ele>225.75</ele>
        <time>2015-06-07T09:32:25Z</time>
      </trkpt>
      <trkpt lat="45.24334" lon="0.93014">
        <ele>225.75</ele>
        <time>2015-06-07T09:32:27Z</time>
      </trkpt>
      <trkpt lat="45.24344" lon="0.9301">
        <ele>226</ele>
        <time>2015-06-07T09:32:29Z</time>
      </trkpt>
      <trkpt lat="45.24356" lon="0.93006">
        <ele>226</ele>
        <time>2015-06-07T09:32:31Z</time>
      </trkpt>
      <trkpt lat="45.2437" lon="0.93002">
        <ele>225.5</ele>
        <time>2015-06-07T09:32:33Z</time>
      </trkpt>
      <trkpt lat="45.24381" lon="0.92998">
        <ele>224.5</ele>
        <time>2015-06-07T09:32:36Z</time>
      </trkpt>
      <trkpt lat="45.24391" lon="0.92994">
        <ele>223.75</ele>
        <time>2015-06-07T09:32:38Z</time>
      </trkpt>
      <trkpt lat="45.244" lon="0.92991">
        <ele>223.25</ele>
        <time>2015-06-07T09:32:40Z</time>
      </trkpt>
      <trkpt lat="45.24409" lon="0.92988">
        <ele>222.5</ele>
        <time>2015-06-07T09:32:42Z</time>
      </trkpt>
      <trkpt lat="45.24418" lon="0.92984">
        <ele>222</ele>
        <time>2015-06-07T09:32:44Z</time>
      </trkpt>
      <trkpt lat="45.24428" lon="0.9298">
        <ele>222</ele>
        <time>2015-06-07T09:32:46Z</time>
      </trkpt>
      <trkpt lat="45.24437" lon="0.92976">
        <ele>221.5</ele>
        <time>2015-06-07T09:32:48Z</time>
      </trkpt>
      <trkpt lat="45.24447" lon="0.92972">
        <ele>221</ele>
        <time>2015-06-07T09:32:50Z</time>
      </trkpt>
      <trkpt lat="45.24457" lon="0.92968">
        <ele>221</ele>
        <time>2015-06-07T09:32:52Z</time>
      </trkpt>
      <trkpt lat="45.24466" lon="0.92964">
        <ele>221</ele>
        <time>2015-06-07T09:32:54Z</time>
      </trkpt>
      <trkpt lat="45.24476" lon="0.92961">
        <ele>220.5</ele>
        <time>2015-06-07T09:32:56Z</time>
      </trkpt>
      <trkpt lat="45.24486" lon="0.92957">
        <ele>220</ele>
        <time>2015-06-07T09:32:58Z</time>
      </trkpt>
      <trkpt lat="45.24497" lon="0.92953">
        <ele>219.5</ele>
        <time>2015-06-07T09:33:01Z</time>
      </trkpt>
      <trkpt lat="45.2451" lon="0.9295">
        <ele>218.25</ele>
        <time>2015-06-07T09:33:03Z</time>
      </trkpt>
      <trkpt lat="45.24524" lon="0.92947">
        <ele>217.25</ele>
        <time>2015-06-07T09:33:05Z</time>
      </trkpt>
      <trkpt lat="45.24536" lon="0.92947">
        <ele>216.75</ele>
        <time>2015-06-07T09:33:07Z</time>
      </trkpt>
      <trkpt lat="45.24548" lon="0.92949">
        <ele>216</ele>
        <time>2015-06-07T09:33:09Z</time>
      </trkpt>
      <trkpt lat="45.24561" lon="0.92954">
        <ele>214.75</ele>
        <time>2015-06-07T09:33:11Z</time>
      </trkpt>
      <trkpt lat="45.24576" lon="0.92961">
        <ele>213.75</ele>
        <time>2015-06-07T09:33:13Z</time>
      </trkpt>
      <trkpt lat="45.24589" lon="0.92968">
        <ele>213.25</ele>
        <time>2015-06-07T09:33:16Z</time>
      </trkpt>
      <trkpt lat="45.24601" lon="0.92972">
        <ele>213</ele>
        <time>2015-06-07T09:33:18Z</time>
      </trkpt>
      <trkpt lat="45.24613" lon="0.92975">
        <ele>212.5</ele>
        <time>2015-06-07T09:33:20Z</time>
      </trkpt>
      <trkpt lat="45.24625" lon="0.92975">
        <ele>212</ele>
        <time>2015-06-07T09:33:22Z</time>
      </trkpt>
      <trkpt lat="45.24638" lon="0.92973">
        <ele>212</ele>
        <time>2015-06-07T09:33:24Z</time>
      </trkpt>
      <trkpt lat="45.2465" lon="0.92971">
        <ele>212</ele>
        <time>2015-06-07T09:33:26Z</time>
      </trkpt>
      <trkpt lat="45.24662" lon="0.92969">
        <ele>212</ele>
        <time>2015-06-07T09:33:28Z</time>
      </trkpt>
      <trkpt lat="45.24674" lon="0.92967">
        <ele>212</ele>
        <time>2015-06-07T09:33:30Z</time>
      </trkpt>
      <trkpt lat="45.24686" lon="0.92965">
        <ele>212</ele>
        <time>2015-06-07T09:33:32Z</time>
      </trkpt>
      <trkpt lat="45.24696" lon="0.92962">
        <ele>212</ele>
        <time>2015-06-07T09:33:34Z</time>
      </trkpt>
      <trkpt lat="45.24708" lon="0.92963">
        <ele>213</ele>
        <time>2015-06-07T09:33:37Z</time>
      </trkpt>
      <trkpt lat="45.24716" lon="0.92979">
        <ele>213.75</ele>
        <time>2015-06-07T09:33:40Z</time>
      </trkpt>
      <trkpt lat="45.2472" lon="0.92992">
        <ele>213.25</ele>
        <time>2015-06-07T09:33:42Z</time>
      </trkpt>
      <trkpt lat="45.24722" lon="0.93005">
        <ele>213</ele>
        <time>2015-06-07T09:33:45Z</time>
      </trkpt>
      <trkpt lat="45.24724" lon="0.93018">
        <ele>212.75</ele>
        <time>2015-06-07T09:33:47Z</time>
      </trkpt>
      <trkpt lat="45.24724" lon="0.93032">
        <ele>212</ele>
        <time>2015-06-07T09:33:50Z</time>
      </trkpt>
      <trkpt lat="45.2472" lon="0.93048">
        <ele>213</ele>
        <time>2015-06-07T09:33:54Z</time>
      </trkpt>
      <trkpt lat="45.24716" lon="0.9306">
        <ele>213</ele>
        <time>2015-06-07T09:33:57Z</time>
      </trkpt>
      <trkpt lat="45.24711" lon="0.93073">
        <ele>213</ele>
        <time>2015-06-07T09:34:01Z</time>
      </trkpt>
      <trkpt lat="45.24707" lon="0.93086">
        <ele>213.25</ele>
        <time>2015-06-07T09:34:04Z</time>
      </trkpt>
      <trkpt lat="45.24705" lon="0.931">
        <ele>213.75</ele>
        <time>2015-06-07T09:34:06Z</time>
      </trkpt>
      <trkpt lat="45.24706" lon="0.93116">
        <ele>213.75</ele>
        <time>2015-06-07T09:34:10Z</time>
      </trkpt>
      <trkpt lat="45.24705" lon="0.9313">
        <ele>213.75</ele>
        <time>2015-06-07T09:34:14Z</time>
      </trkpt>
      <trkpt lat="45.24706" lon="0.93144">
        <ele>215</ele>
        <time>2015-06-07T09:34:18Z</time>
      </trkpt>
      <trkpt lat="45.24705" lon="0.9316">
        <ele>216.25</ele>
        <time>2015-06-07T09:34:23Z</time>
      </trkpt>
      <trkpt lat="45.24704" lon="0.93176">
        <ele>217.75</ele>
        <time>2015-06-07T09:34:27Z</time>
      </trkpt>
      <trkpt lat="45.24703" lon="0.9319">
        <ele>218.25</ele>
        <time>2015-06-07T09:34:30Z</time>
      </trkpt>
      <trkpt lat="45.24703" lon="0.93204">
        <ele>219</ele>
        <time>2015-06-07T09:34:35Z</time>
      </trkpt>
      <trkpt lat="45.24702" lon="0.93219">
        <ele>221</ele>
        <time>2015-06-07T09:34:41Z</time>
      </trkpt>
      <trkpt lat="45.24702" lon="0.93233">
        <ele>223.5</ele>
        <time>2015-06-07T09:34:46Z</time>
      </trkpt>
      <trkpt lat="45.24702" lon="0.93248">
        <ele>225.5</ele>
        <time>2015-06-07T09:34:51Z</time>
      </trkpt>
      <trkpt lat="45.24703" lon="0.93263">
        <ele>227.75</ele>
        <time>2015-06-07T09:34:56Z</time>
      </trkpt>
      <trkpt lat="45.24703" lon="0.93278">
        <ele>229</ele>
        <time>2015-06-07T09:35:02Z</time>
      </trkpt>
      <trkpt lat="45.24704" lon="0.93291">
        <ele>229</ele>
        <time>2015-06-07T09:35:06Z</time>
      </trkpt>
      <trkpt lat="45.24704" lon="0.93304">
        <ele>230</ele>
        <time>2015-06-07T09:35:11Z</time>
      </trkpt>
      <trkpt lat="45.24703" lon="0.93318">
        <ele>231.25</ele>
        <time>2015-06-07T09:35:17Z</time>
      </trkpt>
      <trkpt lat="45.24702" lon="0.93332">
        <ele>232.75</ele>
        <time>2015-06-07T09:35:22Z</time>
      </trkpt>
      <trkpt lat="45.24705" lon="0.93347">
        <ele>233.75</ele>
        <time>2015-06-07T09:35:28Z</time>
      </trkpt>
      <trkpt lat="45.24705" lon="0.9336">
        <ele>234</ele>
        <time>2015-06-07T09:35:33Z</time>
      </trkpt>
      <trkpt lat="45.24707" lon="0.93375">
        <ele>234</ele>
        <time>2015-06-07T09:35:39Z</time>
      </trkpt>
      <trkpt lat="45.24711" lon="0.93387">
        <ele>234.5</ele>
        <time>2015-06-07T09:35:44Z</time>
      </trkpt>
      <trkpt lat="45.24714" lon="0.93399">
        <ele>235.5</ele>
        <time>2015-06-07T09:35:48Z</time>
      </trkpt>
      <trkpt lat="45.24717" lon="0.93415">
        <ele>236</ele>
        <time>2015-06-07T09:35:53Z</time>
      </trkpt>
      <trkpt lat="45.24721" lon="0.9343">
        <ele>235.75</ele>
        <time>2015-06-07T09:35:57Z</time>
      </trkpt>
      <trkpt lat="45.24721" lon="0.93444">
        <ele>236.25</ele>
        <time>2015-06-07T09:36:02Z</time>
      </trkpt>
      <trkpt lat="45.2472" lon="0.93459">
        <ele>238</ele>
        <time>2015-06-07T09:36:07Z</time>
      </trkpt>
      <trkpt lat="45.24721" lon="0.93475">
        <ele>239</ele>
        <time>2015-06-07T09:36:12Z</time>
      </trkpt>
      <trkpt lat="45.24723" lon="0.93488">
        <ele>239</ele>
        <time>2015-06-07T09:36:16Z</time>
      </trkpt>
      <trkpt lat="45.24725" lon="0.93503">
        <ele>239</ele>
        <time>2015-06-07T09:36:21Z</time>
      </trkpt>
      <trkpt lat="45.24728" lon="0.93517">
        <ele>238</ele>
        <time>2015-06-07T09:36:26Z</time>
      </trkpt>
      <trkpt lat="45.24732" lon="0.93531">
        <ele>238</ele>
        <time>2015-06-07T09:36:32Z</time>
      </trkpt>
      <trkpt lat="45.24736" lon="0.93542">
        <ele>239</ele>
        <time>2015-06-07T09:36:36Z</time>
      </trkpt>
      <trkpt lat="45.24742" lon="0.93555">
        <ele>240.5</ele>
        <time>2015-06-07T09:36:41Z</time>
      </trkpt>
      <trkpt lat="45.24747" lon="0.93568">
        <ele>242.25</ele>
        <time>2015-06-07T09:36:46Z</time>
      </trkpt>
      <trkpt lat="45.24749" lon="0.93581">
        <ele>242.75</ele>
        <time>2015-06-07T09:36:52Z</time>
      </trkpt>
      <trkpt lat="45.24754" lon="0.93593">
        <ele>242.75</ele>
        <time>2015-06-07T09:36:59Z</time>
      </trkpt>
      <trkpt lat="45.24758" lon="0.93607">
        <ele>241.5</ele>
        <time>2015-06-07T09:37:04Z</time>
      </trkpt>
      <trkpt lat="45.24773" lon="0.93611">
        <ele>241</ele>
        <time>2015-06-07T09:37:24Z</time>
      </trkpt>
      <trkpt lat="45.24788" lon="0.93609">
        <ele>241.25</ele>
        <time>2015-06-07T09:37:26Z</time>
      </trkpt>
      <trkpt lat="45.24793" lon="0.93598">
        <ele>242</ele>
        <time>2015-06-07T09:37:30Z</time>
      </trkpt>
      <trkpt lat="45.24795" lon="0.93585">
        <ele>242</ele>
        <time>2015-06-07T09:37:32Z</time>
      </trkpt>
      <trkpt lat="45.24798" lon="0.93569">
        <ele>242</ele>
        <time>2015-06-07T09:37:34Z</time>
      </trkpt>
      <trkpt lat="45.24802" lon="0.93552">
        <ele>242</ele>
        <time>2015-06-07T09:37:36Z</time>
      </trkpt>
      <trkpt lat="45.24807" lon="0.93537">
        <ele>242</ele>
        <time>2015-06-07T09:37:38Z</time>
      </trkpt>
      <trkpt lat="45.24811" lon="0.93524">
        <ele>242</ele>
        <time>2015-06-07T09:37:40Z</time>
      </trkpt>
      <trkpt lat="45.24814" lon="0.93511">
        <ele>242</ele>
        <time>2015-06-07T09:37:43Z</time>
      </trkpt>
      <trkpt lat="45.24815" lon="0.93496">
        <ele>242</ele>
        <time>2015-06-07T09:37:46Z</time>
      </trkpt>
      <trkpt lat="45.24818" lon="0.93481">
        <ele>241.5</ele>
        <time>2015-06-07T09:37:49Z</time>
      </trkpt>
      <trkpt lat="45.24822" lon="0.93465">
        <ele>240.75</ele>
        <time>2015-06-07T09:37:52Z</time>
      </trkpt>
      <trkpt lat="45.24823" lon="0.93451">
        <ele>240.25</ele>
        <time>2015-06-07T09:37:54Z</time>
      </trkpt>
      <trkpt lat="45.24824" lon="0.93436">
        <ele>240</ele>
        <time>2015-06-07T09:37:56Z</time>
      </trkpt>
      <trkpt lat="45.24825" lon="0.93423">
        <ele>240</ele>
        <time>2015-06-07T09:37:58Z</time>
      </trkpt>
      <trkpt lat="45.2483" lon="0.93405">
        <ele>240</ele>
        <time>2015-06-07T09:38:02Z</time>
      </trkpt>
      <trkpt lat="45.24838" lon="0.93395">
        <ele>240</ele>
        <time>2015-06-07T09:38:04Z</time>
      </trkpt>
      <trkpt lat="45.24849" lon="0.93388">
        <ele>239.25</ele>
        <time>2015-06-07T09:38:06Z</time>
      </trkpt>
      <trkpt lat="45.2486" lon="0.93386">
        <ele>237.5</ele>
        <time>2015-06-07T09:38:08Z</time>
      </trkpt>
      <trkpt lat="45.24874" lon="0.93389">
        <ele>236.25</ele>
        <time>2015-06-07T09:38:10Z</time>
      </trkpt>
      <trkpt lat="45.24884" lon="0.93391">
        <ele>236</ele>
        <time>2015-06-07T09:38:11Z</time>
      </trkpt>
      <trkpt lat="45.24902" lon="0.93397">
        <ele>236.25</ele>
        <time>2015-06-07T09:38:13Z</time>
      </trkpt>
      <trkpt lat="45.24913" lon="0.93402">
        <ele>236.5</ele>
        <time>2015-06-07T09:38:14Z</time>
      </trkpt>
      <trkpt lat="45.24923" lon="0.9341">
        <ele>236.75</ele>
        <time>2015-06-07T09:38:16Z</time>
      </trkpt>
      <trkpt lat="45.24935" lon="0.93422">
        <ele>237</ele>
        <time>2015-06-07T09:38:17Z</time>
      </trkpt>
      <trkpt lat="45.24943" lon="0.93433">
        <ele>237</ele>
        <time>2015-06-07T09:38:18Z</time>
      </trkpt>
      <trkpt lat="45.24949" lon="0.93444">
        <ele>237</ele>
        <time>2015-06-07T09:38:19Z</time>
      </trkpt>
      <trkpt lat="45.24954" lon="0.93462">
        <ele>237.25</ele>
        <time>2015-06-07T09:38:21Z</time>
      </trkpt>
      <trkpt lat="45.24955" lon="0.93476">
        <ele>237.25</ele>
        <time>2015-06-07T09:38:23Z</time>
      </trkpt>
      <trkpt lat="45.24949" lon="0.93488">
        <ele>237.75</ele>
        <time>2015-06-07T09:38:27Z</time>
      </trkpt>
      <trkpt lat="45.24945" lon="0.93503">
        <ele>238</ele>
        <time>2015-06-07T09:38:32Z</time>
      </trkpt>
      <trkpt lat="45.24945" lon="0.93517">
        <ele>238</ele>
        <time>2015-06-07T09:38:37Z</time>
      </trkpt>
      <trkpt lat="45.24941" lon="0.9353">
        <ele>238</ele>
        <time>2015-06-07T09:38:43Z</time>
      </trkpt>
      <trkpt lat="45.2495" lon="0.93535">
        <ele>244</ele>
        <time>2015-06-07T09:39:29Z</time>
      </trkpt>
      <trkpt lat="45.24959" lon="0.93536">
        <ele>244.25</ele>
        <time>2015-06-07T09:39:40Z</time>
      </trkpt>
      <trkpt lat="45.24968" lon="0.93534">
        <ele>247.75</ele>
        <time>2015-06-07T09:39:54Z</time>
      </trkpt>
      <trkpt lat="45.24977" lon="0.93534">
        <ele>248.5</ele>
        <time>2015-06-07T09:40:08Z</time>
      </trkpt>
      <trkpt lat="45.24987" lon="0.93535">
        <ele>250</ele>
        <time>2015-06-07T09:40:23Z</time>
      </trkpt>
      <trkpt lat="45.24996" lon="0.93536">
        <ele>252</ele>
        <time>2015-06-07T09:40:34Z</time>
      </trkpt>
      <trkpt lat="45.25006" lon="0.93538">
        <ele>254.25</ele>
        <time>2015-06-07T09:40:44Z</time>
      </trkpt>
      <trkpt lat="45.25012" lon="0.93547">
        <ele>254</ele>
        <time>2015-06-07T09:40:52Z</time>
      </trkpt>
      <trkpt lat="45.25017" lon="0.93558">
        <ele>253.5</ele>
        <time>2015-06-07T09:41:00Z</time>
      </trkpt>
      <trkpt lat="45.25023" lon="0.93569">
        <ele>255</ele>
        <time>2015-06-07T09:41:11Z</time>
      </trkpt>
      <trkpt lat="45.25028" lon="0.93582">
        <ele>256.75</ele>
        <time>2015-06-07T09:41:18Z</time>
      </trkpt>
      <trkpt lat="45.25037" lon="0.93588">
        <ele>258</ele>
        <time>2015-06-07T09:41:26Z</time>
      </trkpt>
      <trkpt lat="45.25046" lon="0.9359">
        <ele>259.25</ele>
        <time>2015-06-07T09:41:33Z</time>
      </trkpt>
      <trkpt lat="45.25055" lon="0.93594">
        <ele>261</ele>
        <time>2015-06-07T09:41:40Z</time>
      </trkpt>
      <trkpt lat="45.25064" lon="0.93595">
        <ele>262.25</ele>
        <time>2015-06-07T09:41:47Z</time>
      </trkpt>
      <trkpt lat="45.25074" lon="0.93595">
        <ele>263</ele>
        <time>2015-06-07T09:41:53Z</time>
      </trkpt>
      <trkpt lat="45.25083" lon="0.93594">
        <ele>263.75</ele>
        <time>2015-06-07T09:41:58Z</time>
      </trkpt>
      <trkpt lat="45.25096" lon="0.93593">
        <ele>265</ele>
        <time>2015-06-07T09:42:04Z</time>
      </trkpt>
      <trkpt lat="45.25105" lon="0.93593">
        <ele>265</ele>
        <time>2015-06-07T09:42:06Z</time>
      </trkpt>
      <trkpt lat="45.25115" lon="0.93595">
        <ele>265.5</ele>
        <time>2015-06-07T09:42:09Z</time>
      </trkpt>
      <trkpt lat="45.25126" lon="0.93595">
        <ele>266</ele>
        <time>2015-06-07T09:42:13Z</time>
      </trkpt>
      <trkpt lat="45.25133" lon="0.93586">
        <ele>266</ele>
        <time>2015-06-07T09:42:20Z</time>
      </trkpt>
      <trkpt lat="45.25137" lon="0.93572">
        <ele>266</ele>
        <time>2015-06-07T09:42:25Z</time>
      </trkpt>
      <trkpt lat="45.25143" lon="0.93561">
        <ele>266.75</ele>
        <time>2015-06-07T09:42:32Z</time>
      </trkpt>
      <trkpt lat="45.2515" lon="0.93553">
        <ele>267</ele>
        <time>2015-06-07T09:42:41Z</time>
      </trkpt>
      <trkpt lat="45.25155" lon="0.9354">
        <ele>266.25</ele>
        <time>2015-06-07T09:43:36Z</time>
      </trkpt>
      <trkpt lat="45.25155" lon="0.93526">
        <ele>265</ele>
        <time>2015-06-07T09:43:40Z</time>
      </trkpt>
      <trkpt lat="45.25156" lon="0.93508">
        <ele>265</ele>
        <time>2015-06-07T09:43:43Z</time>
      </trkpt>
      <trkpt lat="45.25155" lon="0.93494">
        <ele>265</ele>
        <time>2015-06-07T09:43:45Z</time>
      </trkpt>
      <trkpt lat="45.25152" lon="0.93477">
        <ele>264.5</ele>
        <time>2015-06-07T09:43:47Z</time>
      </trkpt>
      <trkpt lat="45.25148" lon="0.93462">
        <ele>263.5</ele>
        <time>2015-06-07T09:43:49Z</time>
      </trkpt>
      <trkpt lat="45.25144" lon="0.93449">
        <ele>263</ele>
        <time>2015-06-07T09:43:51Z</time>
      </trkpt>
      <trkpt lat="45.25139" lon="0.93436">
        <ele>263</ele>
        <time>2015-06-07T09:43:53Z</time>
      </trkpt>
      <trkpt lat="45.25134" lon="0.93417">
        <ele>262.5</ele>
        <time>2015-06-07T09:43:55Z</time>
      </trkpt>
      <trkpt lat="45.2513" lon="0.93404">
        <ele>262.25</ele>
        <time>2015-06-07T09:43:56Z</time>
      </trkpt>
      <trkpt lat="45.25128" lon="0.93391">
        <ele>262</ele>
        <time>2015-06-07T09:43:57Z</time>
      </trkpt>
      <trkpt lat="45.25124" lon="0.93367">
        <ele>261.75</ele>
        <time>2015-06-07T09:44:00Z</time>
      </trkpt>
      <trkpt lat="45.25124" lon="0.93352">
        <ele>261</ele>
        <time>2015-06-07T09:44:02Z</time>
      </trkpt>
      <trkpt lat="45.25126" lon="0.93339">
        <ele>258.75</ele>
        <time>2015-06-07T09:44:05Z</time>
      </trkpt>
      <trkpt lat="45.25132" lon="0.93328">
        <ele>250.5</ele>
        <time>2015-06-07T09:44:20Z</time>
      </trkpt>
      <trkpt lat="45.25141" lon="0.93322">
        <ele>248.25</ele>
        <time>2015-06-07T09:44:25Z</time>
      </trkpt>
      <trkpt lat="45.2515" lon="0.93325">
        <ele>248</ele>
        <time>2015-06-07T09:44:30Z</time>
      </trkpt>
      <trkpt lat="45.25158" lon="0.93334">
        <ele>247.25</ele>
        <time>2015-06-07T09:44:34Z</time>
      </trkpt>
      <trkpt lat="45.25166" lon="0.93344">
        <ele>246.5</ele>
        <time>2015-06-07T09:44:37Z</time>
      </trkpt>
      <trkpt lat="45.25176" lon="0.93356">
        <ele>246</ele>
        <time>2015-06-07T09:44:40Z</time>
      </trkpt>
      <trkpt lat="45.25183" lon="0.93365">
        <ele>246</ele>
        <time>2015-06-07T09:44:42Z</time>
      </trkpt>
      <trkpt lat="45.25193" lon="0.93374">
        <ele>246.25</ele>
        <time>2015-06-07T09:44:44Z</time>
      </trkpt>
      <trkpt lat="45.25205" lon="0.93382">
        <ele>246.75</ele>
        <time>2015-06-07T09:44:46Z</time>
      </trkpt>
      <trkpt lat="45.25216" lon="0.9339">
        <ele>247</ele>
        <time>2015-06-07T09:44:49Z</time>
      </trkpt>
      <trkpt lat="45.25225" lon="0.93397">
        <ele>247</ele>
        <time>2015-06-07T09:44:51Z</time>
      </trkpt>
      <trkpt lat="45.25233" lon="0.93403">
        <ele>246.5</ele>
        <time>2015-06-07T09:44:53Z</time>
      </trkpt>
      <trkpt lat="45.25244" lon="0.93414">
        <ele>246</ele>
        <time>2015-06-07T09:44:56Z</time>
      </trkpt>
      <trkpt lat="45.25254" lon="0.93425">
        <ele>246</ele>
        <time>2015-06-07T09:44:59Z</time>
      </trkpt>
      <trkpt lat="45.2526" lon="0.93435">
        <ele>245.5</ele>
        <time>2015-06-07T09:45:02Z</time>
      </trkpt>
      <trkpt lat="45.25267" lon="0.93445">
        <ele>245</ele>
        <time>2015-06-07T09:45:05Z</time>
      </trkpt>
      <trkpt lat="45.25275" lon="0.93459">
        <ele>245.75</ele>
        <time>2015-06-07T09:45:08Z</time>
      </trkpt>
      <trkpt lat="45.25284" lon="0.93473">
        <ele>246</ele>
        <time>2015-06-07T09:45:10Z</time>
      </trkpt>
      <trkpt lat="45.25294" lon="0.93488">
        <ele>246</ele>
        <time>2015-06-07T09:45:12Z</time>
      </trkpt>
      <trkpt lat="45.25309" lon="0.93505">
        <ele>245.75</ele>
        <time>2015-06-07T09:45:14Z</time>
      </trkpt>
      <trkpt lat="45.25318" lon="0.93515">
        <ele>245.25</ele>
        <time>2015-06-07T09:45:15Z</time>
      </trkpt>
      <trkpt lat="45.25327" lon="0.93524">
        <ele>244.75</ele>
        <time>2015-06-07T09:45:17Z</time>
      </trkpt>
      <trkpt lat="45.25337" lon="0.93533">
        <ele>244.25</ele>
        <time>2015-06-07T09:45:18Z</time>
      </trkpt>
      <trkpt lat="45.25348" lon="0.93548">
        <ele>243.75</ele>
        <time>2015-06-07T09:45:20Z</time>
      </trkpt>
      <trkpt lat="45.25356" lon="0.93559">
        <ele>242.75</ele>
        <time>2015-06-07T09:45:22Z</time>
      </trkpt>
      <trkpt lat="45.25362" lon="0.93568">
        <ele>242</ele>
        <time>2015-06-07T09:45:24Z</time>
      </trkpt>
      <trkpt lat="45.25368" lon="0.93584">
        <ele>241.5</ele>
        <time>2015-06-07T09:45:27Z</time>
      </trkpt>
      <trkpt lat="45.25366" lon="0.93599">
        <ele>240.75</ele>
        <time>2015-06-07T09:45:30Z</time>
      </trkpt>
      <trkpt lat="45.25361" lon="0.93613">
        <ele>239.5</ele>
        <time>2015-06-07T09:45:33Z</time>
      </trkpt>
      <trkpt lat="45.2536" lon="0.9363">
        <ele>239</ele>
        <time>2015-06-07T09:45:36Z</time>
      </trkpt>
      <trkpt lat="45.25362" lon="0.93645">
        <ele>239</ele>
        <time>2015-06-07T09:45:38Z</time>
      </trkpt>
      <trkpt lat="45.25365" lon="0.9366">
        <ele>239</ele>
        <time>2015-06-07T09:45:40Z</time>
      </trkpt>
      <trkpt lat="45.25367" lon="0.93674">
        <ele>239</ele>
        <time>2015-06-07T09:45:42Z</time>
      </trkpt>
      <trkpt lat="45.25371" lon="0.93689">
        <ele>239</ele>
        <time>2015-06-07T09:45:44Z</time>
      </trkpt>
      <trkpt lat="45.25374" lon="0.93707">
        <ele>239.5</ele>
        <time>2015-06-07T09:45:46Z</time>
      </trkpt>
      <trkpt lat="45.25378" lon="0.93722">
        <ele>240</ele>
        <time>2015-06-07T09:45:49Z</time>
      </trkpt>
      <trkpt lat="45.25381" lon="0.93738">
        <ele>240</ele>
        <time>2015-06-07T09:45:52Z</time>
      </trkpt>
      <trkpt lat="45.25382" lon="0.93751">
        <ele>240.25</ele>
        <time>2015-06-07T09:45:55Z</time>
      </trkpt>
      <trkpt lat="45.25384" lon="0.93765">
        <ele>241.5</ele>
        <time>2015-06-07T09:45:59Z</time>
      </trkpt>
      <trkpt lat="45.25386" lon="0.93778">
        <ele>242.75</ele>
        <time>2015-06-07T09:46:03Z</time>
      </trkpt>
      <trkpt lat="45.25385" lon="0.93791">
        <ele>243</ele>
        <time>2015-06-07T09:46:07Z</time>
      </trkpt>
      <trkpt lat="45.25384" lon="0.93807">
        <ele>243</ele>
        <time>2015-06-07T09:46:10Z</time>
      </trkpt>
      <trkpt lat="45.25382" lon="0.93823">
        <ele>242.5</ele>
        <time>2015-06-07T09:46:12Z</time>
      </trkpt>
      <trkpt lat="45.25378" lon="0.93838">
        <ele>241.5</ele>
        <time>2015-06-07T09:46:14Z</time>
      </trkpt>
      <trkpt lat="45.25372" lon="0.93851">
        <ele>240.75</ele>
        <time>2015-06-07T09:46:16Z</time>
      </trkpt>
      <trkpt lat="45.25364" lon="0.93864">
        <ele>240.25</ele>
        <time>2015-06-07T09:46:18Z</time>
      </trkpt>
      <trkpt lat="45.25356" lon="0.93878">
        <ele>240</ele>
        <time>2015-06-07T09:46:20Z</time>
      </trkpt>
      <trkpt lat="45.25347" lon="0.93891">
        <ele>240.25</ele>
        <time>2015-06-07T09:46:22Z</time>
      </trkpt>
      <trkpt lat="45.25337" lon="0.93901">
        <ele>240.75</ele>
        <time>2015-06-07T09:46:25Z</time>
      </trkpt>
      <trkpt lat="45.25328" lon="0.93909">
        <ele>241.25</ele>
        <time>2015-06-07T09:46:27Z</time>
      </trkpt>
      <trkpt lat="45.25316" lon="0.93919">
        <ele>242.5</ele>
        <time>2015-06-07T09:46:30Z</time>
      </trkpt>
      <trkpt lat="45.25306" lon="0.93929">
        <ele>243</ele>
        <time>2015-06-07T09:46:33Z</time>
      </trkpt>
      <trkpt lat="45.25296" lon="0.93935">
        <ele>242.25</ele>
        <time>2015-06-07T09:46:36Z</time>
      </trkpt>
      <trkpt lat="45.25285" lon="0.93941">
        <ele>242.25</ele>
        <time>2015-06-07T09:46:40Z</time>
      </trkpt>
      <trkpt lat="45.25277" lon="0.93947">
        <ele>243.5</ele>
        <time>2015-06-07T09:46:44Z</time>
      </trkpt>
      <trkpt lat="45.25273" lon="0.93962">
        <ele>244.25</ele>
        <time>2015-06-07T09:46:48Z</time>
      </trkpt>
      <trkpt lat="45.25271" lon="0.93979">
        <ele>245</ele>
        <time>2015-06-07T09:46:51Z</time>
      </trkpt>
      <trkpt lat="45.2527" lon="0.93992">
        <ele>245</ele>
        <time>2015-06-07T09:46:53Z</time>
      </trkpt>
      <trkpt lat="45.25267" lon="0.94006">
        <ele>245</ele>
        <time>2015-06-07T09:46:55Z</time>
      </trkpt>
      <trkpt lat="45.25264" lon="0.94024">
        <ele>246</ele>
        <time>2015-06-07T09:46:59Z</time>
      </trkpt>
      <trkpt lat="45.25259" lon="0.94041">
        <ele>247</ele>
        <time>2015-06-07T09:47:02Z</time>
      </trkpt>
      <trkpt lat="45.25254" lon="0.94055">
        <ele>247</ele>
        <time>2015-06-07T09:47:05Z</time>
      </trkpt>
      <trkpt lat="45.25248" lon="0.94069">
        <ele>248</ele>
        <time>2015-06-07T09:47:09Z</time>
      </trkpt>
      <trkpt lat="45.25258" lon="0.94069">
        <ele>244</ele>
        <time>2015-06-07T09:47:19Z</time>
      </trkpt>
      <trkpt lat="45.25268" lon="0.94066">
        <ele>243.25</ele>
        <time>2015-06-07T09:47:22Z</time>
      </trkpt>
      <trkpt lat="45.25277" lon="0.94063">
        <ele>243</ele>
        <time>2015-06-07T09:47:25Z</time>
      </trkpt>
      <trkpt lat="45.25286" lon="0.94059">
        <ele>243.75</ele>
        <time>2015-06-07T09:47:28Z</time>
      </trkpt>
      <trkpt lat="45.25297" lon="0.94054">
        <ele>244</ele>
        <time>2015-06-07T09:47:31Z</time>
      </trkpt>
      <trkpt lat="45.2531" lon="0.94051">
        <ele>244</ele>
        <time>2015-06-07T09:47:35Z</time>
      </trkpt>
      <trkpt lat="45.25321" lon="0.94051">
        <ele>244</ele>
        <time>2015-06-07T09:47:37Z</time>
      </trkpt>
      <trkpt lat="45.25331" lon="0.94052">
        <ele>244.25</ele>
        <time>2015-06-07T09:47:39Z</time>
      </trkpt>
      <trkpt lat="45.25344" lon="0.94053">
        <ele>244</ele>
        <time>2015-06-07T09:47:42Z</time>
      </trkpt>
      <trkpt lat="45.25358" lon="0.94053">
        <ele>244.5</ele>
        <time>2015-06-07T09:47:45Z</time>
      </trkpt>
      <trkpt lat="45.25367" lon="0.94052">
        <ele>245.5</ele>
        <time>2015-06-07T09:47:47Z</time>
      </trkpt>
      <trkpt lat="45.25376" lon="0.9405">
        <ele>246.25</ele>
        <time>2015-06-07T09:47:49Z</time>
      </trkpt>
      <trkpt lat="45.25388" lon="0.94047">
        <ele>247</ele>
        <time>2015-06-07T09:47:51Z</time>
      </trkpt>
      <trkpt lat="45.25401" lon="0.94045">
        <ele>247.75</ele>
        <time>2015-06-07T09:47:53Z</time>
      </trkpt>
      <trkpt lat="45.25413" lon="0.94045">
        <ele>248</ele>
        <time>2015-06-07T09:47:55Z</time>
      </trkpt>
      <trkpt lat="45.25424" lon="0.94048">
        <ele>247.5</ele>
        <time>2015-06-07T09:47:57Z</time>
      </trkpt>
      <trkpt lat="45.25435" lon="0.94049">
        <ele>247</ele>
        <time>2015-06-07T09:47:59Z</time>
      </trkpt>
      <trkpt lat="45.2545" lon="0.94047">
        <ele>247</ele>
        <time>2015-06-07T09:48:01Z</time>
      </trkpt>
      <trkpt lat="45.2546" lon="0.94046">
        <ele>247</ele>
        <time>2015-06-07T09:48:02Z</time>
      </trkpt>
      <trkpt lat="45.25471" lon="0.94044">
        <ele>247</ele>
        <time>2015-06-07T09:48:03Z</time>
      </trkpt>
      <trkpt lat="45.2548" lon="0.94043">
        <ele>247</ele>
        <time>2015-06-07T09:48:04Z</time>
      </trkpt>
      <trkpt lat="45.25492" lon="0.94041">
        <ele>246.75</ele>
        <time>2015-06-07T09:48:06Z</time>
      </trkpt>
      <trkpt lat="45.25501" lon="0.94041">
        <ele>246.25</ele>
        <time>2015-06-07T09:48:07Z</time>
      </trkpt>
      <trkpt lat="45.2551" lon="0.94041">
        <ele>245.75</ele>
        <time>2015-06-07T09:48:08Z</time>
      </trkpt>
      <trkpt lat="45.2552" lon="0.94042">
        <ele>245.25</ele>
        <time>2015-06-07T09:48:09Z</time>
      </trkpt>
      <trkpt lat="45.2553" lon="0.94042">
        <ele>245</ele>
        <time>2015-06-07T09:48:10Z</time>
      </trkpt>
      <trkpt lat="45.25539" lon="0.94041">
        <ele>244.75</ele>
        <time>2015-06-07T09:48:11Z</time>
      </trkpt>
      <trkpt lat="45.25549" lon="0.9404">
        <ele>244.25</ele>
        <time>2015-06-07T09:48:12Z</time>
      </trkpt>
      <trkpt lat="45.25559" lon="0.94039">
        <ele>243.75</ele>
        <time>2015-06-07T09:48:13Z</time>
      </trkpt>
      <trkpt lat="45.25569" lon="0.94037">
        <ele>243.25</ele>
        <time>2015-06-07T09:48:14Z</time>
      </trkpt>
      <trkpt lat="45.25579" lon="0.94036">
        <ele>242.75</ele>
        <time>2015-06-07T09:48:15Z</time>
      </trkpt>
      <trkpt lat="45.25589" lon="0.94035">
        <ele>242.5</ele>
        <time>2015-06-07T09:48:16Z</time>
      </trkpt>
      <trkpt lat="45.25599" lon="0.94034">
        <ele>242.25</ele>
        <time>2015-06-07T09:48:17Z</time>
      </trkpt>
      <trkpt lat="45.2561" lon="0.94034">
        <ele>242</ele>
        <time>2015-06-07T09:48:18Z</time>
      </trkpt>
      <trkpt lat="45.2562" lon="0.94035">
        <ele>242</ele>
        <time>2015-06-07T09:48:19Z</time>
      </trkpt>
      <trkpt lat="45.2563" lon="0.94037">
        <ele>242</ele>
        <time>2015-06-07T09:48:20Z</time>
      </trkpt>
      <trkpt lat="45.2564" lon="0.9404">
        <ele>242</ele>
        <time>2015-06-07T09:48:21Z</time>
      </trkpt>
      <trkpt lat="45.25649" lon="0.94042">
        <ele>242</ele>
        <time>2015-06-07T09:48:22Z</time>
      </trkpt>
      <trkpt lat="45.25665" lon="0.94045">
        <ele>241.75</ele>
        <time>2015-06-07T09:48:24Z</time>
      </trkpt>
      <trkpt lat="45.25676" lon="0.94044">
        <ele>241</ele>
        <time>2015-06-07T09:48:26Z</time>
      </trkpt>
      <trkpt lat="45.25688" lon="0.94038">
        <ele>239.5</ele>
        <time>2015-06-07T09:48:29Z</time>
      </trkpt>
      <trkpt lat="45.25693" lon="0.94025">
        <ele>238.5</ele>
        <time>2015-06-07T09:48:32Z</time>
      </trkpt>
      <trkpt lat="45.25695" lon="0.94012">
        <ele>237.5</ele>
        <time>2015-06-07T09:48:34Z</time>
      </trkpt>
      <trkpt lat="45.25701" lon="0.93998">
        <ele>237</ele>
        <time>2015-06-07T09:48:36Z</time>
      </trkpt>
      <trkpt lat="45.25707" lon="0.93984">
        <ele>237</ele>
        <time>2015-06-07T09:48:38Z</time>
      </trkpt>
      <trkpt lat="45.25715" lon="0.9397">
        <ele>237</ele>
        <time>2015-06-07T09:48:41Z</time>
      </trkpt>
      <trkpt lat="45.25722" lon="0.93958">
        <ele>237</ele>
        <time>2015-06-07T09:48:43Z</time>
      </trkpt>
      <trkpt lat="45.2573" lon="0.93951">
        <ele>236.5</ele>
        <time>2015-06-07T09:48:45Z</time>
      </trkpt>
      <trkpt lat="45.25743" lon="0.93944">
        <ele>235.5</ele>
        <time>2015-06-07T09:48:48Z</time>
      </trkpt>
      <trkpt lat="45.25753" lon="0.93942">
        <ele>235</ele>
        <time>2015-06-07T09:48:50Z</time>
      </trkpt>
      <trkpt lat="45.25763" lon="0.93942">
        <ele>234.5</ele>
        <time>2015-06-07T09:48:52Z</time>
      </trkpt>
      <trkpt lat="45.25776" lon="0.93944">
        <ele>233.75</ele>
        <time>2015-06-07T09:48:55Z</time>
      </trkpt>
      <trkpt lat="45.25786" lon="0.93947">
        <ele>233.25</ele>
        <time>2015-06-07T09:48:57Z</time>
      </trkpt>
      <trkpt lat="45.25796" lon="0.9395">
        <ele>232.5</ele>
        <time>2015-06-07T09:48:59Z</time>
      </trkpt>
      <trkpt lat="45.25805" lon="0.93954">
        <ele>232</ele>
        <time>2015-06-07T09:49:01Z</time>
      </trkpt>
      <trkpt lat="45.25814" lon="0.9396">
        <ele>232.25</ele>
        <time>2015-06-07T09:49:03Z</time>
      </trkpt>
      <trkpt lat="45.25822" lon="0.93964">
        <ele>232.5</ele>
        <time>2015-06-07T09:49:05Z</time>
      </trkpt>
      <trkpt lat="45.25835" lon="0.93967">
        <ele>232.5</ele>
        <time>2015-06-07T09:49:08Z</time>
      </trkpt>
      <trkpt lat="45.25844" lon="0.9397">
        <ele>232.25</ele>
        <time>2015-06-07T09:49:10Z</time>
      </trkpt>
      <trkpt lat="45.25853" lon="0.93972">
        <ele>231.5</ele>
        <time>2015-06-07T09:49:14Z</time>
      </trkpt>
      <trkpt lat="45.25863" lon="0.93973">
        <ele>231.5</ele>
        <time>2015-06-07T09:49:17Z</time>
      </trkpt>
      <trkpt lat="45.25873" lon="0.93972">
        <ele>231.25</ele>
        <time>2015-06-07T09:49:21Z</time>
      </trkpt>
      <trkpt lat="45.25883" lon="0.9397">
        <ele>231.5</ele>
        <time>2015-06-07T09:49:26Z</time>
      </trkpt>
      <trkpt lat="45.25892" lon="0.93968">
        <ele>230.25</ele>
        <time>2015-06-07T09:49:30Z</time>
      </trkpt>
      <trkpt lat="45.25901" lon="0.93964">
        <ele>230</ele>
        <time>2015-06-07T09:49:34Z</time>
      </trkpt>
      <trkpt lat="45.25911" lon="0.93959">
        <ele>230.75</ele>
        <time>2015-06-07T09:49:39Z</time>
      </trkpt>
      <trkpt lat="45.25918" lon="0.93951">
        <ele>232</ele>
        <time>2015-06-07T09:49:44Z</time>
      </trkpt>
      <trkpt lat="45.25926" lon="0.93941">
        <ele>232.25</ele>
        <time>2015-06-07T09:49:50Z</time>
      </trkpt>
      <trkpt lat="45.25933" lon="0.93933">
        <ele>232</ele>
        <time>2015-06-07T09:49:57Z</time>
      </trkpt>
      <trkpt lat="45.2594" lon="0.93923">
        <ele>233.5</ele>
        <time>2015-06-07T09:50:04Z</time>
      </trkpt>
      <trkpt lat="45.25947" lon="0.93913">
        <ele>235.5</ele>
        <time>2015-06-07T09:50:09Z</time>
      </trkpt>
      <trkpt lat="45.25955" lon="0.93903">
        <ele>236</ele>
        <time>2015-06-07T09:50:15Z</time>
      </trkpt>
      <trkpt lat="45.2596" lon="0.93892">
        <ele>237</ele>
        <time>2015-06-07T09:50:22Z</time>
      </trkpt>
      <trkpt lat="45.25966" lon="0.93883">
        <ele>237</ele>
        <time>2015-06-07T09:50:28Z</time>
      </trkpt>
      <trkpt lat="45.25973" lon="0.93873">
        <ele>238</ele>
        <time>2015-06-07T09:50:34Z</time>
      </trkpt>
      <trkpt lat="45.2598" lon="0.93864">
        <ele>239.5</ele>
        <time>2015-06-07T09:50:40Z</time>
      </trkpt>
      <trkpt lat="45.25986" lon="0.93855">
        <ele>240</ele>
        <time>2015-06-07T09:50:46Z</time>
      </trkpt>
      <trkpt lat="45.25993" lon="0.93844">
        <ele>239.75</ele>
        <time>2015-06-07T09:50:52Z</time>
      </trkpt>
      <trkpt lat="45.25999" lon="0.93834">
        <ele>240</ele>
        <time>2015-06-07T09:51:01Z</time>
      </trkpt>
      <trkpt lat="45.26007" lon="0.93825">
        <ele>241</ele>
        <time>2015-06-07T09:51:08Z</time>
      </trkpt>
      <trkpt lat="45.26013" lon="0.93814">
        <ele>242</ele>
        <time>2015-06-07T09:51:13Z</time>
      </trkpt>
      <trkpt lat="45.26019" lon="0.93802">
        <ele>243.5</ele>
        <time>2015-06-07T09:51:19Z</time>
      </trkpt>
      <trkpt lat="45.26024" lon="0.9379">
        <ele>246</ele>
        <time>2015-06-07T09:51:26Z</time>
      </trkpt>
      <trkpt lat="45.26031" lon="0.93778">
        <ele>247.5</ele>
        <time>2015-06-07T09:51:33Z</time>
      </trkpt>
      <trkpt lat="45.26039" lon="0.93767">
        <ele>249.25</ele>
        <time>2015-06-07T09:51:38Z</time>
      </trkpt>
      <trkpt lat="45.26046" lon="0.93757">
        <ele>251</ele>
        <time>2015-06-07T09:51:44Z</time>
      </trkpt>
      <trkpt lat="45.26054" lon="0.93748">
        <ele>251.5</ele>
        <time>2015-06-07T09:51:50Z</time>
      </trkpt>
      <trkpt lat="45.26059" lon="0.93736">
        <ele>252.5</ele>
        <time>2015-06-07T09:51:56Z</time>
      </trkpt>
      <trkpt lat="45.26066" lon="0.93726">
        <ele>252</ele>
        <time>2015-06-07T09:52:02Z</time>
      </trkpt>
      <trkpt lat="45.26073" lon="0.93718">
        <ele>252</ele>
        <time>2015-06-07T09:52:06Z</time>
      </trkpt>
      <trkpt lat="45.26078" lon="0.93706">
        <ele>253.25</ele>
        <time>2015-06-07T09:52:11Z</time>
      </trkpt>
      <trkpt lat="45.26084" lon="0.93697">
        <ele>255</ele>
        <time>2015-06-07T09:52:15Z</time>
      </trkpt>
      <trkpt lat="45.26094" lon="0.93701">
        <ele>256.5</ele>
        <time>2015-06-07T09:52:19Z</time>
      </trkpt>
      <trkpt lat="45.26102" lon="0.93708">
        <ele>257.75</ele>
        <time>2015-06-07T09:52:23Z</time>
      </trkpt>
      <trkpt lat="45.26109" lon="0.93717">
        <ele>259</ele>
        <time>2015-06-07T09:52:28Z</time>
      </trkpt>
      <trkpt lat="45.26112" lon="0.93731">
        <ele>259.75</ele>
        <time>2015-06-07T09:52:33Z</time>
      </trkpt>
      <trkpt lat="45.26114" lon="0.93746">
        <ele>261.25</ele>
        <time>2015-06-07T09:52:37Z</time>
      </trkpt>
      <trkpt lat="45.26119" lon="0.93759">
        <ele>264.5</ele>
        <time>2015-06-07T09:52:41Z</time>
      </trkpt>
      <trkpt lat="45.26124" lon="0.9377">
        <ele>266.75</ele>
        <time>2015-06-07T09:52:44Z</time>
      </trkpt>
      <trkpt lat="45.26132" lon="0.93784">
        <ele>268</ele>
        <time>2015-06-07T09:52:48Z</time>
      </trkpt>
      <trkpt lat="45.26139" lon="0.93794">
        <ele>268.75</ele>
        <time>2015-06-07T09:52:50Z</time>
      </trkpt>
      <trkpt lat="45.26146" lon="0.93805">
        <ele>269</ele>
        <time>2015-06-07T09:52:52Z</time>
      </trkpt>
      <trkpt lat="45.26153" lon="0.93819">
        <ele>269</ele>
        <time>2015-06-07T09:52:54Z</time>
      </trkpt>
      <trkpt lat="45.26161" lon="0.93833">
        <ele>269.25</ele>
        <time>2015-06-07T09:52:56Z</time>
      </trkpt>
      <trkpt lat="45.26169" lon="0.93846">
        <ele>269.75</ele>
        <time>2015-06-07T09:52:58Z</time>
      </trkpt>
      <trkpt lat="45.26177" lon="0.93859">
        <ele>269.25</ele>
        <time>2015-06-07T09:53:00Z</time>
      </trkpt>
      <trkpt lat="45.26183" lon="0.93873">
        <ele>268</ele>
        <time>2015-06-07T09:53:02Z</time>
      </trkpt>
      <trkpt lat="45.26188" lon="0.93884">
        <ele>266.5</ele>
        <time>2015-06-07T09:53:04Z</time>
      </trkpt>
      <trkpt lat="45.26196" lon="0.93895">
        <ele>264.5</ele>
        <time>2015-06-07T09:53:07Z</time>
      </trkpt>
      <trkpt lat="45.26206" lon="0.93899">
        <ele>264</ele>
        <time>2015-06-07T09:53:10Z</time>
      </trkpt>
      <trkpt lat="45.26216" lon="0.93906">
        <ele>263.25</ele>
        <time>2015-06-07T09:53:13Z</time>
      </trkpt>
      <trkpt lat="45.26226" lon="0.93918">
        <ele>262.75</ele>
        <time>2015-06-07T09:53:17Z</time>
      </trkpt>
      <trkpt lat="45.26234" lon="0.93928">
        <ele>262.75</ele>
        <time>2015-06-07T09:53:20Z</time>
      </trkpt>
      <trkpt lat="45.26243" lon="0.93937">
        <ele>263.75</ele>
        <time>2015-06-07T09:53:24Z</time>
      </trkpt>
      <trkpt lat="45.26253" lon="0.93946">
        <ele>263.25</ele>
        <time>2015-06-07T09:53:27Z</time>
      </trkpt>
      <trkpt lat="45.26261" lon="0.93953">
        <ele>263</ele>
        <time>2015-06-07T09:53:29Z</time>
      </trkpt>
      <trkpt lat="45.26268" lon="0.9396">
        <ele>263</ele>
        <time>2015-06-07T09:53:31Z</time>
      </trkpt>
      <trkpt lat="45.26278" lon="0.93972">
        <ele>262.75</ele>
        <time>2015-06-07T09:53:34Z</time>
      </trkpt>
      <trkpt lat="45.26286" lon="0.93986">
        <ele>261.5</ele>
        <time>2015-06-07T09:53:37Z</time>
      </trkpt>
      <trkpt lat="45.26291" lon="0.93996">
        <ele>261</ele>
        <time>2015-06-07T09:53:39Z</time>
      </trkpt>
      <trkpt lat="45.26298" lon="0.94006">
        <ele>261</ele>
        <time>2015-06-07T09:53:42Z</time>
      </trkpt>
      <trkpt lat="45.26301" lon="0.94018">
        <ele>261</ele>
        <time>2015-06-07T09:53:47Z</time>
      </trkpt>
      <trkpt lat="45.26302" lon="0.94032">
        <ele>260</ele>
        <time>2015-06-07T09:53:51Z</time>
      </trkpt>
      <trkpt lat="45.263" lon="0.94045">
        <ele>258.75</ele>
        <time>2015-06-07T09:53:54Z</time>
      </trkpt>
      <trkpt lat="45.26298" lon="0.94061">
        <ele>258</ele>
        <time>2015-06-07T09:53:57Z</time>
      </trkpt>
      <trkpt lat="45.26295" lon="0.94078">
        <ele>258</ele>
        <time>2015-06-07T09:54:01Z</time>
      </trkpt>
      <trkpt lat="45.26294" lon="0.94092">
        <ele>258.25</ele>
        <time>2015-06-07T09:54:03Z</time>
      </trkpt>
      <trkpt lat="45.26293" lon="0.94109">
        <ele>258.75</ele>
        <time>2015-06-07T09:54:06Z</time>
      </trkpt>
      <trkpt lat="45.26291" lon="0.94122">
        <ele>259</ele>
        <time>2015-06-07T09:54:09Z</time>
      </trkpt>
      <trkpt lat="45.26288" lon="0.94139">
        <ele>259</ele>
        <time>2015-06-07T09:54:13Z</time>
      </trkpt>
      <trkpt lat="45.26286" lon="0.94154">
        <ele>259</ele>
        <time>2015-06-07T09:54:17Z</time>
      </trkpt>
      <trkpt lat="45.26284" lon="0.94168">
        <ele>259.5</ele>
        <time>2015-06-07T09:54:21Z</time>
      </trkpt>
      <trkpt lat="45.26283" lon="0.94182">
        <ele>260</ele>
        <time>2015-06-07T09:54:27Z</time>
      </trkpt>
      <trkpt lat="45.26293" lon="0.94184">
        <ele>257</ele>
        <time>2015-06-07T09:54:35Z</time>
      </trkpt>
      <trkpt lat="45.26298" lon="0.94173">
        <ele>256</ele>
        <time>2015-06-07T09:54:39Z</time>
      </trkpt>
      <trkpt lat="45.26305" lon="0.94159">
        <ele>255.25</ele>
        <time>2015-06-07T09:54:43Z</time>
      </trkpt>
      <trkpt lat="45.26311" lon="0.94147">
        <ele>254.5</ele>
        <time>2015-06-07T09:54:47Z</time>
      </trkpt>
      <trkpt lat="45.26319" lon="0.94139">
        <ele>253</ele>
        <time>2015-06-07T09:54:56Z</time>
      </trkpt>
      <trkpt lat="45.26329" lon="0.94134">
        <ele>253</ele>
        <time>2015-06-07T09:55:01Z</time>
      </trkpt>
      <trkpt lat="45.26342" lon="0.94131">
        <ele>253</ele>
        <time>2015-06-07T09:55:04Z</time>
      </trkpt>
      <trkpt lat="45.26353" lon="0.94127">
        <ele>253</ele>
        <time>2015-06-07T09:55:07Z</time>
      </trkpt>
      <trkpt lat="45.26365" lon="0.9412">
        <ele>252.25</ele>
        <time>2015-06-07T09:55:10Z</time>
      </trkpt>
      <trkpt lat="45.26377" lon="0.94116">
        <ele>251</ele>
        <time>2015-06-07T09:55:13Z</time>
      </trkpt>
      <trkpt lat="45.26389" lon="0.94118">
        <ele>249.75</ele>
        <time>2015-06-07T09:55:17Z</time>
      </trkpt>
      <trkpt lat="45.26398" lon="0.94123">
        <ele>247.75</ele>
        <time>2015-06-07T09:55:21Z</time>
      </trkpt>
      <trkpt lat="45.26407" lon="0.94128">
        <ele>247</ele>
        <time>2015-06-07T09:55:26Z</time>
      </trkpt>
      <trkpt lat="45.26417" lon="0.94129">
        <ele>247</ele>
        <time>2015-06-07T09:55:29Z</time>
      </trkpt>
      <trkpt lat="45.26427" lon="0.94129">
        <ele>247.25</ele>
        <time>2015-06-07T09:55:31Z</time>
      </trkpt>
      <trkpt lat="45.26438" lon="0.94128">
        <ele>247.75</ele>
        <time>2015-06-07T09:55:33Z</time>
      </trkpt>
      <trkpt lat="45.26448" lon="0.94127">
        <ele>247.5</ele>
        <time>2015-06-07T09:55:35Z</time>
      </trkpt>
      <trkpt lat="45.26461" lon="0.94125">
        <ele>246.75</ele>
        <time>2015-06-07T09:55:38Z</time>
      </trkpt>
      <trkpt lat="45.2647" lon="0.94125">
        <ele>245.75</ele>
        <time>2015-06-07T09:55:41Z</time>
      </trkpt>
      <trkpt lat="45.2648" lon="0.94123">
        <ele>243.75</ele>
        <time>2015-06-07T09:55:48Z</time>
      </trkpt>
      <trkpt lat="45.2649" lon="0.94118">
        <ele>243</ele>
        <time>2015-06-07T09:55:51Z</time>
      </trkpt>
      <trkpt lat="45.265" lon="0.94115">
        <ele>242.5</ele>
        <time>2015-06-07T09:55:54Z</time>
      </trkpt>
      <trkpt lat="45.26511" lon="0.94105">
        <ele>242.5</ele>
        <time>2015-06-07T09:56:00Z</time>
      </trkpt>
      <trkpt lat="45.26523" lon="0.94106">
        <ele>240.75</ele>
        <time>2015-06-07T09:56:06Z</time>
      </trkpt>
      <trkpt lat="45.26533" lon="0.94113">
        <ele>239.5</ele>
        <time>2015-06-07T09:56:09Z</time>
      </trkpt>
      <trkpt lat="45.26542" lon="0.94122">
        <ele>239</ele>
        <time>2015-06-07T09:56:12Z</time>
      </trkpt>
      <trkpt lat="45.26551" lon="0.94127">
        <ele>239</ele>
        <time>2015-06-07T09:56:16Z</time>
      </trkpt>
      <trkpt lat="45.2656" lon="0.9413">
        <ele>238.75</ele>
        <time>2015-06-07T09:56:19Z</time>
      </trkpt>
      <trkpt lat="45.2657" lon="0.94135">
        <ele>239</ele>
        <time>2015-06-07T09:56:23Z</time>
      </trkpt>
      <trkpt lat="45.2658" lon="0.9414">
        <ele>238.5</ele>
        <time>2015-06-07T09:56:27Z</time>
      </trkpt>
      <trkpt lat="45.26589" lon="0.94144">
        <ele>238.25</ele>
        <time>2015-06-07T09:56:29Z</time>
      </trkpt>
      <trkpt lat="45.26599" lon="0.9415">
        <ele>238</ele>
        <time>2015-06-07T09:56:31Z</time>
      </trkpt>
      <trkpt lat="45.26611" lon="0.94156">
        <ele>237.5</ele>
        <time>2015-06-07T09:56:34Z</time>
      </trkpt>
      <trkpt lat="45.26624" lon="0.9416">
        <ele>237</ele>
        <time>2015-06-07T09:56:36Z</time>
      </trkpt>
      <trkpt lat="45.26635" lon="0.94165">
        <ele>236.75</ele>
        <time>2015-06-07T09:56:38Z</time>
      </trkpt>
      <trkpt lat="45.26645" lon="0.94168">
        <ele>236.25</ele>
        <time>2015-06-07T09:56:40Z</time>
      </trkpt>
      <trkpt lat="45.26656" lon="0.9417">
        <ele>236</ele>
        <time>2015-06-07T09:56:43Z</time>
      </trkpt>
      <trkpt lat="45.26668" lon="0.94172">
        <ele>236</ele>
        <time>2015-06-07T09:56:46Z</time>
      </trkpt>
      <trkpt lat="45.26678" lon="0.9417">
        <ele>235.5</ele>
        <time>2015-06-07T09:56:49Z</time>
      </trkpt>
      <trkpt lat="45.26687" lon="0.94167">
        <ele>234.75</ele>
        <time>2015-06-07T09:56:51Z</time>
      </trkpt>
      <trkpt lat="45.26698" lon="0.94166">
        <ele>234.25</ele>
        <time>2015-06-07T09:56:53Z</time>
      </trkpt>
      <trkpt lat="45.2671" lon="0.94165">
        <ele>234</ele>
        <time>2015-06-07T09:56:55Z</time>
      </trkpt>
      <trkpt lat="45.26722" lon="0.94165">
        <ele>234</ele>
        <time>2015-06-07T09:56:57Z</time>
      </trkpt>
      <trkpt lat="45.26732" lon="0.94166">
        <ele>234</ele>
        <time>2015-06-07T09:56:59Z</time>
      </trkpt>
      <trkpt lat="45.26743" lon="0.94166">
        <ele>234</ele>
        <time>2015-06-07T09:57:01Z</time>
      </trkpt>
      <trkpt lat="45.26755" lon="0.94166">
        <ele>234</ele>
        <time>2015-06-07T09:57:03Z</time>
      </trkpt>
      <trkpt lat="45.26766" lon="0.94166">
        <ele>234</ele>
        <time>2015-06-07T09:57:06Z</time>
      </trkpt>
      <trkpt lat="45.26779" lon="0.94166">
        <ele>234.25</ele>
        <time>2015-06-07T09:57:08Z</time>
      </trkpt>
      <trkpt lat="45.2679" lon="0.94168">
        <ele>234.25</ele>
        <time>2015-06-07T09:57:10Z</time>
      </trkpt>
      <trkpt lat="45.26801" lon="0.9417">
        <ele>234</ele>
        <time>2015-06-07T09:57:12Z</time>
      </trkpt>
      <trkpt lat="45.26813" lon="0.94174">
        <ele>234</ele>
        <time>2015-06-07T09:57:14Z</time>
      </trkpt>
      <trkpt lat="45.26825" lon="0.94178">
        <ele>233.75</ele>
        <time>2015-06-07T09:57:16Z</time>
      </trkpt>
      <trkpt lat="45.26837" lon="0.94181">
        <ele>233.25</ele>
        <time>2015-06-07T09:57:18Z</time>
      </trkpt>
      <trkpt lat="45.26847" lon="0.94185">
        <ele>233</ele>
        <time>2015-06-07T09:57:20Z</time>
      </trkpt>
      <trkpt lat="45.26857" lon="0.94189">
        <ele>233</ele>
        <time>2015-06-07T09:57:22Z</time>
      </trkpt>
      <trkpt lat="45.26868" lon="0.94192">
        <ele>232.5</ele>
        <time>2015-06-07T09:57:24Z</time>
      </trkpt>
      <trkpt lat="45.2688" lon="0.94194">
        <ele>231.75</ele>
        <time>2015-06-07T09:57:26Z</time>
      </trkpt>
      <trkpt lat="45.26892" lon="0.94194">
        <ele>230.75</ele>
        <time>2015-06-07T09:57:28Z</time>
      </trkpt>
      <trkpt lat="45.26903" lon="0.94192">
        <ele>229.5</ele>
        <time>2015-06-07T09:57:30Z</time>
      </trkpt>
      <trkpt lat="45.26911" lon="0.94189">
        <ele>228.75</ele>
        <time>2015-06-07T09:57:32Z</time>
      </trkpt>
      <trkpt lat="45.26926" lon="0.94185">
        <ele>227.75</ele>
        <time>2015-06-07T09:57:35Z</time>
      </trkpt>
      <trkpt lat="45.26939" lon="0.94182">
        <ele>227.25</ele>
        <time>2015-06-07T09:57:38Z</time>
      </trkpt>
      <trkpt lat="45.26952" lon="0.94179">
        <ele>227</ele>
        <time>2015-06-07T09:57:40Z</time>
      </trkpt>
      <trkpt lat="45.26964" lon="0.94174">
        <ele>227</ele>
        <time>2015-06-07T09:57:42Z</time>
      </trkpt>
      <trkpt lat="45.26979" lon="0.94166">
        <ele>227</ele>
        <time>2015-06-07T09:57:44Z</time>
      </trkpt>
      <trkpt lat="45.26993" lon="0.9416">
        <ele>226.5</ele>
        <time>2015-06-07T09:57:46Z</time>
      </trkpt>
      <trkpt lat="45.27007" lon="0.94156">
        <ele>225.5</ele>
        <time>2015-06-07T09:57:48Z</time>
      </trkpt>
      <trkpt lat="45.27021" lon="0.94153">
        <ele>224.5</ele>
        <time>2015-06-07T09:57:50Z</time>
      </trkpt>
      <trkpt lat="45.27035" lon="0.94149">
        <ele>223.25</ele>
        <time>2015-06-07T09:57:52Z</time>
      </trkpt>
      <trkpt lat="45.27048" lon="0.94145">
        <ele>222</ele>
        <time>2015-06-07T09:57:54Z</time>
      </trkpt>
      <trkpt lat="45.2706" lon="0.94143">
        <ele>220.5</ele>
        <time>2015-06-07T09:57:56Z</time>
      </trkpt>
      <trkpt lat="45.2707" lon="0.94141">
        <ele>219</ele>
        <time>2015-06-07T09:57:58Z</time>
      </trkpt>
      <trkpt lat="45.2708" lon="0.9414">
        <ele>217.25</ele>
        <time>2015-06-07T09:58:01Z</time>
      </trkpt>
      <trkpt lat="45.27092" lon="0.94138">
        <ele>214.5</ele>
        <time>2015-06-07T09:58:04Z</time>
      </trkpt>
      <trkpt lat="45.27107" lon="0.94133">
        <ele>210</ele>
        <time>2015-06-07T09:58:08Z</time>
      </trkpt>
      <trkpt lat="45.27117" lon="0.94131">
        <ele>205.25</ele>
        <time>2015-06-07T09:58:10Z</time>
      </trkpt>
      <trkpt lat="45.27127" lon="0.94131">
        <ele>200.25</ele>
        <time>2015-06-07T09:58:14Z</time>
      </trkpt>
      <trkpt lat="45.27136" lon="0.94135">
        <ele>198.25</ele>
        <time>2015-06-07T09:58:17Z</time>
      </trkpt>
      <trkpt lat="45.27147" lon="0.9414">
        <ele>197</ele>
        <time>2015-06-07T09:58:21Z</time>
      </trkpt>
      <trkpt lat="45.27158" lon="0.94149">
        <ele>196.25</ele>
        <time>2015-06-07T09:58:24Z</time>
      </trkpt>
      <trkpt lat="45.27167" lon="0.94157">
        <ele>194.75</ele>
        <time>2015-06-07T09:58:27Z</time>
      </trkpt>
      <trkpt lat="45.27175" lon="0.94164">
        <ele>193.25</ele>
        <time>2015-06-07T09:58:34Z</time>
      </trkpt>
      <trkpt lat="45.27183" lon="0.9417">
        <ele>190.75</ele>
        <time>2015-06-07T09:58:42Z</time>
      </trkpt>
      <trkpt lat="45.27191" lon="0.94177">
        <ele>190</ele>
        <time>2015-06-07T09:58:53Z</time>
      </trkpt>
      <trkpt lat="45.27203" lon="0.94182">
        <ele>188</ele>
        <time>2015-06-07T09:59:37Z</time>
      </trkpt>
      <trkpt lat="45.27212" lon="0.94191">
        <ele>188</ele>
        <time>2015-06-07T09:59:41Z</time>
      </trkpt>
      <trkpt lat="45.27222" lon="0.94198">
        <ele>188</ele>
        <time>2015-06-07T09:59:44Z</time>
      </trkpt>
      <trkpt lat="45.27232" lon="0.942">
        <ele>188</ele>
        <time>2015-06-07T09:59:47Z</time>
      </trkpt>
      <trkpt lat="45.27242" lon="0.94202">
        <ele>188.75</ele>
        <time>2015-06-07T09:59:52Z</time>
      </trkpt>
      <trkpt lat="45.27252" lon="0.94206">
        <ele>189</ele>
        <time>2015-06-07T09:59:56Z</time>
      </trkpt>
      <trkpt lat="45.27263" lon="0.94209">
        <ele>189</ele>
        <time>2015-06-07T10:00:01Z</time>
      </trkpt>
      <trkpt lat="45.27275" lon="0.94209">
        <ele>189.5</ele>
        <time>2015-06-07T10:00:04Z</time>
      </trkpt>
      <trkpt lat="45.27285" lon="0.94207">
        <ele>189.75</ele>
        <time>2015-06-07T10:00:07Z</time>
      </trkpt>
      <trkpt lat="45.27294" lon="0.94209">
        <ele>187</ele>
        <time>2015-06-07T10:00:14Z</time>
      </trkpt>
      <trkpt lat="45.27303" lon="0.94207">
        <ele>185.25</ele>
        <time>2015-06-07T10:00:22Z</time>
      </trkpt>
      <trkpt lat="45.27312" lon="0.94201">
        <ele>186</ele>
        <time>2015-06-07T10:00:30Z</time>
      </trkpt>
      <trkpt lat="45.2732" lon="0.94196">
        <ele>187</ele>
        <time>2015-06-07T10:00:39Z</time>
      </trkpt>
      <trkpt lat="45.27327" lon="0.94186">
        <ele>184.25</ele>
        <time>2015-06-07T10:00:57Z</time>
      </trkpt>
      <trkpt lat="45.27336" lon="0.94181">
        <ele>185.25</ele>
        <time>2015-06-07T10:01:02Z</time>
      </trkpt>
      <trkpt lat="45.27344" lon="0.94176">
        <ele>186</ele>
        <time>2015-06-07T10:01:16Z</time>
      </trkpt>
      <trkpt lat="45.27353" lon="0.94176">
        <ele>186</ele>
        <time>2015-06-07T10:01:36Z</time>
      </trkpt>
      <trkpt lat="45.27357" lon="0.94174">
        <ele>188.75</ele>
        <time>2015-06-07T10:01:53Z</time>
      </trkpt>
    </trkseg>
  </trk>
</gpx>